[[{"header":{"parameterUnit":"m.s-1","parameterCategory":1,"la1":31.0,"la2":29.5877,"lo1":-88.7671,"lo2":-86.6584,"dy":0.0162,"dx":0.0185,"nx":115,"ny":88,"refTime":"2024-03-29T06:00:00:Z","depth":0,"parameterNumber":2,"parameterNumberName":"U-component_of_WINDS"},"data":[0.0,0.0,0.0,0.0,0.0,0.0,0.0,0.0,0.0,0.0,0.0,0.0,0.0,0.0,0.0,0.0,0.0,0.0,0.0,0.0,0.0,0.0,0.0,0.0,0.0,0.0,0.0,0.0,0.0,0.0,0.0,0.0,0.0,0.0,0.0,0.0,0.0,0.0,0.0,0.0,0.0,0.0,0.0,0.0,0.0,0.0,0.0,0.0,0.0,0.0,0.0,0.0,0.0,0.0,0.0,0.0,0.0,0.0,0.0,0.0,0.0,0.0,0.0,0.0,0.0,0.0,0.0,0.0,0.0,0.0,0.0,0.0,0.0,0.0,0.0,0.0,0.0,0.0,0.0,0.0,0.0,0.0,0.0,0.0,0.0,0.0,0.0,0.0,0.0,0.0,0.0,0.0,0.0,0.0,0.0,0.0,0.0,0.0,0.0,0.0,0.0,0.0,0.0,0.0,0.0,0.0,0.0,0.0,0.0,0.0,0.0,0.0,0.0,0.0,0.0,0.0,0.0,0.0,0.0,0.0,0.0,0.0,0.0,0.0,0.0,0.0,0.0,0.0,0.0,0.0,0.0,0.0,0.0,0.0,0.0,0.0,0.0,0.0,0.0,0.0,0.0,0.0,0.0,0.0,0.0,0.0,0.0,0.0,0.0,0.0,0.0,0.0,0.0,0.0,0.0,0.0,0.0,0.0,0.0,0.0,0.0,0.0,0.0,0.0,0.0,0.0,0.0,0.0,0.0,0.0,0.0,0.0,0.0,0.0,0.0,0.0,0.0,0.0,0.0,0.0,0.0,0.0,0.0,0.0,0.0,0.0,0.0,0.0,0.0,0.0,0.0,0.0,0.0,0.0,0.0,0.0,0.0,0.0,0.0,0.0,0.0,0.0,0.0,0.0,0.0,0.0,0.0,0.0,0.0,0.0,0.0,0.0,0.0,0.0,0.0,0.0,0.0,0.0,0.0,0.0,0.0,0.0,0.0,0.0,0.0,0.0,0.0,0.0,0.0,0.0,0.0,0.0,0.0,0.0,0.0,0.0,0.0,0.0,0.0,0.0,0.0,0.0,0.0,0.0,0.0,0.0,0.0,0.0,0.0,0.0,0.0,0.0,0.0,0.0,0.0,0.0,0.0,0.0,0.0,0.0,0.0,0.0,0.0,0.0,0.0,0.0,0.0,0.0,0.0,0.0,0.0,0.0,0.0,0.0,0.0,0.0,0.0,0.0,0.0,0.0,0.0,0.0,0.0,0.0,0.0,0.0,0.0,0.0,0.0,0.0,0.0,0.0,0.0,0.0,0.0,0.0,0.0,0.0,0.0,0.0,0.0,0.0,0.0,0.0,0.0,0.0,0.0,0.0,0.0,0.0,0.0,0.0,0.0,0.0,0.0,0.0,0.0,0.0,0.0,0.0,0.0,0.0,0.0,0.0,0.0,0.0,0.0,0.0,0.0,0.0,0.0,0.0,0.0,0.0,0.0,0.0,0.0,0.0,0.0,0.0,0.0,0.0,0.0,0.0,0.0,0.0,0.0,0.0,0.0,0.0,0.0,0.0,0.0,0.0,0.0,0.0,0.0,0.0,0.0,0.0,0.0,0.0,0.0,0.0,0.0,0.0,0.0,0.0,0.0,0.0,0.0,0.0,0.0,0.0,0.0,0.0,0.0,0.0,0.0,0.0,0.0,0.0,0.0,0.0,0.0,0.0,0.0,0.0,0.0,0.0,0.0,0.0,0.0,0.0,0.0,0.0,0.0,0.0,0.0,0.0,0.0,0.0,0.0,0.0,0.0,0.0,0.0,0.0,0.0,0.0,0.0,0.0,0.0,0.0,0.0,0.0,0.0,0.0,0.0,0.0,0.0,0.0,0.0,0.0,0.0,0.0,0.0,0.0,0.0,0.0,0.0,0.0,0.0,0.0,0.0,0.0,0.0,0.0,0.0,0.0,0.0,0.0,0.0,0.0,0.0,0.0,0.0,0.0,0.0,0.0,0.0,0.0,0.0,0.0,0.0,0.0,0.0,0.0,0.0,0.0,0.0,0.0,0.0,0.0,0.0,0.0,0.0,0.0,0.0,0.0,0.0,0.0,0.0,0.0,0.0,0.0,0.0,0.0,0.0,0.0,0.0,0.0,0.0,0.0,0.0,0.0,0.0,0.0,0.0,0.0,0.0,0.0,0.0,0.0,0.0,0.0,0.0,0.0,0.0,0.0,0.0,0.0,0.0,0.0,0.0,0.0,0.0,0.0,0.0,0.0,0.0,0.0,0.0,0.0,0.0,0.0,0.0,0.0,0.0,0.0,0.0,0.0,0.0,0.0,0.0,0.0,0.0,0.0,0.0,0.0,0.0,0.0,0.0,0.0,0.0,0.0,0.0,0.0,0.0,0.0,0.0,0.0,0.0,0.0,0.0,0.0,0.0,0.0,0.0,0.0,0.0,0.0,0.0,0.0,0.0,0.0,0.0,0.0,0.0,0.0,0.0,0.0,0.0,0.0,0.0,0.0,0.0,0.0,0.0,0.0,0.0,0.0,0.0,0.0,0.0,0.0,0.0,0.0,0.0,0.0,0.0,0.0,0.0,0.0,0.0,0.0,0.0,0.0,0.0,0.0,0.0,0.0,0.0,0.0,0.0,0.0,0.0,0.0,0.0,0.0,0.0,0.0,0.0,0.0,0.0,0.0,0.0,0.0,0.0,0.0,0.0,0.0,0.0,0.0,0.0,0.0,0.0,0.0,0.0,0.0,0.0,0.0,0.0,0.0,0.0,0.0,0.0,0.0,0.0,0.0,0.0,0.0,0.0,0.0,0.0,0.0,0.0,0.0,0.0,0.0,0.0,0.0,0.0,0.0,0.0,0.0,0.0,0.0,0.0,0.0,0.0,0.0,0.0,0.0,0.0,0.0,0.0,0.0,0.0,0.0,0.0,0.0,0.0,0.0,0.0,0.0,0.0,0.0,0.0,0.0,0.0,0.0,0.0,0.0,0.0,0.0,0.0,0.0,0.0,0.0,0.0,0.0,0.0,0.0,0.0,0.0,0.0,0.0,0.0,0.0,0.0,0.0,0.0,0.0,0.0,0.0,0.0,0.0,0.0,0.0,0.0,0.0,0.0,0.0,0.0,0.0,0.0,0.0,0.0,0.0,0.0,0.0,0.0,0.0,0.0,0.0,0.0,0.0,0.0,0.0,0.0,0.0,0.0,0.0,0.0,0.0,0.0,0.0,0.0,0.0,0.0,0.0,0.0,0.0,0.0,0.0,0.0,0.0,0.0,0.0,0.0,0.0,0.0,0.0,0.0,0.0,0.0,0.0,0.0,0.0,0.0,0.0,0.0,0.0,0.0,0.0,0.0,0.0,0.0,0.0,0.0,0.0,0.0,0.0,0.0,0.0,0.0,0.0,0.0,0.0,0.0,0.0,0.0,0.0,0.0,0.0,0.0,0.0,0.0,0.0,0.0,0.0,0.0,0.0,0.0,0.0,0.0,0.0,0.0,0.0,0.0,0.0,0.0,0.0,0.0,0.0,0.0,0.0,0.0,0.0,0.0,0.0,0.0,0.0,0.0,0.0,0.0,0.0,0.0,0.0,0.0,0.0,0.0,0.0,0.0,0.0,0.0,0.0,0.0,0.0,0.0,0.0,0.0,0.0,0.0,0.0,0.0,0.0,0.0,0.0,0.0,0.0,0.0,0.0,0.0,0.0,0.0,0.0,0.0,0.0,0.0,0.0,0.0,0.0,0.0,0.0,0.0,0.0,0.0,0.0,0.0,0.0,0.0,0.0,0.0,0.0,0.0,0.0,0.0,0.0,0.0,0.0,0.0,0.0,0.0,0.0,0.0,0.0,0.0,0.0,0.0,0.0,0.0,0.0,0.0,0.0,0.0,0.0,0.0,0.0,0.0,0.0,0.0,0.0,0.0,0.0,0.0,0.0,0.0,0.0,0.0,0.0,0.0,0.0,0.0,0.0,0.0,0.0,0.0,0.0,0.0,0.0,0.0,0.0,0.0,0.0,0.0,0.0,0.0,0.0,0.0,0.0,0.0,0.0,0.0,0.0,0.0,0.0,0.0,0.0,0.0,0.0,0.0,0.0,0.0,0.0,0.0,0.0,0.0,0.0,0.0,0.0,0.0,0.0,0.0,0.0,0.0,0.0,0.0,0.0,0.0,0.0,0.0,0.0,0.0,0.0,0.0,0.0,0.0,0.0,0.0,0.0,0.0,0.0,0.0,0.0,0.0,0.0,0.0,0.0,0.0,0.0,0.0,0.0,0.0,0.0,-6.2203,0.0,0.0,0.0,0.0,0.0,0.0,0.0,0.0,0.0,0.0,0.0,0.0,0.0,0.0,0.0,0.0,0.0,0.0,0.0,0.0,0.0,0.0,0.0,0.0,0.0,0.0,0.0,0.0,0.0,0.0,0.0,0.0,0.0,0.0,0.0,0.0,0.0,0.0,0.0,0.0,0.0,0.0,0.0,0.0,0.0,0.0,0.0,0.0,0.0,0.0,0.0,0.0,0.0,0.0,0.0,0.0,0.0,0.0,0.0,0.0,0.0,0.0,0.0,0.0,0.0,0.0,0.0,0.0,0.0,0.0,0.0,0.0,0.0,0.0,0.0,0.0,0.0,0.0,0.0,0.0,0.0,0.0,0.0,0.0,0.0,0.0,0.0,0.0,0.0,0.0,0.0,0.0,0.0,0.0,0.0,0.0,0.0,0.0,0.0,0.0,0.0,0.0,0.0,0.0,0.0,0.0,0.0,0.0,0.0,0.0,-6.2773,-6.2705,-6.2578,-6.2248,-6.1654,0.0,0.0,0.0,0.0,0.0,0.0,0.0,0.0,0.0,0.0,0.0,0.0,0.0,0.0,0.0,0.0,0.0,0.0,0.0,0.0,0.0,0.0,0.0,0.0,0.0,0.0,0.0,0.0,0.0,0.0,0.0,0.0,0.0,0.0,0.0,0.0,0.0,0.0,0.0,0.0,0.0,0.0,0.0,0.0,0.0,0.0,0.0,0.0,0.0,0.0,0.0,0.0,0.0,0.0,0.0,0.0,0.0,0.0,0.0,0.0,0.0,0.0,0.0,0.0,0.0,0.0,0.0,0.0,0.0,0.0,0.0,0.0,0.0,0.0,0.0,0.0,0.0,0.0,0.0,0.0,0.0,0.0,0.0,0.0,0.0,0.0,0.0,0.0,0.0,0.0,0.0,0.0,0.0,0.0,0.0,0.0,0.0,0.0,0.0,0.0,0.0,0.0,0.0,0.0,0.0,0.0,0.0,0.0,0.0,0.0,0.0,0.0,-6.2222,-6.1704,-6.0887,0.0,0.0,0.0,0.0,0.0,0.0,0.0,0.0,0.0,0.0,0.0,0.0,0.0,0.0,0.0,0.0,0.0,0.0,0.0,0.0,0.0,0.0,0.0,0.0,0.0,0.0,0.0,0.0,0.0,0.0,0.0,0.0,0.0,0.0,0.0,0.0,0.0,0.0,0.0,0.0,0.0,0.0,0.0,0.0,0.0,0.0,0.0,0.0,0.0,0.0,0.0,0.0,0.0,0.0,0.0,0.0,0.0,0.0,0.0,0.0,0.0,0.0,0.0,0.0,0.0,0.0,0.0,0.0,0.0,0.0,0.0,0.0,0.0,0.0,0.0,0.0,0.0,0.0,0.0,0.0,0.0,0.0,0.0,0.0,0.0,0.0,0.0,0.0,0.0,0.0,0.0,0.0,0.0,0.0,0.0,0.0,0.0,0.0,0.0,0.0,0.0,0.0,0.0,0.0,0.0,0.0,0.0,0.0,0.0,0.0,-6.1704,-6.1704,-6.0884,0.0,-5.9903,0.0,0.0,0.0,0.0,0.0,0.0,0.0,0.0,0.0,0.0,0.0,0.0,0.0,0.0,0.0,0.0,0.0,0.0,0.0,0.0,0.0,0.0,0.0,0.0,0.0,0.0,0.0,0.0,0.0,0.0,0.0,0.0,0.0,0.0,0.0,0.0,0.0,0.0,0.0,0.0,0.0,0.0,0.0,0.0,0.0,0.0,0.0,0.0,0.0,0.0,0.0,0.0,0.0,0.0,0.0,0.0,0.0,0.0,0.0,0.0,0.0,0.0,0.0,0.0,0.0,0.0,0.0,0.0,0.0,0.0,0.0,0.0,0.0,0.0,0.0,0.0,0.0,0.0,0.0,0.0,0.0,0.0,0.0,0.0,0.0,0.0,0.0,0.0,0.0,0.0,0.0,0.0,0.0,0.0,0.0,0.0,0.0,0.0,0.0,0.0,0.0,0.0,0.0,0.0,0.0,0.0,0.0,0.0,0.0,0.0,-6.0878,-6.0896,-5.9987,-5.9377,0.0,0.0,0.0,0.0,0.0,0.0,0.0,0.0,0.0,0.0,0.0,0.0,0.0,0.0,0.0,0.0,0.0,0.0,0.0,0.0,0.0,0.0,0.0,0.0,0.0,0.0,0.0,0.0,0.0,0.0,0.0,0.0,0.0,0.0,0.0,0.0,0.0,0.0,0.0,0.0,0.0,0.0,0.0,0.0,0.0,0.0,0.0,0.0,0.0,0.0,0.0,0.0,0.0,0.0,0.0,0.0,0.0,0.0,0.0,0.0,0.0,0.0,0.0,0.0,0.0,0.0,0.0,0.0,0.0,0.0,0.0,0.0,0.0,0.0,0.0,0.0,0.0,0.0,0.0,0.0,0.0,0.0,0.0,0.0,0.0,0.0,0.0,0.0,0.0,0.0,0.0,0.0,0.0,0.0,0.0,0.0,0.0,0.0,0.0,0.0,0.0,0.0,0.0,0.0,0.0,0.0,0.0,0.0,0.0,0.0,-6.0199,-5.9979,-5.9722,-5.9053,-5.8616,-5.8458,0.0,0.0,0.0,0.0,0.0,0.0,0.0,0.0,0.0,0.0,0.0,0.0,0.0,0.0,0.0,0.0,0.0,0.0,0.0,0.0,0.0,0.0,0.0,0.0,0.0,0.0,0.0,0.0,0.0,0.0,0.0,0.0,0.0,0.0,0.0,0.0,0.0,0.0,0.0,0.0,0.0,0.0,0.0,0.0,0.0,0.0,0.0,0.0,0.0,0.0,0.0,0.0,0.0,0.0,0.0,0.0,0.0,0.0,0.0,0.0,0.0,0.0,0.0,0.0,0.0,0.0,0.0,0.0,0.0,0.0,0.0,0.0,0.0,0.0,0.0,0.0,0.0,0.0,0.0,0.0,0.0,0.0,0.0,0.0,0.0,0.0,0.0,0.0,0.0,0.0,0.0,0.0,0.0,0.0,0.0,0.0,0.0,0.0,0.0,0.0,0.0,0.0,0.0,0.0,0.0,0.0,0.0,0.0,-6.0364,-5.9625,-5.8896,-5.8162,-5.7954,-5.7799,0.0,0.0,0.0,0.0,0.0,0.0,0.0,0.0,0.0,0.0,0.0,0.0,0.0,0.0,0.0,0.0,0.0,0.0,0.0,0.0,0.0,0.0,0.0,0.0,0.0,0.0,0.0,0.0,0.0,0.0,0.0,0.0,0.0,0.0,0.0,0.0,0.0,0.0,0.0,0.0,0.0,0.0,0.0,0.0,0.0,0.0,0.0,0.0,0.0,0.0,0.0,0.0,0.0,0.0,0.0,0.0,0.0,0.0,0.0,0.0,0.0,0.0,0.0,0.0,0.0,0.0,0.0,0.0,0.0,0.0,0.0,0.0,0.0,0.0,0.0,0.0,0.0,0.0,0.0,0.0,0.0,0.0,0.0,0.0,0.0,0.0,0.0,0.0,0.0,0.0,0.0,0.0,0.0,0.0,0.0,0.0,0.0,0.0,0.0,0.0,0.0,0.0,0.0,0.0,0.0,0.0,0.0,0.0,0.0,-5.8896,-5.8584,-5.829,-5.8015,-5.795,-5.7881,0.0,0.0,0.0,0.0,0.0,0.0,0.0,0.0,0.0,0.0,0.0,0.0,0.0,0.0,0.0,0.0,0.0,0.0,0.0,0.0,0.0,0.0,0.0,0.0,0.0,0.0,0.0,0.0,0.0,0.0,0.0,0.0,0.0,0.0,0.0,0.0,0.0,0.0,0.0,0.0,0.0,0.0,0.0,0.0,0.0,0.0,0.0,0.0,0.0,0.0,0.0,0.0,0.0,0.0,0.0,0.0,0.0,0.0,0.0,0.0,0.0,0.0,0.0,0.0,0.0,0.0,0.0,0.0,0.0,0.0,0.0,0.0,0.0,0.0,0.0,0.0,0.0,0.0,0.0,0.0,0.0,0.0,0.0,0.0,0.0,0.0,0.0,0.0,0.0,0.0,0.0,0.0,0.0,0.0,0.0,0.0,0.0,0.0,0.0,0.0,0.0,0.0,0.0,0.0,0.0,0.0,0.0,0.0,0.0,-5.8148,0.0,-5.8084,-5.8065,-5.802,-5.795,0.0,0.0,0.0,0.0,0.0,0.0,0.0,0.0,0.0,0.0,0.0,0.0,0.0,0.0,0.0,0.0,0.0,0.0,0.0,0.0,0.0,0.0,0.0,0.0,0.0,0.0,0.0,0.0,0.0,0.0,0.0,0.0,0.0,0.0,0.0,0.0,0.0,0.0,0.0,0.0,0.0,0.0,0.0,0.0,0.0,0.0,0.0,0.0,0.0,0.0,0.0,0.0,0.0,0.0,0.0,0.0,0.0,0.0,0.0,0.0,0.0,0.0,0.0,0.0,0.0,0.0,0.0,0.0,0.0,0.0,0.0,0.0,0.0,0.0,0.0,0.0,0.0,0.0,0.0,0.0,0.0,0.0,0.0,0.0,0.0,0.0,0.0,0.0,0.0,0.0,0.0,0.0,0.0,0.0,0.0,0.0,0.0,0.0,0.0,0.0,0.0,0.0,0.0,0.0,0.0,0.0,0.0,0.0,-5.8282,-5.8393,-5.8264,-5.8197,-5.8197,-5.8065,-5.795,0.0,0.0,0.0,0.0,0.0,0.0,0.0,0.0,0.0,0.0,0.0,0.0,0.0,0.0,0.0,0.0,0.0,0.0,0.0,0.0,0.0,0.0,0.0,0.0,0.0,0.0,0.0,0.0,0.0,0.0,0.0,0.0,0.0,0.0,0.0,0.0,0.0,0.0,0.0,0.0,0.0,0.0,0.0,0.0,0.0,0.0,0.0,0.0,0.0,0.0,0.0,0.0,0.0,0.0,0.0,0.0,0.0,0.0,0.0,0.0,0.0,0.0,0.0,0.0,0.0,0.0,0.0,0.0,0.0,0.0,0.0,0.0,0.0,0.0,0.0,0.0,0.0,0.0,0.0,0.0,0.0,0.0,0.0,0.0,0.0,0.0,0.0,0.0,0.0,0.0,0.0,0.0,0.0,0.0,0.0,0.0,0.0,0.0,0.0,0.0,0.0,0.0,0.0,0.0,0.0,0.0,0.0,0.0,0.0,-5.8393,-5.8349,-5.8305,-5.8197,-5.8174,-5.8084,0.0,0.0,0.0,0.0,0.0,0.0,0.0,0.0,0.0,0.0,0.0,0.0,0.0,0.0,0.0,0.0,0.0,0.0,0.0,0.0,0.0,0.0,0.0,0.0,0.0,0.0,0.0,0.0,0.0,0.0,0.0,0.0,0.0,0.0,0.0,0.0,0.0,0.0,0.0,0.0,0.0,0.0,0.0,0.0,0.0,0.0,0.0,0.0,0.0,0.0,0.0,0.0,0.0,0.0,0.0,0.0,0.0,0.0,0.0,0.0,0.0,0.0,0.0,0.0,0.0,0.0,0.0,0.0,0.0,0.0,0.0,0.0,0.0,0.0,0.0,0.0,0.0,0.0,0.0,0.0,0.0,0.0,0.0,0.0,0.0,0.0,0.0,0.0,0.0,0.0,0.0,0.0,0.0,0.0,0.0,0.0,0.0,0.0,0.0,0.0,0.0,0.0,0.0,0.0,0.0,0.0,0.0,0.0,0.0,-5.8505,-5.8462,-5.8378,-5.8331,-5.8286,-5.8219,-5.8065,0.0,0.0,0.0,0.0,0.0,0.0,0.0,0.0,0.0,0.0,0.0,0.0,0.0,0.0,0.0,0.0,0.0,0.0,0.0,0.0,0.0,0.0,0.0,0.0,0.0,0.0,0.0,0.0,0.0,0.0,0.0,0.0,0.0,0.0,0.0,0.0,0.0,0.0,0.0,0.0,0.0,0.0,0.0,0.0,0.0,0.0,0.0,0.0,0.0,0.0,0.0,0.0,0.0,0.0,0.0,0.0,0.0,0.0,0.0,0.0,0.0,0.0,0.0,0.0,0.0,0.0,0.0,0.0,0.0,0.0,0.0,0.0,0.0,0.0,0.0,0.0,0.0,0.0,0.0,0.0,0.0,0.0,0.0,0.0,0.0,0.0,0.0,0.0,0.0,0.0,0.0,0.0,0.0,0.0,0.0,0.0,0.0,0.0,0.0,0.0,0.0,0.0,0.0,0.0,0.0,0.0,0.0,0.0,-5.8716,-5.8574,-5.8511,-5.8511,-5.8422,-5.8349,0.0,0.0,0.0,0.0,0.0,0.0,0.0,0.0,0.0,0.0,0.0,0.0,0.0,0.0,0.0,0.0,0.0,0.0,0.0,0.0,0.0,0.0,0.0,0.0,0.0,0.0,0.0,0.0,0.0,0.0,0.0,0.0,0.0,0.0,0.0,0.0,0.0,0.0,0.0,0.0,0.0,0.0,0.0,0.0,0.0,0.0,0.0,0.0,0.0,0.0,0.0,0.0,0.0,0.0,0.0,0.0,0.0,0.0,0.0,0.0,0.0,0.0,0.0,0.0,0.0,0.0,0.0,0.0,0.0,0.0,0.0,0.0,0.0,0.0,0.0,0.0,0.0,0.0,0.0,0.0,0.0,0.0,0.0,0.0,0.0,0.0,0.0,0.0,0.0,0.0,0.0,0.0,0.0,0.0,0.0,0.0,0.0,0.0,0.0,0.0,0.0,0.0,0.0,0.0,0.0,0.0,0.0,0.0,0.0,-5.8838,-5.8818,-5.8716,-5.8511,-5.8468,-5.8378,0.0,0.0,0.0,0.0,0.0,0.0,0.0,0.0,0.0,0.0,0.0,0.0,0.0,0.0,0.0,0.0,0.0,0.0,0.0,0.0,0.0,0.0,0.0,0.0,0.0,0.0,0.0,0.0,0.0,0.0,0.0,0.0,0.0,0.0,0.0,0.0,0.0,0.0,0.0,0.0,0.0,0.0,0.0,0.0,0.0,0.0,0.0,0.0,0.0,0.0,0.0,0.0,0.0,0.0,0.0,0.0,0.0,0.0,0.0,0.0,0.0,0.0,0.0,0.0,0.0,0.0,0.0,0.0,0.0,0.0,0.0,0.0,0.0,0.0,0.0,0.0,0.0,0.0,0.0,0.0,0.0,0.0,0.0,0.0,0.0,0.0,0.0,0.0,0.0,0.0,0.0,0.0,0.0,0.0,0.0,0.0,0.0,0.0,0.0,0.0,0.0,0.0,0.0,0.0,0.0,0.0,0.0,0.0,-5.8941,-5.8941,-5.8922,-5.8862,-5.8702,-5.8638,-5.8489,0.0,0.0,0.0,0.0,0.0,0.0,0.0,0.0,0.0,0.0,0.0,0.0,0.0,0.0,0.0,0.0,0.0,0.0,0.0,0.0,0.0,0.0,0.0,0.0,0.0,0.0,0.0,0.0,0.0,0.0,0.0,0.0,0.0,0.0,0.0,0.0,0.0,0.0,0.0,0.0,0.0,0.0,0.0,0.0,0.0,0.0,0.0,0.0,0.0,0.0,0.0,0.0,0.0,0.0,0.0,0.0,0.0,0.0,0.0,0.0,0.0,0.0,0.0,0.0,0.0,0.0,0.0,0.0,0.0,0.0,0.0,0.0,0.0,0.0,0.0,0.0,0.0,0.0,0.0,0.0,0.0,0.0,0.0,0.0,0.0,0.0,0.0,0.0,0.0,0.0,0.0,0.0,0.0,0.0,0.0,0.0,0.0,0.0,0.0,0.0,0.0,0.0,0.0,0.0,0.0,0.0,0.0,0.0,-5.9004,-5.9004,-5.9023,-5.9023,-5.9023,-5.8821,-5.8656,0.0,0.0,0.0,0.0,0.0,0.0,0.0,0.0,0.0,0.0,0.0,0.0,0.0,0.0,0.0,0.0,0.0,0.0,0.0,0.0,0.0,0.0,0.0,0.0,0.0,0.0,0.0,0.0,0.0,0.0,0.0,0.0,0.0,0.0,0.0,0.0,0.0,0.0,0.0,0.0,0.0,0.0,0.0,0.0,0.0,0.0,0.0,0.0,0.0,0.0,0.0,0.0,0.0,0.0,0.0,0.0,0.0,0.0,0.0,0.0,0.0,0.0,0.0,0.0,0.0,0.0,0.0,0.0,0.0,0.0,0.0,0.0,0.0,0.0,0.0,0.0,0.0,0.0,0.0,0.0,0.0,0.0,0.0,0.0,0.0,0.0,0.0,0.0,0.0,0.0,0.0,0.0,0.0,0.0,0.0,0.0,0.0,0.0,0.0,0.0,0.0,0.0,0.0,0.0,0.0,0.0,0.0,0.0,-5.9177,-5.9158,-5.9158,-5.9158,-5.9177,-5.898,-5.8797,0.0,0.0,0.0,0.0,0.0,0.0,0.0,0.0,0.0,0.0,0.0,0.0,0.0,0.0,0.0,0.0,0.0,0.0,0.0,0.0,0.0,0.0,0.0,0.0,0.0,0.0,0.0,0.0,0.0,0.0,0.0,0.0,0.0,0.0,0.0,0.0,0.0,0.0,0.0,0.0,0.0,0.0,0.0,0.0,0.0,0.0,0.0,0.0,-6.2823,0.0,0.0,0.0,0.0,0.0,0.0,0.0,0.0,0.0,0.0,0.0,0.0,0.0,0.0,0.0,0.0,0.0,0.0,0.0,0.0,0.0,0.0,0.0,0.0,0.0,0.0,0.0,0.0,0.0,0.0,0.0,0.0,0.0,0.0,0.0,0.0,0.0,0.0,0.0,0.0,0.0,0.0,0.0,0.0,0.0,0.0,0.0,0.0,0.0,0.0,0.0,0.0,0.0,0.0,0.0,0.0,0.0,0.0,0.0,-5.9234,-5.9234,-5.9234,-5.9253,-5.9234,-5.91,-5.8961,0.0,0.0,0.0,0.0,0.0,0.0,0.0,0.0,0.0,0.0,0.0,0.0,0.0,0.0,0.0,0.0,0.0,0.0,0.0,0.0,0.0,0.0,0.0,0.0,0.0,0.0,0.0,0.0,0.0,0.0,0.0,0.0,0.0,0.0,0.0,0.0,0.0,0.0,0.0,0.0,0.0,0.0,0.0,0.0,0.0,0.0,0.0,0.0,0.0,0.0,0.0,0.0,0.0,0.0,0.0,0.0,0.0,0.0,0.0,0.0,0.0,0.0,0.0,0.0,0.0,0.0,0.0,0.0,0.0,0.0,0.0,0.0,0.0,0.0,0.0,0.0,0.0,0.0,0.0,0.0,0.0,0.0,0.0,0.0,0.0,0.0,0.0,0.0,0.0,0.0,0.0,0.0,0.0,0.0,0.0,0.0,0.0,0.0,0.0,0.0,0.0,0.0,0.0,0.0,0.0,0.0,0.0,-5.9327,-5.9327,-5.9327,-5.9346,-5.9346,-5.9327,-5.9272,-5.9157,-5.896,0.0,0.0,0.0,0.0,0.0,0.0,0.0,0.0,0.0,0.0,0.0,0.0,0.0,0.0,0.0,0.0,0.0,0.0,0.0,0.0,0.0,0.0,0.0,0.0,0.0,0.0,0.0,0.0,0.0,0.0,0.0,0.0,0.0,0.0,0.0,0.0,0.0,0.0,-6.2441,-6.2552,0.0,0.0,0.0,0.0,0.0,0.0,0.0,0.0,-6.2848,0.0,0.0,0.0,0.0,0.0,0.0,0.0,0.0,0.0,0.0,0.0,0.0,0.0,0.0,0.0,0.0,0.0,0.0,0.0,0.0,0.0,0.0,0.0,0.0,0.0,0.0,0.0,0.0,0.0,0.0,0.0,0.0,0.0,0.0,0.0,0.0,0.0,0.0,0.0,0.0,0.0,0.0,0.0,0.0,0.0,0.0,0.0,0.0,0.0,0.0,0.0,0.0,0.0,0.0,0.0,0.0,-5.9438,-5.9475,-5.9492,-5.9544,-5.9544,-5.9528,-5.9456,-5.9457,-5.9365,-5.9157,0.0,0.0,0.0,0.0,0.0,0.0,0.0,0.0,0.0,0.0,0.0,0.0,0.0,0.0,0.0,0.0,0.0,0.0,0.0,0.0,0.0,0.0,0.0,0.0,0.0,0.0,0.0,0.0,0.0,0.0,0.0,0.0,0.0,0.0,0.0,0.0,0.0,0.0,0.0,-6.2755,-6.278,0.0,0.0,0.0,0.0,0.0,0.0,0.0,0.0,-6.3141,0.0,0.0,0.0,0.0,0.0,0.0,0.0,0.0,0.0,0.0,0.0,0.0,0.0,0.0,0.0,0.0,0.0,0.0,0.0,0.0,0.0,0.0,0.0,0.0,0.0,0.0,0.0,0.0,0.0,0.0,0.0,0.0,0.0,0.0,0.0,0.0,0.0,0.0,0.0,0.0,0.0,0.0,0.0,0.0,0.0,0.0,0.0,0.0,0.0,0.0,0.0,0.0,0.0,0.0,0.0,-5.9545,-5.9545,-5.9563,-5.9616,-5.9616,-5.9581,-5.9545,-5.9511,-5.9457,0.0,0.0,0.0,0.0,0.0,0.0,0.0,0.0,0.0,0.0,0.0,0.0,0.0,0.0,0.0,0.0,0.0,0.0,0.0,0.0,0.0,0.0,0.0,0.0,0.0,0.0,0.0,0.0,0.0,0.0,0.0,0.0,0.0,0.0,0.0,0.0,0.0,0.0,0.0,0.0,-6.2823,-6.2823,-6.2904,0.0,0.0,0.0,0.0,0.0,0.0,-6.3165,-6.3213,0.0,0.0,0.0,0.0,0.0,0.0,0.0,0.0,0.0,0.0,0.0,0.0,0.0,0.0,0.0,0.0,0.0,0.0,0.0,0.0,0.0,0.0,0.0,0.0,0.0,0.0,0.0,0.0,0.0,0.0,0.0,0.0,0.0,0.0,0.0,0.0,0.0,0.0,0.0,0.0,0.0,0.0,0.0,0.0,0.0,0.0,0.0,0.0,0.0,0.0,0.0,0.0,0.0,0.0,0.0,-5.9633,-5.9652,-5.965,-5.9668,-5.9668,-5.965,-5.9633,-5.9582,-5.9547,0.0,0.0,0.0,0.0,0.0,0.0,0.0,0.0,0.0,0.0,0.0,0.0,0.0,0.0,0.0,0.0,0.0,0.0,0.0,0.0,0.0,0.0,0.0,0.0,0.0,0.0,0.0,0.0,0.0,0.0,0.0,0.0,0.0,0.0,0.0,0.0,0.0,0.0,0.0,0.0,0.0,-6.288,-6.3026,-6.3051,0.0,0.0,0.0,0.0,-6.3218,-6.326,0.0,0.0,0.0,0.0,0.0,0.0,0.0,0.0,0.0,0.0,0.0,0.0,0.0,0.0,0.0,0.0,0.0,0.0,0.0,0.0,0.0,0.0,0.0,0.0,0.0,0.0,0.0,0.0,0.0,0.0,0.0,0.0,0.0,0.0,0.0,0.0,0.0,0.0,0.0,0.0,0.0,0.0,0.0,0.0,0.0,0.0,0.0,0.0,0.0,0.0,0.0,0.0,0.0,0.0,0.0,0.0,-5.9757,-5.9774,-5.9807,-5.9872,-5.9869,-5.9839,-5.9774,-5.9776,-5.9707,0.0,0.0,0.0,0.0,0.0,0.0,0.0,0.0,0.0,0.0,0.0,0.0,0.0,0.0,0.0,0.0,0.0,0.0,0.0,0.0,0.0,0.0,0.0,0.0,0.0,0.0,0.0,0.0,0.0,0.0,0.0,0.0,0.0,0.0,0.0,0.0,0.0,0.0,0.0,0.0,0.0,-6.3026,-6.3147,-6.3189,-6.3189,0.0,0.0,-6.3359,-6.3377,-6.3488,0.0,0.0,0.0,0.0,0.0,0.0,0.0,0.0,0.0,0.0,0.0,0.0,0.0,0.0,0.0,0.0,0.0,0.0,0.0,0.0,0.0,0.0,0.0,0.0,0.0,0.0,0.0,0.0,0.0,0.0,0.0,0.0,0.0,0.0,0.0,0.0,0.0,0.0,0.0,0.0,0.0,0.0,0.0,0.0,0.0,0.0,0.0,0.0,0.0,0.0,0.0,0.0,0.0,0.0,0.0,-5.9755,-5.9839,-5.9855,-5.9872,-5.9904,-5.9921,-5.9869,-5.9855,-5.9807,-5.9759,0.0,0.0,0.0,0.0,0.0,0.0,0.0,0.0,0.0,0.0,0.0,0.0,0.0,0.0,0.0,0.0,0.0,0.0,0.0,0.0,0.0,0.0,0.0,0.0,0.0,0.0,0.0,0.0,0.0,0.0,0.0,0.0,0.0,0.0,0.0,0.0,0.0,0.0,0.0,0.0,0.0,0.0,-6.3307,-6.3289,0.0,0.0,0.0,-6.3492,-6.3492,0.0,0.0,0.0,0.0,0.0,0.0,0.0,0.0,0.0,0.0,0.0,0.0,0.0,0.0,0.0,0.0,0.0,0.0,0.0,0.0,0.0,0.0,0.0,0.0,0.0,0.0,0.0,0.0,0.0,0.0,0.0,0.0,0.0,0.0,0.0,0.0,0.0,0.0,0.0,0.0,0.0,0.0,0.0,0.0,0.0,0.0,0.0,0.0,0.0,0.0,0.0,0.0,0.0,0.0,0.0,0.0,0.0,-5.9918,-5.995,-5.9931,-5.9931,-5.995,-5.995,-5.9918,-5.9872,0.0,0.0,0.0,0.0,0.0,0.0,0.0,0.0,0.0,0.0,0.0,0.0,0.0,0.0,0.0,0.0,0.0,0.0,0.0,0.0,0.0,0.0,0.0,0.0,0.0,0.0,0.0,-5.7745,0.0,0.0,0.0,0.0,0.0,0.0,0.0,0.0,0.0,0.0,0.0,0.0,0.0,0.0,-6.3307,-6.3424,-6.3447,-6.347,0.0,0.0,-6.3647,-6.3647,-6.3688,-6.3669,0.0,0.0,0.0,0.0,0.0,0.0,0.0,0.0,0.0,0.0,0.0,0.0,0.0,0.0,0.0,0.0,0.0,0.0,0.0,0.0,0.0,0.0,0.0,0.0,0.0,0.0,0.0,0.0,0.0,0.0,0.0,0.0,0.0,0.0,0.0,0.0,0.0,0.0,0.0,0.0,0.0,0.0,0.0,0.0,0.0,0.0,0.0,0.0,0.0,0.0,0.0,0.0,0.0,0.0,-5.9979,-6.0013,-6.0057,-6.0084,-6.0103,-6.0103,-6.0057,-5.9994,-5.9998,-5.9918,0.0,0.0,0.0,0.0,0.0,0.0,0.0,0.0,0.0,0.0,0.0,0.0,0.0,0.0,0.0,0.0,0.0,0.0,0.0,0.0,0.0,0.0,0.0,0.0,0.0,0.0,0.0,0.0,0.0,0.0,0.0,0.0,0.0,0.0,0.0,0.0,0.0,0.0,0.0,0.0,0.0,-6.3447,-6.3557,-6.3579,-6.3579,0.0,-6.371,-6.3798,-6.3798,-6.3826,-6.3873,-6.3873,0.0,0.0,0.0,0.0,0.0,0.0,0.0,0.0,0.0,0.0,0.0,0.0,0.0,0.0,0.0,0.0,0.0,0.0,0.0,0.0,0.0,0.0,0.0,0.0,0.0,0.0,0.0,0.0,0.0,0.0,0.0,0.0,0.0,0.0,0.0,0.0,0.0,0.0,0.0,0.0,0.0,0.0,0.0,0.0,0.0,0.0,0.0,0.0,0.0,0.0,0.0,0.0,0.0,-6.0072,-6.0053,-6.0103,-6.0099,-6.0099,-6.0099,-6.0103,-6.0072,-6.0072,-6.001,0.0,0.0,0.0,0.0,0.0,0.0,0.0,0.0,0.0,0.0,0.0,0.0,0.0,0.0,0.0,0.0,0.0,0.0,0.0,0.0,0.0,0.0,0.0,0.0,0.0,0.0,0.0,0.0,-5.8327,-5.8349,-5.8393,0.0,0.0,0.0,0.0,0.0,0.0,0.0,0.0,0.0,0.0,-6.3579,-6.371,-6.3714,0.0,0.0,-6.3826,-6.3848,-6.387,-6.3873,-6.3894,-6.3894,-6.3977,0.0,0.0,0.0,0.0,0.0,0.0,0.0,0.0,0.0,0.0,0.0,0.0,0.0,0.0,0.0,0.0,0.0,0.0,0.0,0.0,0.0,0.0,0.0,0.0,0.0,0.0,0.0,0.0,0.0,0.0,0.0,0.0,0.0,0.0,0.0,0.0,0.0,0.0,0.0,0.0,0.0,0.0,0.0,0.0,0.0,0.0,0.0,0.0,0.0,0.0,0.0,0.0,-6.0148,-6.0148,-6.0178,-6.0212,-6.0173,-6.0193,-6.0197,-6.0148,-6.0148,-6.0118,0.0,0.0,0.0,0.0,0.0,0.0,0.0,0.0,0.0,0.0,0.0,0.0,0.0,0.0,0.0,0.0,0.0,0.0,0.0,0.0,0.0,0.0,0.0,0.0,0.0,0.0,0.0,0.0,-5.848,-5.8502,-5.8483,0.0,0.0,0.0,0.0,0.0,0.0,0.0,0.0,0.0,0.0,-6.371,-6.3823,-6.3823,-6.3845,-6.3894,-6.3937,-6.3958,-6.3958,-6.4,-6.4063,-6.4042,0.0,0.0,0.0,0.0,0.0,0.0,0.0,0.0,0.0,0.0,0.0,0.0,0.0,0.0,0.0,0.0,0.0,0.0,0.0,0.0,0.0,0.0,0.0,0.0,0.0,0.0,0.0,-5.9774,0.0,0.0,-5.9597,0.0,0.0,0.0,0.0,0.0,0.0,0.0,0.0,0.0,0.0,0.0,0.0,0.0,0.0,0.0,0.0,0.0,0.0,0.0,0.0,0.0,0.0,-6.0298,-6.0313,-6.0347,-6.0389,-6.0389,-6.0389,-6.0366,-6.0294,-6.0298,-6.0231,-6.0099,0.0,0.0,0.0,0.0,0.0,0.0,0.0,0.0,0.0,0.0,0.0,0.0,0.0,0.0,0.0,0.0,0.0,0.0,0.0,0.0,0.0,0.0,0.0,0.0,0.0,0.0,-5.8489,-5.8614,-5.8696,0.0,0.0,0.0,0.0,0.0,0.0,0.0,0.0,0.0,-6.3646,-6.378,-6.3823,-6.3873,-6.3913,-6.3894,-6.3915,-6.4019,-6.4102,-6.4102,-6.4247,-6.4385,0.0,0.0,0.0,0.0,0.0,0.0,0.0,0.0,0.0,0.0,0.0,0.0,0.0,0.0,0.0,0.0,0.0,0.0,0.0,0.0,0.0,0.0,0.0,0.0,0.0,0.0,0.0,-6.001,-5.9998,0.0,0.0,0.0,0.0,0.0,0.0,0.0,0.0,0.0,0.0,0.0,-5.9866,-5.9947,0.0,0.0,0.0,0.0,0.0,0.0,0.0,0.0,0.0,0.0,0.0,0.0,-6.038,-6.038,-6.0394,-6.0403,-6.0403,-6.0403,-6.0408,-6.0361,-6.038,-6.0318,-6.025,0.0,0.0,0.0,0.0,0.0,0.0,0.0,0.0,0.0,0.0,0.0,0.0,0.0,0.0,0.0,0.0,0.0,0.0,0.0,0.0,0.0,0.0,0.0,0.0,0.0,-5.8803,0.0,0.0,0.0,0.0,0.0,0.0,0.0,0.0,0.0,0.0,-6.1164,-6.2007,-6.2953,-6.3534,-6.3931,-6.4019,-6.4021,-6.4081,0.0,0.0,0.0,0.0,0.0,0.0,0.0,0.0,0.0,0.0,0.0,0.0,0.0,0.0,-6.4501,-6.4501,-6.4501,-6.4501,-6.4501,0.0,0.0,0.0,0.0,0.0,0.0,0.0,0.0,0.0,0.0,0.0,0.0,0.0,0.0,-6.0163,-6.0099,-6.0099,0.0,0.0,0.0,0.0,0.0,0.0,0.0,0.0,-6.001,-6.0041,-6.0041,-6.0087,-6.0099,-6.0099,-6.0148,-6.0152,0.0,0.0,0.0,0.0,0.0,0.0,0.0,0.0,-6.0403,-6.0403,-6.0403,-6.0403,-6.0403,-6.0403,-6.0403,-6.0403,-6.0403,-6.038,-6.0313,-6.0171,-6.0091,0.0,0.0,0.0,0.0,0.0,0.0,0.0,0.0,0.0,0.0,0.0,0.0,0.0,0.0,0.0,0.0,0.0,0.0,0.0,0.0,0.0,0.0,0.0,-5.8984,0.0,0.0,0.0,0.0,0.0,0.0,0.0,0.0,0.0,-6.0041,-6.0862,-6.1724,-6.265,-6.3474,-6.4021,-6.4184,0.0,0.0,0.0,0.0,0.0,0.0,0.0,-6.4634,-6.4634,-6.4671,-6.4708,-6.4726,-6.4745,-6.4744,-6.478,0.0,0.0,-6.4615,-6.4615,-6.4615,-6.4615,-6.4615,-6.4615,-6.4652,-6.4634,-6.4652,0.0,0.0,0.0,0.0,-6.0591,0.0,0.0,0.0,-6.0403,-6.0299,0.0,-6.0114,0.0,0.0,0.0,0.0,-6.0118,-6.0084,0.0,0.0,-6.0118,-6.0118,-6.0118,-6.0099,-6.0099,-6.0118,-6.0245,-6.0313,-6.0313,-6.0313,0.0,0.0,0.0,0.0,0.0,0.0,-6.0403,-6.0403,-6.0403,-6.0403,-6.0403,-6.0403,-6.0403,-6.0403,-6.0403,-6.0361,-6.0294,-6.0313,-6.025,-6.0118,-6.0041,0.0,0.0,0.0,0.0,0.0,0.0,0.0,0.0,0.0,0.0,0.0,0.0,0.0,0.0,0.0,0.0,0.0,0.0,0.0,0.0,-5.9004,0.0,0.0,0.0,0.0,0.0,0.0,0.0,0.0,0.0,-5.9323,-6.0089,-6.0947,-6.1846,-6.2735,0.0,0.0,0.0,0.0,-6.4463,-6.4596,-6.4596,-6.4596,-6.4615,-6.4671,-6.4725,-6.4725,0.0,0.0,-6.4991,-6.4989,-6.5042,-6.5163,-6.5163,-6.5061,-6.469,-6.4652,-6.4634,-6.4634,-6.4652,-6.4652,-6.4688,-6.4743,-6.4761,-6.0265,0.0,0.0,0.0,0.0,-6.0623,-6.0578,-6.0539,-6.0539,-6.0525,-6.0433,-6.0412,0.0,0.0,0.0,0.0,0.0,0.0,-6.0099,-6.0099,-6.0197,-6.025,-6.025,-6.0304,-6.0313,-6.0332,-6.0366,-6.0361,-6.038,-6.0361,-6.0361,-6.0361,0.0,0.0,0.0,0.0,-6.0472,-6.0472,-6.0525,-6.052,-6.0539,-6.052,-6.0525,-6.0472,-6.0472,-6.0444,-6.0361,-6.0323,-6.0279,-6.0231,-6.0137,0.0,0.0,0.0,0.0,0.0,0.0,0.0,0.0,0.0,0.0,0.0,0.0,0.0,0.0,0.0,0.0,0.0,0.0,0.0,-5.9197,-5.9215,-5.9215,0.0,0.0,0.0,0.0,0.0,0.0,0.0,0.0,0.0,-5.9758,-6.0866,-6.1801,0.0,0.0,-6.4366,-6.452,-6.4558,-6.4577,-6.4671,-6.467,0.0,-6.4799,-6.4869,-6.492,-6.492,-6.5027,-6.5114,-6.5128,-6.5128,-6.5163,-6.5196,-6.518,-6.5163,-6.5063,-6.501,-6.5029,-6.5029,-6.5029,-6.5027,-6.5044,-6.5061,-6.508,-5.9908,-6.0883,-6.0846,-6.08,-6.0753,-6.0729,-6.0685,-6.068,-6.0635,-6.0629,-6.0591,-6.0552,-6.0539,-6.0539,-6.0499,0.0,0.0,0.0,-6.027,-6.0285,-6.0304,-6.0337,-6.0337,-6.0375,-6.0403,-6.0403,-6.0431,-6.0444,-6.0425,-6.0472,-6.0472,-6.0453,0.0,-6.0425,-6.0485,-6.0512,-6.0539,-6.0539,-6.0578,-6.0623,-6.0623,-6.0623,-6.0578,-6.0539,-6.0512,-6.0485,-6.0464,-6.0361,-6.0337,-6.0337,-6.0245,-6.0152,0.0,0.0,0.0,0.0,0.0,0.0,0.0,0.0,0.0,0.0,0.0,-5.9401,-5.9365,0.0,0.0,0.0,-5.9365,-5.9364,-5.94,-5.94,0.0,0.0,0.0,0.0,0.0,0.0,0.0,-5.9546,-5.9546,-5.9545,-5.9636,-6.0923,-6.1902,-6.2014,-6.3446,-6.452,-6.4634,0.0,-6.467,-6.4778,-6.4833,-6.4868,-6.5012,-6.5044,-6.5059,-6.5095,-6.5128,-6.5196,-6.5229,-6.5229,-6.5245,-6.5277,-6.5293,-6.5274,-6.5274,-6.5274,-6.5242,-6.5196,-6.518,-6.518,-6.518,-6.518,-6.518,-5.9552,-6.1041,-6.1039,-6.1008,-6.0987,-6.0933,-6.0888,-6.0812,-6.0753,-6.0673,-6.0629,-6.0617,-6.0604,-6.0623,-6.0623,0.0,-6.0591,-6.052,-6.0512,-6.0512,-6.0444,-6.0417,-6.0436,-6.0417,-6.0417,-6.0417,-6.0472,-6.0531,-6.0512,-6.0565,-6.0604,-6.0604,-6.0552,-6.0552,-6.0623,-6.0604,-6.0604,-6.0604,-6.0617,-6.0617,-6.0636,-6.0617,-6.0617,-6.0604,-6.0533,-6.0512,-6.0512,-6.0464,-6.0403,-6.0403,-6.0352,-6.0313,-6.026,0.0,0.0,0.0,0.0,0.0,0.0,0.0,0.0,0.0,0.0,0.0,0.0,0.0,0.0,0.0,-5.9616,0.0,-5.9616,-5.9616,0.0,0.0,0.0,-5.9616,-5.9616,-5.9616,-5.9616,-5.9616,0.0,0.0,-5.9727,-6.1142,-6.216,-6.2218,-6.3596,-6.4634,-6.4706,-6.4724,-6.4797,-6.4991,-6.5025,-6.5059,-6.5163,-6.5196,-6.5196,-6.5213,-6.5232,-6.5245,-6.5293,-6.529,-6.5337,-6.5398,-6.5394,-6.5394,-6.5394,-6.5379,-6.5368,-6.5245,-6.5213,-6.5213,-6.5229,-6.5229,-6.5229,-5.9675,-6.1227,-6.1174,-6.1109,-6.1006,-6.0976,-6.0965,-6.0944,-6.088,-6.0846,-6.0823,-6.0729,-6.0655,-6.0623,-6.0623,-6.0623,-6.0623,-6.0578,-6.0578,-6.0578,-6.0565,-6.0552,-6.0552,-6.0552,-6.0571,-6.0552,-6.0565,-6.0578,-6.0578,-6.0591,-6.0629,-6.066,-6.0648,-6.0642,-6.0604,-6.0635,-6.0673,-6.068,-6.071,-6.0734,-6.0753,-6.0734,-6.0741,-6.0673,-6.0667,-6.0642,-6.0578,-6.0512,-6.0472,-6.0472,-6.0403,-6.0352,-6.0313,-6.0093,0.0,0.0,0.0,0.0,0.0,0.0,0.0,0.0,0.0,-5.9616,-5.9616,0.0,-5.9616,0.0,-5.9616,-5.9616,-5.9616,-5.9616,0.0,0.0,-5.9616,-5.9616,-5.9616,-5.9616,-5.9633,-5.974,-5.9757,-6.0,-6.0671,-6.1705,-6.2646,-6.3312,-6.4155,-6.4743,-6.4903,-6.4939,-6.4972,-6.5111,-6.5163,-6.5163,-6.5196,-6.5245,-6.529,-6.5352,-6.5352,-6.5349,-6.5364,-6.5364,-6.5364,-6.5394,-6.5394,-6.5394,-6.5394,-6.5394,-6.5379,-6.5349,-6.5333,-6.5333,-6.5352,-6.5352,-6.5333,-5.9743,-6.1278,-6.1253,-6.1192,-6.1128,-6.104,-6.1009,-6.1009,-6.0957,-6.0944,-6.0944,-6.0835,-6.0777,-6.0729,-6.0704,-6.0673,-6.0692,-6.0667,-6.0635,-6.0655,-6.0617,-6.0623,-6.0623,-6.0623,-6.0623,-6.0604,-6.0629,-6.0635,-6.0635,-6.068,-6.0697,-6.0734,-6.0734,-6.0729,-6.0673,-6.0741,-6.0753,-6.0753,-6.0788,-6.08,-6.08,-6.08,-6.0788,-6.0734,-6.071,-6.0673,-6.0635,-6.0578,-6.0539,-6.048,-6.0458,-6.0422,-6.0352,-6.0337,-6.0113,0.0,0.0,0.0,0.0,0.0,0.0,0.0,0.0,0.0,0.0,0.0,-5.9767,-5.9736,-5.9736,-5.9736,-5.9736,-5.9736,-5.9753,-5.9786,-5.9786,-5.9784,-5.9817,-5.9834,-5.985,-5.9918,-5.9937,-6.0272,-6.1137,-6.2002,-6.287,-6.3726,-6.4478,-6.4957,-6.5042,-6.5076,-6.5128,-6.521,-6.5245,-6.5261,-6.5293,-6.5321,-6.5368,-6.5398,-6.5425,-6.5454,-6.5454,-6.5484,-6.5479,-6.5479,-6.5499,-6.5499,-6.5499,-6.5479,-6.5479,-6.5479,-6.5499,-6.5469,-6.5409,-6.5425,-6.5454,-5.9723,-6.1147,-6.1255,-6.1306,-6.1278,-6.1117,-6.1051,-6.1022,-6.102,-6.1008,-6.1006,-6.0944,-6.0922,-6.0911,-6.0854,-6.0812,-6.0812,-6.0734,-6.071,-6.0717,-6.0655,-6.0629,-6.0629,-6.0629,-6.061,-6.0629,-6.0692,-6.071,-6.071,-6.0757,-6.08,-6.08,-6.08,-6.08,-6.08,-6.08,-6.08,-6.08,-6.08,-6.08,-6.08,-6.08,-6.08,-6.08,-6.0734,-6.071,-6.071,-6.0635,-6.0591,-6.0525,-6.0512,-6.0485,-6.0417,-6.0403,-6.0403,0.0,-6.0337,0.0,0.0,0.0,0.0,0.0,0.0,0.0,0.0,-6.001,-5.9998,-5.9915,-5.9918,-5.9915,-5.9953,-5.9934,-5.995,-5.9994,-5.9991,-6.0041,-6.0084,-6.0099,-6.0099,-6.0099,-6.0213,-6.0593,-6.1453,-6.2268,-6.3121,-6.3997,-6.4737,-6.5174,-6.5229,-6.5232,-6.5229,-6.5309,-6.5324,-6.5337,-6.5398,-6.539,-6.5409,-6.5444,-6.5484,-6.5509,-6.5509,-6.5552,-6.5613,-6.5613,-6.5613,-6.5613,-6.5594,-6.5613,-6.5613,-6.5594,-6.5613,-6.5552,-6.5469,-6.5484,-6.5509,-5.9484,-6.0469,-6.1065,-6.1314,-6.1306,-6.125,-6.1199,-6.1174,-6.1109,-6.106,-6.1017,-6.0976,-6.0976,-6.0976,-6.0922,-6.088,-6.0888,-6.0812,-6.0788,-6.0788,-6.0777,-6.0746,-6.0765,-6.0765,-6.0765,-6.0746,-6.0757,-6.0769,-6.0769,-6.08,-6.08,-6.08,-6.08,-6.08,-6.08,0.0,0.0,0.0,-6.08,-6.08,-6.08,-6.08,-6.08,-6.08,-6.0788,0.0,-6.0788,-6.0729,-6.0673,-6.068,-6.0617,0.0,0.0,0.0,0.0,0.0,0.0,0.0,0.0,0.0,0.0,0.0,-6.0347,-6.027,-6.0103,-6.0087,-6.0068,-6.0072,-6.0053,-6.0053,-6.0072,-6.0072,-6.0053,-6.0068,-6.0087,-6.0103,-6.0099,-6.0099,-6.0099,-6.0099,-6.0727,-6.1469,-6.2287,-6.3153,-6.4038,-6.4854,-6.5226,-6.5349,-6.5368,-6.5305,-6.5324,-6.5368,-6.5383,-6.5394,-6.5484,-6.5479,-6.5494,-6.5537,-6.5566,-6.558,-6.558,-6.5594,-6.5608,-6.5627,-6.5627,-6.5627,-6.5627,-6.5627,-6.5627,-6.5627,-6.5627,-6.5594,-6.5566,-6.5566,-6.558,-5.9412,-6.0267,-6.1032,-6.1361,0.0,-6.1337,-6.1318,-6.125,-6.1182,-6.1128,-6.105,-6.101,-6.1,-6.102,-6.0957,-6.0955,-6.0944,-6.0869,-6.0846,-6.0846,-6.0823,-6.08,-6.08,-6.08,-6.08,-6.08,-6.08,-6.08,-6.08,-6.08,-6.08,-6.08,-6.08,-6.08,-6.08,-6.08,-6.08,-6.08,-6.08,-6.08,-6.08,-6.08,-6.08,-6.08,-6.08,0.0,0.0,0.0,0.0,0.0,0.0,0.0,0.0,-6.0552,0.0,-6.0458,-6.0444,-6.0431,-6.0403,-6.0403,-6.0403,-6.0403,-6.0403,-6.0328,-6.0197,-6.0133,-6.0099,-6.0099,-6.0099,-6.0099,-6.0099,-6.0099,-6.0133,-6.0182,-6.0182,-6.0212,-6.0241,-6.0237,-6.0408,-6.0809,-6.1228,-6.1953,-6.323,-6.3757,-6.4417,-6.5199,-6.5383,-6.5394,-6.5394,-6.5383,-6.5383,-6.544,-6.5435,-6.5484,-6.5537,-6.5552,-6.5552,-6.5594,-6.5655,-6.5688,-6.5688,-6.5747,-6.5755,-6.5755,-6.5755,-6.5755,-6.5755,-6.5755,-6.5755,-6.5755,-6.5755,-6.5755,-6.5755,-6.5728,-6.5701,-5.9349,-6.0083,-6.1032,-6.1428,-6.1421,-6.1401,-6.1386,-6.1295,-6.1253,0.0,0.0,-6.1051,-6.1032,-6.1012,-6.102,-6.1008,-6.0989,-6.0944,-6.0922,-6.0891,-6.0866,-6.0812,-6.0781,-6.08,-6.08,-6.08,-6.08,-6.08,-6.08,-6.08,-6.08,-6.08,-6.08,-6.08,-6.08,-6.08,-6.08,-6.08,-6.08,-6.08,-6.08,-6.08,-6.08,-6.08,-6.08,-6.08,-6.08,-6.08,-6.0777,-6.0741,-6.071,-6.0692,-6.0629,-6.0597,-6.0591,-6.0525,-6.0525,-6.0499,-6.0444,-6.0431,-6.0431,-6.0417,-6.0417,-6.0375,-6.0323,-6.0231,-6.0163,-6.0163,-6.0129,-6.0144,-6.0144,-6.0144,-6.0178,-6.0308,-6.0308,-6.0337,-6.0408,-6.0556,-6.0886,-6.1497,-6.1884,-6.2567,-6.3942,-6.4325,-6.4645,-6.5238,-6.5425,-6.5425,-6.5425,-6.5425,-6.544,-6.5494,-6.5523,-6.5537,-6.5627,-6.5641,-6.5641,-6.5668,-6.5761,-6.5807,-6.582,-6.5859,-6.5897,-6.5865,-6.5878,-6.5897,-6.5897,-6.5878,-6.5878,-6.5878,-6.5878,-6.5878,-6.5878,-6.5859,-6.5807,-5.9065,-5.9298,-6.0847,-6.1478,-6.1472,-6.1441,-6.1368,-6.1322,-6.1294,-6.1264,-6.1192,-6.1173,-6.1146,-6.1089,-6.1012,-6.1011,-6.1011,-6.1008,-6.0955,-6.0891,-6.088,-6.0846,-6.0781,-6.08,-6.08,-6.08,-6.08,-6.08,-6.08,-6.08,-6.08,-6.08,-6.08,-6.08,-6.08,-6.08,-6.08,-6.08,-6.08,-6.08,-6.08,-6.08,-6.08,-6.08,-6.08,-6.08,-6.08,-6.08,-6.08,-6.0788,-6.0788,-6.0746,-6.0685,-6.0673,-6.0667,-6.0591,-6.0591,-6.0578,-6.0565,-6.0597,-6.0552,-6.0499,-6.0485,-6.0477,-6.0389,-6.0375,-6.0361,-6.0361,-6.0342,-6.0342,-6.0361,-6.0342,-6.0361,-6.0375,-6.0394,-6.0408,-6.046,-6.1014,-6.1492,-6.1741,-6.293,-6.3823,-6.4225,-6.4798,-6.5229,-6.5427,-6.5479,-6.5509,-6.5556,-6.5523,-6.5523,-6.5566,-6.558,-6.5641,-6.5734,-6.578,-6.5793,-6.584,-6.5853,-6.5885,-6.5872,-6.5885,-6.5878,-6.5878,-6.5878,-6.5878,-6.5878,-6.5878,-6.5878,-6.5878,-6.5878,-6.5878,-6.5878,-6.5885,-6.5885,-5.8997,-5.9207,-6.0803,-6.1493,-6.1487,-6.1452,-6.1396,-6.1368,-6.1366,-6.1314,-6.1253,-6.1245,-6.1199,-6.1155,-6.1108,-6.107,-6.1061,-6.1011,-6.0971,-6.0939,-6.0914,-6.088,-6.0846,-6.0823,-6.08,-6.08,-6.08,-6.08,-6.08,-6.08,-6.08,-6.08,-6.08,-6.08,-6.08,-6.08,-6.08,-6.08,-6.08,-6.08,-6.08,-6.08,-6.08,-6.08,-6.08,-6.08,-6.08,-6.08,-6.08,-6.08,-6.08,-6.0788,-6.0746,-6.0765,-6.0729,-6.0667,-6.0667,-6.0642,-6.0604,-6.0623,-6.0591,-6.0552,-6.0552,-6.0539,-6.0512,-6.0444,-6.0403,-6.0403,-6.0403,-6.0403,-6.0403,-6.0403,-6.0436,-6.0458,-6.0458,-6.0663,-6.1144,-6.1488,-6.2101,-6.2982,-6.3805,-6.4475,-6.4915,-6.5279,-6.5528,-6.5571,-6.5552,-6.558,-6.5688,-6.5693,-6.566,-6.5688,-6.5701,-6.5728,-6.5833,-6.5846,-6.5872,-6.5878,-6.5878,-6.5878,-6.5878,-6.5878,-6.5878,-6.5878,-6.5878,-6.5878,-6.5878,-6.5878,-6.5878,-6.5878,-6.5878,-6.5878,-6.5878,-6.5878,-6.5878,-5.8821,-5.9133,-6.0614,-6.1344,-6.1489,-6.1507,-6.1458,-6.1408,-6.1402,-6.1368,-6.1326,-6.1302,-6.127,-6.1227,-6.121,-6.1183,-6.1108,-6.1061,-6.0993,-6.0992,-6.0929,-6.0914,-6.0911,-6.0846,-6.0812,-6.0781,-6.08,-6.08,-6.08,-6.08,-6.08,-6.08,-6.08,-6.08,-6.08,-6.08,-6.08,-6.08,-6.08,-6.08,-6.08,-6.08,-6.08,-6.08,-6.08,-6.08,-6.08,-6.08,-6.08,-6.08,-6.08,-6.08,-6.08,-6.08,-6.0777,-6.0722,-6.0741,-6.0704,-6.0655,-6.0623,-6.0642,-6.0629,-6.061,-6.0617,-6.0591,-6.0512,-6.0444,-6.0444,-6.0458,-6.0444,-6.0458,-6.0444,-6.0472,-6.0512,-6.0525,-6.0897,-6.1735,-6.2042,-6.2713,-6.4112,-6.4553,-6.4956,-6.5435,-6.5627,-6.5608,-6.5641,-6.5655,-6.5715,-6.5807,-6.582,-6.582,-6.582,-6.5839,-6.5833,-6.5878,-6.5878,-6.5878,-6.5878,-6.5878,-6.5878,-6.5878,-6.5878,-6.5878,-6.5878,-6.5878,-6.5878,-6.5878,-6.5878,-6.5878,-6.5878,-6.5878,-6.5878,-6.5878,-6.5878,-6.5878,-5.828,-5.9074,-6.0049,-6.0833,-6.1495,-6.1489,-6.1487,-6.1497,-6.1408,-6.1396,-6.1389,-6.1332,-6.1291,-6.1289,-6.1227,-6.1201,-6.1192,-6.1108,-6.1051,-6.1012,-6.0992,-6.098,-6.0922,-6.09,-6.0858,-6.0812,-6.0781,-6.08,-6.08,-6.08,-6.08,-6.08,-6.08,-6.08,-6.08,-6.08,-6.08,-6.08,-6.08,-6.08,-6.08,-6.08,-6.08,-6.08,-6.08,-6.08,-6.08,-6.08,-6.08,-6.08,-6.08,-6.08,-6.08,-6.08,-6.08,-6.0788,-6.0788,-6.0769,-6.0788,-6.0788,-6.0734,-6.0685,-6.0685,-6.068,-6.0617,-6.0591,-6.0578,-6.0578,-6.0578,-6.0565,-6.0578,-6.0597,-6.0578,-6.0591,-6.0648,-6.0949,-6.1844,-6.254,-6.3365,-6.4266,-6.5027,-6.5517,-6.5603,-6.5641,-6.5655,-6.5761,-6.5801,-6.5859,-6.5872,-6.5865,-6.5865,-6.5885,-6.5885,-6.5885,-6.5878,-6.5878,-6.5878,-6.5878,-6.5878,-6.5878,-6.5878,-6.5878,-6.5878,-6.5878,-6.5878,-6.5878,-6.5878,-6.5878,-6.5878,-6.5878,-6.5878,-6.5878,-6.5878,-6.5878,-6.5878,-5.825,-5.9074,-5.9932,-6.0784,-6.1515,-6.1554,-6.1539,-6.1493,-6.1462,-6.1452,-6.1396,-6.1382,-6.134,-6.1318,-6.1255,-6.1242,-6.1182,-6.1183,-6.1137,-6.107,-6.1022,-6.0982,-6.0969,-6.0924,-6.088,-6.0877,-6.0804,-6.08,-6.08,-6.08,-6.08,-6.08,-6.08,-6.08,-6.08,-6.08,-6.08,-6.08,-6.08,-6.08,-6.08,-6.08,-6.08,-6.08,-6.08,-6.08,-6.08,-6.08,-6.08,-6.08,-6.08,-6.08,-6.08,-6.08,-6.08,-6.08,-6.08,-6.08,-6.08,-6.08,-6.0788,-6.0765,-6.0746,-6.0734,-6.0729,-6.0717,-6.0717,-6.0717,-6.0655,-6.0623,-6.0604,-6.0623,-6.0617,-6.0712,-6.1109,-6.1774,-6.2637,-6.3463,-6.4328,-6.5147,-6.557,-6.5768,-6.5768,-6.5768,-6.5801,-6.5859,-6.5885,-6.5878,-6.5878,-6.5878,-6.5878,-6.5878,-6.5878,-6.5878,-6.5878,-6.5878,-6.5878,-6.5878,-6.5878,-6.5878,-6.5878,-6.5878,-6.5878,-6.5878,-6.5878,-6.5878,-6.5878,-6.5878,-6.5878,-6.5878,-6.5878,-6.5878,-6.5878,-6.5878,-6.5878,-5.8071,-5.9107,-6.0189,-6.1003,-6.1588,-6.1588,-6.1578,-6.1524,-6.1514,-6.1468,-6.1427,-6.1408,-6.1369,-6.134,-6.131,-6.1263,-6.1247,-6.121,-6.1164,-6.1099,-6.1041,-6.1002,-6.1002,-6.095,-6.0924,-6.0911,-6.0846,-6.0823,-6.0781,-6.08,-6.08,-6.08,-6.08,-6.08,-6.08,-6.08,-6.08,-6.08,-6.08,-6.08,-6.08,-6.08,-6.08,-6.08,-6.08,-6.08,-6.08,-6.08,-6.08,-6.08,-6.08,-6.08,-6.08,-6.08,-6.08,-6.08,-6.08,-6.08,-6.08,-6.08,-6.08,-6.08,-6.08,-6.08,-6.08,-6.08,-6.08,-6.0788,-6.0717,-6.0667,-6.0655,-6.0655,-6.0756,-6.1055,-6.1702,-6.2425,-6.3519,-6.4262,-6.4885,-6.5724,-6.5846,-6.5878,-6.5878,-6.5878,-6.5878,-6.5897,-6.5878,-6.5878,-6.5878,-6.5878,-6.5878,-6.5878,-6.5878,-6.5878,-6.5878,-6.5878,-6.5878,-6.5878,-6.5878,-6.5878,-6.5878,-6.5878,-6.5878,-6.5878,-6.5878,-6.5878,-6.5878,-6.5878,-6.5878,-6.5878,-6.5878,-6.5878,-6.5878,-6.5878,-6.5878,-5.7505,-5.9143,-6.0818,-6.1529,-6.1588,-6.1588,-6.1588,-6.1583,-6.1524,-6.1489,-6.1479,-6.1427,-6.1396,-6.1402,-6.132,-6.1299,-6.1297,-6.1247,-6.1164,-6.1099,-6.1099,-6.107,-6.1012,-6.1002,-6.096,-6.0922,-6.09,-6.0858,-6.08,-6.08,-6.08,-6.08,-6.08,-6.08,-6.08,-6.08,-6.08,-6.08,-6.08,-6.08,-6.08,-6.08,-6.08,-6.08,-6.08,-6.08,-6.08,-6.08,-6.08,-6.08,-6.08,-6.08,-6.08,-6.08,-6.08,-6.08,-6.08,-6.08,-6.08,-6.08,-6.08,-6.08,-6.08,-6.08,-6.08,-6.08,-6.08,-6.08,-6.0788,-6.0757,-6.0777,-6.0765,-6.1104,-6.1839,-6.205,-6.2878,-6.4339,-6.4589,-6.4993,-6.5686,-6.5878,-6.5878,-6.5878,-6.5878,-6.5878,-6.5878,-6.5878,-6.5878,-6.5878,-6.5878,-6.5878,-6.5878,-6.5878,-6.5878,-6.5878,-6.5878,-6.5878,-6.5878,-6.5878,-6.5878,-6.5878,-6.5878,-6.5878,-6.5878,-6.5878,-6.5878,-6.5878,-6.5878,-6.5878,-6.5878,-6.5878,-6.5878,-6.5878,-6.5878,-6.5878,-5.7506,-5.9205,-6.0898,-6.1591,-6.1586,-6.1592,-6.1588,-6.1588,-6.1578,-6.1549,-6.1509,-6.1487,-6.1439,-6.1396,-6.1369,-6.134,-6.1318,-6.1289,-6.1227,-6.1183,-6.1108,-6.1089,-6.1051,-6.1022,-6.0991,-6.0965,-6.0903,-6.0858,-6.0812,-6.08,-6.08,-6.08,-6.08,-6.08,-6.08,-6.08,-6.08,-6.08,-6.08,-6.08,-6.08,-6.08,-6.08,-6.08,-6.08,-6.08,-6.08,-6.08,-6.08,-6.08,-6.08,-6.08,-6.08,-6.08,-6.08,-6.08,-6.08,-6.08,-6.08,-6.08,-6.08,-6.08,-6.08,-6.08,-6.08,-6.08,-6.08,-6.08,-6.08,-6.08,-6.08,-6.08,-6.1166,-6.1966,-6.257,-6.3339,-6.4378,-6.507,-6.557,-6.582,-6.5878,-6.5878,-6.5878,-6.5878,-6.5878,-6.5878,-6.5878,-6.5878,-6.5878,-6.5878,-6.5878,-6.5878,-6.5878,-6.5878,-6.5878,-6.5878,-6.5878,-6.5878,-6.5878,-6.5878,-6.5878,-6.5878,-6.5878,-6.5878,-6.5878,-6.5878,-6.5878,-6.5878,-6.5878,-6.5878,-6.5878,-6.5878,-6.5878,-6.5878,-6.5878,-5.8005,-5.9261,-6.0902,-6.1588,-6.158,-6.1586,-6.1592,-6.1588,-6.1588,-6.1559,-6.1544,-6.1514,-6.1462,-6.1434,-6.1402,-6.1382,-6.1337,-6.131,-6.1253,-6.1182,-6.1117,-6.1099,-6.1089,-6.1041,-6.1021,-6.0999,-6.0924,-6.0858,-6.0812,-6.08,-6.08,-6.08,-6.08,-6.08,-6.08,-6.08,-6.08,-6.08,-6.08,-6.08,-6.08,-6.08,-6.08,-6.08,-6.08,-6.08,-6.08,-6.08,-6.08,-6.08,-6.08,-6.08,-6.08,-6.08,-6.08,-6.08,-6.08,-6.08,-6.08,-6.08,-6.08,-6.08,-6.08,-6.08,-6.08,-6.08,-6.08,-6.08,-6.08,-6.08,-6.0858,-6.105,-6.157,-6.2397,-6.3224,-6.407,-6.4916,-6.5532,-6.582,-6.5878,-6.5878,-6.5878,-6.5878,-6.5878,-6.5878,-6.5878,-6.5878,-6.5878,-6.5878,-6.5878,-6.5878,-6.5878,-6.5878,-6.5878,-6.5878,-6.5878,-6.5878,-6.5878,-6.5878,-6.5878,-6.5878,-6.5878,-6.5878,-6.5878,-6.5878,-6.5878,-6.5878,-6.5878,-6.5878,-6.5878,-6.5878,-6.5878,-6.5878,-6.5878,-6.5878,-5.9065,-5.9355,-6.0883,-6.1604,-6.1608,-6.158,-6.1586,-6.1592,-6.1588,-6.1588,-6.1564,-6.1544,-6.1518,-6.1478,-6.1434,-6.1395,-6.1386,-6.1318,-6.1261,-6.121,-6.1146,-6.1099,-6.1099,-6.1089,-6.1061,-6.1001,-6.0927,-6.0858,-6.0793,-6.08,-6.08,-6.08,-6.08,-6.08,-6.08,-6.08,-6.08,-6.08,-6.08,-6.08,-6.08,-6.08,-6.08,-6.08,-6.08,-6.08,-6.08,-6.08,-6.08,-6.08,-6.08,-6.08,-6.08,-6.08,-6.08,-6.08,-6.08,-6.08,-6.08,-6.08,-6.08,-6.08,-6.08,-6.08,-6.08,-6.08,-6.08,-6.08,-6.08,-6.08,-6.0935,-6.1589,-6.2358,-6.3205,-6.3935,-6.4801,-6.557,-6.5859,-6.5878,-6.5878,-6.5878,-6.5878,-6.5878,-6.5878,-6.5878,-6.5878,-6.5878,-6.5878,-6.5878,-6.5878,-6.5878,-6.5878,-6.5878,-6.5878,-6.5878,-6.5878,-6.5878,-6.5878,-6.5878,-6.5878,-6.5878,-6.5878,-6.5878,-6.5878,-6.5878,-6.5878,-6.5878,-6.5878,-6.5878,-6.5878,-6.5878,-6.5878,-6.5878,-6.5878,-6.5878,-5.9117,-5.9329,-6.0957,-6.1641,-6.1584,-6.1588,-6.1591,-6.1588,-6.1588,-6.1588,-6.1588,-6.1578,-6.1553,-6.1509,-6.1472,-6.1454,-6.1393,-6.1322,-6.1302,-6.1272,-6.121,-6.1146,-6.1099,-6.1099,-6.107,-6.098,-6.0924,-6.0858,-6.0812,-6.08,-6.08,-6.08,-6.08,-6.08,-6.08,-6.08,-6.08,-6.08,-6.08,-6.08,-6.08,-6.08,-6.08,-6.08,-6.08,-6.08,-6.08,-6.08,-6.08,-6.08,-6.08,-6.08,-6.08,-6.08,-6.08,-6.08,-6.08,-6.08,-6.08,-6.08,-6.08,-6.08,-6.08,-6.08,-6.08,-6.08,-6.08,-6.08,-6.08,-6.08,-6.1012,-6.2127,-6.2974,-6.3269,-6.4089,-6.4974,-6.5705,-6.5878,-6.5878,-6.5878,-6.5878,-6.5878,-6.5878,-6.5878,-6.5878,-6.5878,-6.5878,-6.5878,-6.5878,-6.5878,-6.5878,-6.5878,-6.5878,-6.5878,-6.5878,-6.5878,-6.5878,-6.5878,-6.5878,-6.5878,-6.5878,-6.5878,-6.5878,-6.5878,-6.5878,-6.5878,-6.5878,-6.5878,-6.5878,-6.5878,-6.5878,-6.5878,-6.5878,-6.5878,-6.5878,-5.9122,-5.9297,-6.0988,-6.1679,-6.1625,-6.1623,-6.1584,-6.1582,-6.1592,-6.1588,-6.1588,-6.1588,-6.1549,-6.1507,-6.149,-6.1473,-6.1401,-6.1359,-6.1334,-6.1297,-6.1227,-6.1164,-6.1099,-6.1099,-6.1061,-6.099,-6.0965,-6.0891,-6.0835,-6.0812,-6.08,-6.08,-6.08,-6.08,-6.08,-6.08,-6.08,-6.08,-6.08,-6.08,-6.08,-6.08,-6.08,-6.08,-6.08,-6.08,-6.08,-6.08,-6.08,-6.08,-6.08,-6.08,-6.08,-6.08,-6.08,-6.08,-6.08,-6.08,-6.08,-6.08,-6.08,-6.08,-6.08,-6.08,-6.08,-6.08,-6.08,-6.08,-6.08,-6.0935,-6.1416,-6.2454,-6.3378,-6.3782,-6.4589,-6.5263,-6.5801,-6.5878,-6.5878,-6.5878,-6.5878,-6.5878,-6.5878,-6.5878,-6.5878,-6.5878,-6.5878,-6.5878,-6.5878,-6.5878,-6.5878,-6.5878,-6.5878,-6.5878,-6.5878,-6.5878,-6.5878,-6.5878,-6.5878,-6.5878,-6.5878,-6.5878,-6.5878,-6.5878,-6.5878,-6.5878,-6.5878,-6.5878,-6.5878,-6.5878,-6.5878,-6.5878,-6.5878,-6.5878,-6.5878,-5.9122,-5.9317,-6.0976,-6.171,-6.1676,-6.1641,-6.158,-6.158,-6.1578,-6.1588,-6.1588,-6.1588,-6.1573,-6.1509,-6.1495,-6.146,-6.1396,-6.1407,-6.1368,-6.1286,-6.1236,-6.1173,-6.1099,-6.1099,-6.107,-6.1011,-6.0999,-6.0946,-6.088,-6.0835,-6.08,-6.0781,-6.08,-6.08,-6.08,-6.08,-6.08,-6.08,-6.08,-6.08,-6.08,-6.08,-6.08,-6.08,-6.08,-6.08,-6.08,-6.08,-6.08,-6.08,-6.08,-6.08,-6.08,-6.08,-6.08,-6.08,-6.08,-6.08,-6.08,-6.08,-6.08,-6.08,-6.08,-6.08,-6.08,-6.08,-6.08,-6.08,-6.08,-6.1127,-6.1916,-6.2801,-6.3647,-6.4589,-6.5301,-6.5763,-6.5859,-6.5878,-6.5878,-6.5878,-6.5878,-6.5878,-6.5878,-6.5878,-6.5878,-6.5878,-6.5878,-6.5878,-6.5878,-6.5878,-6.5878,-6.5878,-6.5878,-6.5878,-6.5878,-6.5878,-6.5878,-6.5878,-6.5878,-6.5878,-6.5878,-6.5878,-6.5878,-6.5878,-6.5878,-6.5878,-6.5878,-6.5878,-6.5878,-6.5878,-6.5878,-6.5878,-6.5878,-6.5878,-6.5878,-5.9122,-5.9297,-6.0976,-6.1713,-6.1696,-6.1625,-6.1584,-6.158,-6.1578,-6.1588,-6.1588,-6.1588,-6.1578,-6.1489,-6.1495,-6.1466,-6.1415,-6.1394,-6.1356,-6.1314,-6.127,-6.1191,-6.1108,-6.1099,-6.1051,-6.1012,-6.1001,-6.0969,-6.0891,-6.088,-6.0866,-6.08,-6.0781,-6.08,-6.08,-6.08,-6.08,-6.08,-6.08,-6.08,-6.08,-6.08,-6.08,-6.08,-6.08,-6.08,-6.08,-6.08,-6.08,-6.08,-6.08,-6.08,-6.08,-6.08,-6.08,-6.08,-6.08,-6.08,-6.08,-6.08,-6.08,-6.08,-6.08,-6.08,-6.08,-6.08,-6.08,-6.08,-6.08,-6.1166,-6.2012,-6.2897,-6.3955,-6.5282,-6.5743,-6.5878,-6.5878,-6.5878,-6.5878,-6.5878,-6.5878,-6.5878,-6.5878,-6.5878,-6.5878,-6.5878,-6.5878,-6.5878,-6.5878,-6.5878,-6.5878,-6.5878,-6.5878,-6.5878,-6.5878,-6.5878,-6.5878,-6.5878,-6.5878,-6.5878,-6.5878,-6.5878,-6.5878,-6.5878,-6.5878,-6.5878,-6.5878,-6.5878,-6.5878,-6.5878,-6.5878,-6.5878,-6.5878,-6.5878,-6.5878,-5.8773,-5.9219,-6.0586,-6.1364,-6.1666,-6.1625,-6.1588,-6.1592,-6.1582,-6.1588,-6.1588,-6.1588,-6.1564,-6.1544,-6.1507,-6.1472,-6.1453,-6.1421,-6.1376,-6.1286,-6.1236,-6.1164,-6.1108,-6.1099,-6.108,-6.1041,-6.1012,-6.0972,-6.0929,-6.0914,-6.0888,-6.0846,-6.0793,-6.08,-6.08,-6.08,-6.08,-6.08,-6.08,-6.08,-6.08,-6.08,-6.08,-6.08,-6.08,-6.08,-6.08,-6.08,-6.08,-6.08,-6.08,-6.08,-6.08,-6.08,-6.08,-6.08,-6.08,-6.08,-6.08,-6.08,-6.08,-6.08,-6.08,-6.08,-6.08,-6.08,-6.08,-6.08,-6.08,-6.1416,-6.2531,-6.3647,-6.4762,-6.5647,-6.5878,-6.5878,-6.5878,-6.5878,-6.5878,-6.5878,-6.5878,-6.5878,-6.5878,-6.5878,-6.5878,-6.5878,-6.5878,-6.5878,-6.5878,-6.5878,-6.5878,-6.5878,-6.5878,-6.5878,-6.5878,-6.5878,-6.5878,-6.5878,-6.5878,-6.5878,-6.5878,-6.5878,-6.5878,-6.5878,-6.5878,-6.5878,-6.5878,-6.5878,-6.5878,-6.5878,-6.5878,-6.5878,-6.5878,-6.5878,-6.5878,-5.8304,-5.918,-6.0041,-6.09,-6.1618,-6.1631,-6.1595,-6.1588,-6.1591,-6.1588,-6.1588,-6.1588,-6.1583,-6.1583,-6.1526,-6.1497,-6.1491,-6.1428,-6.1356,-6.1278,-6.1182,-6.1099,-6.1099,-6.1099,-6.1099,-6.1089,-6.1032,-6.1012,-6.0972,-6.0938,-6.0922,-6.09,-6.0835,-6.0793,-6.0781,-6.08,-6.08,-6.08,-6.08,-6.08,-6.08,-6.08,-6.08,-6.08,-6.08,-6.08,-6.08,-6.08,-6.08,-6.08,-6.08,-6.08,-6.08,-6.08,-6.08,-6.08,-6.08,-6.08,-6.08,-6.08,-6.08,-6.08,-6.08,-6.08,-6.08,-6.08,-6.08,-6.08,-6.0877,-6.1839,-6.3281,-6.4878,-6.559,-6.5878,-6.5878,-6.5878,-6.5878,-6.5878,-6.5878,-6.5878,-6.5878,-6.5878,-6.5878,-6.5878,-6.5878,-6.5878,-6.5878,-6.5878,-6.5878,-6.5878,-6.5878,-6.5878,-6.5878,-6.5878,-6.5878,-6.5878,-6.5878,-6.5878,-6.5878,-6.5878,-6.5878,-6.5878,-6.5878,-6.5878,-6.5878,-6.5878,-6.5878,-6.5878,-6.5878,-6.5878,-6.5878,-6.5878,-6.5878,-6.5878,-6.5878,-5.8304,-5.9161,-6.0041,-6.092,-6.1618,-6.1651,-6.1576,-6.1591,-6.1591,-6.1588,-6.1588,-6.1588,-6.1578,-6.1519,-6.1501,-6.1466,-6.1428,-6.1394,-6.1356,-6.1297,-6.1164,-6.1099,-6.1099,-6.1099,-6.1099,-6.1089,-6.1089,-6.1061,-6.1002,-6.0972,-6.0959,-6.0903,-6.088,-6.0846,-6.0812,-6.08,-6.08,-6.08,-6.08,-6.08,-6.08,-6.08,-6.08,-6.08,-6.08,-6.08,-6.08,-6.08,-6.08,-6.08,-6.08,-6.08,-6.08,-6.08,-6.08,-6.08,-6.08,-6.08,-6.08,-6.08,-6.08,-6.08,-6.08,-6.08,-6.08,-6.08,-6.08,-6.0916,-6.1416,-6.2454,-6.4012,-6.5224,-6.5782,-6.5878,-6.5878,-6.5878,-6.5878,-6.5878,-6.5878,-6.5878,-6.5878,-6.5878,-6.5878,-6.5878,-6.5878,-6.5878,-6.5878,-6.5878,-6.5878,-6.5878,-6.5878,-6.5878,-6.5878,-6.5878,-6.5878,-6.5878,-6.5878,-6.5878,-6.5878,-6.5878,-6.5878,-6.5878,-6.5878,-6.5878,-6.5878,-6.5878,-6.5878,-6.5878,-6.5878,-6.5878,-6.5878,-6.5878,-6.5878,-6.5878,-6.5878,-5.7972,-5.9122,-5.9592,-6.0529,-6.1579,-6.1651,-6.1576,-6.1588,-6.1591,-6.1588,-6.1588,-6.1588,-6.1554,-6.1489,-6.1495,-6.1466,-6.1421,-6.1378,-6.1345,-6.1261,-6.1164,-6.1099,-6.1099,-6.1099,-6.1099,-6.1099,-6.1099,-6.108,-6.1061,-6.1012,-6.0972,-6.0948,-6.0924,-6.088,-6.0866,-6.0843,-6.08,-6.08,-6.08,-6.08,-6.08,-6.08,-6.08,-6.08,-6.08,-6.08,-6.08,-6.08,-6.08,-6.08,-6.08,-6.08,-6.08,-6.08,-6.08,-6.08,-6.08,-6.08,-6.08,-6.08,-6.08,-6.08,-6.08,-6.08,-6.08,-6.08,-6.08,-6.0973,-6.1647,-6.2762,-6.4397,-6.5378,-6.5801,-6.5878,-6.5878,-6.5878,-6.5878,-6.5878,-6.5878,-6.5878,-6.5878,-6.5878,-6.5878,-6.5878,-6.5878,-6.5878,-6.5878,-6.5878,-6.5878,-6.5878,-6.5878,-6.5878,-6.5878,-6.5878,-6.5878,-6.5878,-6.5878,-6.5878,-6.5878,-6.5878,-6.5878,-6.5878,-6.5878,-6.5878,-6.5878,-6.5878,-6.5878,-6.5878,-6.5878,-6.5878,-6.5878,-6.5878,-6.5878,-6.5878,-6.5878,-5.7599,-5.9102,-5.9122,-6.0098,-6.1557,-6.1628,-6.1595,-6.1584,-6.1586,-6.1588,-6.1588,-6.1588,-6.1573,-6.1523,-6.1495,-6.1466,-6.1408,-6.1349,-6.1306,-6.1289,-6.1164,-6.1099,-6.1099,-6.1099,-6.1099,-6.1099,-6.1099,-6.1089,-6.108,-6.1041,-6.1012,-6.0982,-6.0959,-6.0924,-6.0903,-6.0866,-6.0823,-6.0823,-6.0812,-6.08,-6.08,-6.08,-6.08,-6.08,-6.08,-6.08,-6.08,-6.08,-6.08,-6.08,-6.08,-6.08,-6.08,-6.08,-6.08,-6.08,-6.08,-6.08,-6.08,-6.08,-6.08,-6.08,-6.08,-6.08,-6.08,-6.08,-6.08,-6.1146,-6.1781,-6.3089,-6.4589,-6.5436,-6.584,-6.5878,-6.5878,-6.5878,-6.5878,-6.5878,-6.5878,-6.5878,-6.5878,-6.5878,-6.5878,-6.5878,-6.5878,-6.5878,-6.5878,-6.5878,-6.5878,-6.5878,-6.5878,-6.5878,-6.5878,-6.5878,-6.5878,-6.5878,-6.5878,-6.5878,-6.5878,-6.5878,-6.5878,-6.5878,-6.5878,-6.5878,-6.5878,-6.5878,-6.5878,-6.5878,-6.5878,-6.5878,-6.5878,-6.5878,-6.5878,-6.5878,-6.5878,-5.7601,-5.9122,-5.9122,-6.0093,-6.1565,-6.1625,-6.1588,-6.1584,-6.1582,-6.1588,-6.1588,-6.1588,-6.1563,-6.1501,-6.149,-6.1447,-6.1388,-6.1345,-6.1317,-6.1281,-6.1164,-6.1099,-6.1099,-6.1099,-6.1099,-6.1099,-6.1099,-6.1099,-6.1099,-6.1089,-6.1061,-6.1031,-6.1001,-6.0971,-6.0957,-6.0922,-6.0888,-6.0877,-6.0835,-6.0812,-6.0781,-6.08,-6.08,-6.08,-6.08,-6.08,-6.08,-6.08,-6.08,-6.08,-6.08,-6.08,-6.08,-6.08,-6.08,-6.08,-6.08,-6.08,-6.08,-6.08,-6.08,-6.08,-6.08,-6.08,-6.08,-6.0819,-6.0896,-6.1358,-6.232,-6.3762,-6.5455,-6.5801,-6.5859,-6.5878,-6.5878,-6.5878,-6.5878,-6.5878,-6.5878,-6.5878,-6.5878,-6.5878,-6.5878,-6.5878,-6.5878,-6.5878,-6.5878,-6.5878,-6.5878,-6.5878,-6.5878,-6.5878,-6.5878,-6.5878,-6.5878,-6.5878,-6.5878,-6.5878,-6.5878,-6.5878,-6.5878,-6.5878,-6.5878,-6.5878,-6.5878,-6.5878,-6.5878,-6.5878,-6.5878,-6.5878,-6.5878,-6.5878,-6.5878,-6.5878,-6.5878,-5.758,-5.9083,-5.9122,-6.011,-6.1523,-6.1644,-6.1584,-6.158,-6.1578,-6.1588,-6.1588,-6.1588,-6.1558,-6.1515,-6.1503,-6.1467,-6.1393,-6.1337,-6.1306,-6.1281,-6.1164,-6.1099,-6.1099,-6.1099,-6.1099,-6.1099,-6.1099,-6.1099,-6.1099,-6.1099,-6.108,-6.1041,-6.1022,-6.1011,-6.099,-6.0957,-6.0944,-6.0911,-6.0858,-6.0835,-6.0793,-6.08,-6.08,-6.08,-6.08,-6.08,-6.08,-6.08,-6.08,-6.08,-6.08,-6.08,-6.08,-6.08,-6.08,-6.08,-6.08,-6.08,-6.08,-6.08,-6.08,-6.08,-6.08,-6.08,-6.08,-6.0858,-6.1146,-6.205,-6.257,-6.4012,-6.5667,-6.5859,-6.5878,-6.5878,-6.5878,-6.5878,-6.5878,-6.5878,-6.5878,-6.5878,-6.5878,-6.5878,-6.5878,-6.5878,-6.5878,-6.5878,-6.5878,-6.5878,-6.5878,-6.5878,-6.5878,-6.5878,-6.5878,-6.5878,-6.5878,-6.5878,-6.5878,-6.5878,-6.5878,-6.5878,-6.5878,-6.5878,-6.5878,-6.5878,-6.5878,-6.5878,-6.5878,-6.5878,-6.5878,-6.5878,-6.5878,-6.5878,-6.5878,-6.5878,-6.5878,-5.7582,-5.9122,-5.9119,-6.0088,-6.1517,-6.1638,-6.1576,-6.1595,-6.1578,-6.1588,-6.1588,-6.1578,-6.1553,-6.1509,-6.1479,-6.1447,-6.1359,-6.131,-6.1297,-6.1264,-6.1164,-6.1099,-6.1099,-6.1099,-6.1099,-6.1099,-6.1099,-6.1099,-6.1099,-6.1099,-6.1099,-6.1089,-6.1051,-6.1022,-6.1021,-6.1,-6.0967,-6.0935,-6.0911,-6.0858,-6.0812,-6.08,-6.08,-6.08,-6.08,-6.08,-6.08,-6.08,-6.08,-6.08,-6.08,-6.08,-6.08,-6.08,-6.08,-6.08,-6.08,-6.08,-6.08,-6.08,-6.08,-6.08,-6.08,-6.08,-6.08,-6.0954,-6.1435,-6.2878,-6.3327,-6.4032,-6.5532,-6.5878,-6.5878,-6.5878,-6.5878,-6.5878,-6.5878,-6.5878,-6.5878,-6.5878,-6.5878,-6.5878,-6.5878,-6.5878,-6.5878,-6.5878,-6.5878,-6.5878,-6.5878,-6.5878,-6.5878,-6.5878,-6.5878,-6.5878,-6.5878,-6.5878,-6.5878,-6.5878,-6.5878,-6.5878,-6.5878,-6.5878,-6.5878,-6.5878,-6.5878,-6.5878,-6.5878,-6.5878,-6.5878,-6.5878,-6.5878,-6.5878,-6.5878,-6.5878,-6.5878,-5.7582,-5.9122,-5.9109,-6.0093,-6.1481,-6.1596,-6.1595,-6.1592,-6.1588,-6.1588,-6.1588,-6.1544,-6.1518,-6.1478,-6.1434,-6.1373,-6.1329,-6.1302,-6.1281,-6.1219,-6.1146,-6.1099,-6.1099,-6.1099,-6.1099,-6.1099,-6.1099,-6.1099,-6.1099,-6.1099,-6.1099,-6.1089,-6.1089,-6.1089,-6.107,-6.1031,-6.1011,-6.0991,-6.0946,-6.0888,-6.0812,-6.08,-6.08,-6.08,-6.08,-6.08,-6.08,-6.08,-6.08,-6.08,-6.08,-6.08,-6.08,-6.08,-6.08,-6.08,-6.08,-6.08,-6.08,-6.08,-6.08,-6.08,-6.08,-6.08,-6.08,-6.0877,-6.1473,-6.3089,-6.3288,-6.3993,-6.532,-6.584,-6.5878,-6.5878,-6.5878,-6.5878,-6.5878,-6.5878,-6.5878,-6.5878,-6.5878,-6.5878,-6.5878,-6.5878,-6.5878,-6.5878,-6.5878,-6.5878,-6.5878,-6.5878,-6.5878,-6.5878,-6.5878,-6.5878,-6.5878,-6.5878,-6.5878,-6.5878,-6.5878,-6.5878,-6.5878,-6.5878,-6.5878,-6.5878,-6.5878,-6.5878,-6.5878,-6.5878,-6.5878,-6.5878,-6.5878,-6.5878,-6.5878,-6.5878,-6.5878,-5.7582,-5.9102,-5.9109,-6.007,-6.1517,-6.1592,-6.1591,-6.1592,-6.1588,-6.1588,-6.1583,-6.1524,-6.1487,-6.1434,-6.1401,-6.1378,-6.1322,-6.1302,-6.1272,-6.1201,-6.1117,-6.1099,-6.1099,-6.1099,-6.1099,-6.1099,-6.1099,-6.1099,-6.1099,-6.1099,-6.1099,-6.1099,-6.1099,-6.1099,-6.1099,-6.108,-6.1051,-6.1001,-6.0938,-6.0869,-6.0823,-6.08,-6.08,-6.08,-6.08,-6.08,-6.08,-6.08,-6.08,-6.08,-6.08,-6.08,-6.08,-6.08,-6.08,-6.08,-6.08,-6.08,-6.08,-6.08,-6.08,-6.08,-6.08,-6.08,-6.08,-6.0858,-6.1243,-6.2474,-6.3051,-6.3916,-6.4993,-6.559,-6.582,-6.5878,-6.5878,-6.5878,-6.5878,-6.5878,-6.5878,-6.5878,-6.5878,-6.5878,-6.5878,-6.5878,-6.5878,-6.5878,-6.5878,-6.5878,-6.5878,-6.5878,-6.5878,-6.5878,-6.5878,-6.5878,-6.5878,-6.5878,-6.5878,-6.5878,-6.5878,-6.5878,-6.5878,-6.5878,-6.5878,-6.5878,-6.5878,-6.5878,-6.5878,-6.5878,-6.5878,-6.5878,-6.5878,-6.5878,-6.5878,-6.5878,-6.5878,-5.758,-5.9097,-5.9123,-6.0064,-6.1568,-6.1584,-6.1586,-6.1588,-6.1588,-6.1583,-6.1554,-6.1504,-6.1433,-6.1402,-6.1381,-6.1356,-6.1326,-6.1278,-6.1236,-6.1173,-6.1117,-6.1099,-6.1099,-6.1099,-6.1099,-6.1099,-6.1099,-6.1099,-6.1099,-6.1099,-6.1099,-6.1099,-6.1099,-6.1099,-6.1099,-6.1089,-6.107,-6.1002,-6.0948,-6.0891,-6.0835,-6.0812,-6.08,-6.08,-6.08,-6.08,-6.08,-6.08,-6.08,-6.08,-6.08,-6.08,-6.08,-6.08,-6.08,-6.08,-6.08,-6.08,-6.08,-6.08,-6.08,-6.08,-6.08,-6.08,-6.08,-6.0819,-6.1185,-6.2139,-6.2878,-6.3666,-6.4532,-6.5397,-6.5763,-6.5878,-6.5878,-6.5878,-6.5878,-6.5878,-6.5878,-6.5878,-6.5878,-6.5878,-6.5878,-6.5878,-6.5878,-6.5878,-6.5878,-6.5878,-6.5878,-6.5878,-6.5878,-6.5878,-6.5878,-6.5878,-6.5878,-6.5878,-6.5878,-6.5878,-6.5878,-6.5878,-6.5878,-6.5878,-6.5878,-6.5878,-6.5878,-6.5878,-6.5878,-6.5878,-6.5878,-6.5878,-6.5878,-6.5878,-6.5878,-6.5878,-6.5878,-5.7575,-5.9123,-5.9089,-6.0063,-6.1584,-6.1582,-6.1588,-6.1588,-6.1588,-6.1573,-6.1509,-6.1458,-6.1409,-6.1381,-6.1352,-6.1326,-6.1306,-6.1236,-6.1173,-6.1117,-6.1099,-6.1099,-6.1099,-6.1099,-6.1089,-6.1089,-6.1089,-6.1089,-6.1089,-6.109,-6.108,-6.1099,-6.1099,-6.1099,-6.1099,-6.1099,-6.107,-6.1021,-6.0989,-6.0955,-6.088,-6.0835,-6.08,-6.08,-6.08,-6.08,-6.08,-6.08,-6.08,-6.08,-6.08,-6.08,-6.08,-6.08,-6.08,-6.08,-6.08,-6.08,-6.08,-6.08,-6.08,-6.08,-6.08,-6.08,-6.08,-6.08,-6.1223,-6.1947,-6.2704,-6.357,-6.4455,-6.5301,-6.5801,-6.5878,-6.5878,-6.5878,-6.5878,-6.5878,-6.5878,-6.5878,-6.5878,-6.5878,-6.5878,-6.5878,-6.5878,-6.5878,-6.5878,-6.5878,-6.5878,-6.5878,-6.5878,-6.5878,-6.5878,-6.5878,-6.5878,-6.5878,-6.5878,-6.5878,-6.5878,-6.5878,-6.5878,-6.5878,-6.5878,-6.5878,-6.5878,-6.5878,-6.5878,-6.5878,-6.5878,-6.5878,-6.5878,-6.5878,-6.5878,-6.5878,-6.5878,-5.7543,-5.9089,-5.9049,-6.0032,-6.158,-6.1578,-6.1588,-6.1588,-6.1588,-6.1563,-6.1501,-6.1415,-6.1395,-6.1373,-6.1337,-6.1318,-6.1297,-6.1227,-6.1164,-6.1108,-6.1099,-6.1099,-6.1099,-6.1089,-6.106,-6.1061,-6.1032,-6.1031,-6.104,-6.105,-6.1031,-6.1051,-6.108,-6.1099,-6.1099,-6.1089,-6.107,-6.1021,-6.1009,-6.0965,-6.0891,-6.0835,-6.08,-6.08,-6.08,-6.08,-6.08,-6.08,-6.08,-6.08,-6.08,-6.08,-6.08,-6.08,-6.08,-6.08,-6.08,-6.08,-6.08,-6.08,-6.08,-6.08,-6.08,-6.08,-6.08,-6.08,-6.0896,-6.157,-6.2512,-6.3435,-6.3801,-6.4993,-6.5878,-6.5878,-6.5878,-6.5878,-6.5878,-6.5878,-6.5878,-6.5878,-6.5878,-6.5878,-6.5878,-6.5878,-6.5878,-6.5878,-6.5878,-6.5878,-6.5878,-6.5878,-6.5878,-6.5878,-6.5878,-6.5878,-6.5878,-6.5878,-6.5878,-6.5878,-6.5878,-6.5878,-6.5878,-6.5878,-6.5878,-6.5878,-6.5878,-6.5878,-6.5878,-6.5878,-6.5878,-6.5878,-6.5878,-6.5878,-6.5878,-6.5878,-6.5878,-5.7356,-5.8682,-5.8921,-6.0001,-6.1493,-6.1592,-6.1588,-6.1588,-6.1559,-6.1528,-6.1466,-6.1415,-6.1375,-6.1359,-6.1341,-6.1275,-6.1253,-6.1182,-6.1155,-6.1108,-6.1099,-6.1089,-6.108,-6.107,-6.1041,-6.1011,-6.1001,-6.1009,-6.1008,-6.1017,-6.0999,-6.1021,-6.1032,-6.107,-6.1099,-6.1089,-6.108,-6.1041,-6.099,-6.0976,-6.0933,-6.0846,-6.08,-6.08,-6.08,-6.08,-6.08,-6.08,-6.08,-6.08,-6.08,-6.08,-6.08,-6.08,-6.08,-6.08,-6.08,-6.08,-6.08,-6.08,-6.08,-6.08,-6.08,-6.08,-6.08,-6.08,-6.0858,-6.0954,-6.2127,-6.3051,-6.3262,-6.4551,-6.5609,-6.5705,-6.5859,-6.5878,-6.5878,-6.5878,-6.5878,-6.5878,-6.5878,-6.5878,-6.5878,-6.5878,-6.5878,-6.5878,-6.5878,-6.5878,-6.5878,-6.5878,-6.5878,-6.5878,-6.5878,-6.5878,-6.5878,-6.5878,-6.5878,-6.5878,-6.5878,-6.5878,-6.5878,-6.5878,-6.5878,-6.5878,-6.5878,-6.5878,-6.5878,-6.5878,-6.5878,-6.5878,-6.5878,-6.5878,-6.5878,-6.5878,-6.5878,-5.7034,-5.7884,-5.8679,-5.9993,-6.1456,-6.1588,-6.1588,-6.1583,-6.1544,-6.1482,-6.1421,-6.1401,-6.1366,-6.1329,-6.131,-6.127,-6.1219,-6.1146,-6.1099,-6.1099,-6.108,-6.107,-6.1041,-6.1021,-6.101,-6.1008,-6.0997,-6.0987,-6.0995,-6.0965,-6.0976,-6.0989,-6.1001,-6.1041,-6.1089,-6.1099,-6.1099,-6.108,-6.102,-6.0997,-6.0965,-6.0858,-6.0812,-6.08,-6.08,-6.08,-6.08,-6.08,-6.08,-6.08,-6.08,-6.08,-6.08,-6.08,-6.08,-6.08,-6.08,-6.08,-6.08,-6.08,-6.08,-6.08,-6.08,-6.08,-6.08,-6.08,-6.08,-6.0877,-6.1723,-6.257,-6.3281,-6.4128,-6.5013,-6.5647,-6.582,-6.5878,-6.5878,-6.5878,-6.5878,-6.5878,-6.5878,-6.5878,-6.5878,-6.5878,-6.5878,-6.5878,-6.5878,-6.5878,-6.5878,-6.5878,-6.5878,-6.5878,-6.5878,-6.5878,-6.5878,-6.5878,-6.5878,-6.5878,-6.5878,-6.5878,-6.5878,-6.5878,-6.5878,-6.5878,-6.5878,-6.5878,-6.5878,-6.5878,-6.5878,-6.5878,-6.5878,-6.5878,-6.5878,-6.5878,-6.5878,-5.7005,-5.788,-5.8663,-5.9668,-6.075,-6.1373,-6.1588,-6.1578,-6.1542,-6.1458,-6.1396,-6.1394,-6.1378,-6.1322,-6.1294,-6.1253,-6.1201,-6.1137,-6.1099,-6.1089,-6.107,-6.1022,-6.1002,-6.1,-6.0978,-6.0935,-6.0914,-6.0891,-6.0858,-6.09,-6.0891,-6.0905,-6.0971,-6.1032,-6.108,-6.1099,-6.1099,-6.108,-6.104,-6.1006,-6.0976,-6.0869,-6.08,-6.08,-6.08,-6.08,-6.08,-6.08,-6.08,-6.08,-6.08,-6.08,-6.08,-6.08,-6.08,-6.08,-6.08,-6.08,-6.08,-6.08,-6.08,-6.08,-6.08,-6.08,-6.08,-6.08,-6.08,-6.0935,-6.1524,-6.2339,-6.3262,-6.4089,-6.4936,-6.5647,-6.5878,-6.5878,-6.5878,-6.5878,-6.5878,-6.5878,-6.5878,-6.5878,-6.5878,-6.5878,-6.5878,-6.5878,-6.5878,-6.5878,-6.5878,-6.5878,-6.5878,-6.5878,-6.5878,-6.5878,-6.5878,-6.5878,-6.5878,-6.5878,-6.5878,-6.5878,-6.5878,-6.5878,-6.5878,-6.5878,-6.5878,-6.5878,-6.5878,-6.5878,-6.5878,-6.5878,-6.5878,-6.5878,-6.5878,-6.5878,-6.5878,-5.6835,-5.7459,-5.8538,-5.9308,-5.999,-6.1101,-6.1578,-6.1558,-6.149,-6.1428,-6.1395,-6.1373,-6.1337,-6.1299,-6.1278,-6.1227,-6.1164,-6.1117,-6.1099,-6.1089,-6.1032,-6.1002,-6.1,-6.0959,-6.0914,-6.088,-6.0858,-6.0835,-6.0812,-6.08,-6.0835,-6.0903,-6.0948,-6.0981,-6.1051,-6.108,-6.1099,-6.107,-6.104,-6.1006,-6.0965,-6.088,-6.08,-6.08,-6.08,-6.08,-6.08,-6.08,-6.08,-6.08,-6.08,-6.08,-6.08,-6.08,-6.08,-6.08,-6.08,-6.08,-6.08,-6.08,-6.08,-6.08,-6.08,-6.08,-6.08,-6.08,-6.08,-6.0993,-6.1416,-6.2262,-6.3166,-6.4012,-6.4628,-6.534,-6.5878,-6.5878,-6.5878,-6.5878,-6.591,-6.591,-6.5891,-6.5891,-6.5891,-6.5878,-6.5878,-6.5878,-6.5878,-6.5878,-6.5891,-6.5878,-6.5878,-6.5878,-6.5878,-6.5878,-6.5878,-6.5878,-6.5878,-6.5878,-6.5878,-6.5878,-6.5878,-6.5878,-6.5878,-6.5878,-6.5878,-6.5878,-6.5878,-6.5878,-6.5878,-6.5878,-6.5878,-6.5878,-6.5878,-6.5878,-6.5878,-5.6504,-5.6741,-5.8295,-5.9001,-5.9308,-6.0882,-6.1553,-6.1484,-6.1428,-6.1395,-6.1393,-6.1344,-6.1306,-6.1278,-6.1236,-6.1183,-6.1108,-6.1099,-6.1089,-6.107,-6.1031,-6.101,-6.0967,-6.0914,-6.0869,-6.0823,-6.0812,-6.0823,-6.08,-6.08,-6.0835,-6.0869,-6.0903,-6.0927,-6.0999,-6.106,-6.108,-6.1051,-6.1009,-6.0976,-6.0924,-6.0858,-6.0812,-6.08,-6.08,-6.08,-6.08,-6.08,-6.08,-6.08,-6.08,-6.08,-6.08,-6.08,-6.08,-6.08,-6.08,-6.08,-6.08,-6.08,-6.08,-6.08,-6.08,-6.08,-6.08,-6.08,-6.08,-6.08,-6.1069,-6.207,-6.3031,-6.3589,-6.4166,-6.4974,-6.5801,-6.5878,-6.5878,-6.591,-6.5923,-6.5923,-6.5916,-6.5916,-6.5909,-6.5897,-6.5928,-6.5928,-6.5928,-6.5916,-6.5916,-6.5891,-6.5878,-6.5878,-6.5878,-6.5878,-6.5878,-6.5878,-6.5878,-6.5878,-6.5878,-6.5878,-6.5878,-6.5878,-6.5878,-6.5878,-6.5878,-6.5878,-6.5878,-6.5878,-6.5878,-6.5878,-6.5878,-6.5878,-6.5878,-6.5878,-6.5878,-5.6484,-5.6682,-5.8314,-5.9001,-5.9245,-6.0827,-6.149,-6.1428,-6.1402,-6.1395,-6.1393,-6.1318,-6.1291,-6.1297,-6.1208,-6.1164,-6.1137,-6.1089,-6.1051,-6.1041,-6.101,-6.0967,-6.0914,-6.0888,-6.0823,-6.0812,-6.08,-6.08,-6.08,-6.08,-6.0781,-6.0816,-6.0869,-6.0891,-6.0935,-6.1008,-6.1009,-6.1009,-6.0965,-6.0955,-6.0903,-6.0846,-6.0812,-6.08,-6.08,-6.08,-6.08,-6.08,-6.08,-6.08,-6.08,-6.08,-6.08,-6.08,-6.08,-6.08,-6.08,-6.08,-6.08,-6.08,-6.08,-6.08,-6.08,-6.08,-6.08,-6.08,-6.08,-6.08,-6.0858,-6.1704,-6.2666,-6.3358,-6.4109,-6.4993,-6.5698,-6.5923,-6.5923,-6.5928,-6.594,-6.5953,-6.5965,-6.5958,-6.595,-6.595,-6.5962,-6.5982,-6.597,-6.5965,-6.5928,-6.5903,-6.5891,-6.5878,-6.5878,-6.5878,-6.5878,-6.5878,-6.5878,-6.5878,-6.5878,-6.5878,-6.5878,-6.5878,-6.5878,-6.5878,-6.5878,-6.5878,-6.5878,-6.5878,-6.5878,-6.5878,-6.5878,-6.5878,-6.5878,-6.5878,-6.5878,-5.6496,-5.6741,-5.8299,-5.9357,-6.0107,-6.1036,-6.1428,-6.1395,-6.1415,-6.1407,-6.1352,-6.1314,-6.1275,-6.1245,-6.1182,-6.1146,-6.1099,-6.107,-6.1032,-6.1021,-6.0978,-6.0935,-6.09,-6.0835,-6.0812,-6.08,-6.08,-6.08,-6.08,-6.08,-6.0781,-6.0793,-6.0846,-6.0858,-6.0869,-6.0891,-6.0903,-6.0922,-6.0911,-6.0911,-6.0869,-6.0835,-6.0793,-6.08,-6.08,-6.08,-6.08,-6.08,-6.08,-6.08,-6.08,-6.08,-6.08,-6.08,-6.08,-6.08,-6.08,-6.08,-6.08,-6.08,-6.08,-6.08,-6.08,-6.08,-6.08,-6.08,-6.08,-6.08,-6.0935,-6.1281,-6.2262,-6.3224,-6.4185,-6.5166,-6.5557,-6.5916,-6.5953,-6.597,-6.5982,-6.5993,-6.6017,-6.6009,-6.6001,-6.6013,-6.6001,-6.6009,-6.6005,-6.6001,-6.5965,-6.5916,-6.5891,-6.5878,-6.5878,-6.5878,-6.5878,-6.5878,-6.5878,-6.5878,-6.5878,-6.5878,-6.5878,-6.5878,-6.5878,-6.5878,-6.5878,-6.5878,-6.5878,-6.5878,-6.5878,-6.5878,-6.5878,-6.5878,-6.5878,-6.5878,-6.5878,-5.6487,-5.6643,-5.8295,-5.9917,-6.1367,-6.1415,-6.1395,-6.14,-6.1393,-6.1371,-6.1322,-6.1275,-6.1272,-6.121,-6.1146,-6.1108,-6.108,-6.1041,-6.1021,-6.1011,-6.0946,-6.0911,-6.0858,-6.0816,-6.08,-6.08,-6.08,-6.08,-6.08,-6.08,-6.08,-6.08,-6.0812,-6.0812,-6.0823,-6.0823,-6.0835,-6.0835,-6.0858,-6.0869,-6.0858,-6.0835,-6.08,-6.08,-6.08,-6.08,-6.08,-6.08,-6.08,-6.08,-6.08,-6.08,-6.08,-6.08,-6.08,-6.08,-6.08,-6.08,-6.08,-6.08,-6.08,-6.08,-6.08,-6.08,-6.08,-6.08,-6.08,-6.08,-6.0896,-6.1281,-6.2127,-6.2993,-6.3916,-6.4864,-6.5478,-6.5811,-6.6001,-6.6017,-6.6044,-6.6055,-6.6077,-6.6069,-6.6069,-6.608,-6.608,-6.6047,-6.6032,-6.604,-6.6005,-6.5965,-6.5916,-6.5903,-6.5897,-6.5897,-6.5878,-6.5878,-6.5878,-6.5878,-6.5878,-6.5878,-6.5878,-6.5878,-6.5878,-6.5878,-6.5878,-6.5878,-6.5878,-6.5878,-6.5878,-6.5878,-6.5878,-6.5878,-6.5878,-6.5878,-6.5878,-5.6487,-5.6658,-5.8311,-5.9974,-6.14,-6.1428,-6.1395,-6.1393,-6.1344,-6.131,-6.1306,-6.1242,-6.1219,-6.1192,-6.1117,-6.1099,-6.108,-6.1031,-6.1021,-6.0969,-6.0933,-6.0877,-6.0835,-6.0812,-6.08,-6.08,-6.08,-6.08,-6.08,-6.08,-6.08,-6.08,-6.08,-6.08,-6.08,-6.08,-6.0781,-6.0781,-6.0804,-6.0835,-6.0823,-6.0823,-6.08,-6.08,-6.08,-6.08,-6.08,-6.08,-6.08,-6.08,-6.08,-6.08,-6.08,-6.08,-6.08,-6.08,-6.08,-6.08,-6.08,-6.08,-6.08,-6.08,-6.08,-6.08,-6.08,-6.08,-6.08,-6.08,-6.0954,-6.1408,-6.1947,-6.2774,-6.3601,-6.4516,-6.5449,-6.5743,-6.6029,-6.6055,-6.611,-6.6112,-6.6134,-6.6134,-6.6134,-6.6134,-6.6163,-6.6142,-6.6091,-6.6088,-6.6066,-6.6021,-6.5958,-6.5921,-6.591,-6.591,-6.5897,-6.5878,-6.5878,-6.5878,-6.5878,-6.5878,-6.5878,-6.5878,-6.5878,-6.5878,-6.5878,-6.5878,-6.5878,-6.5878,-6.5878,-6.5878,-6.5878,-6.5878,-6.5878,-6.5878,-6.5878,-5.6487,-5.6717,-5.8272,-5.9719,-6.0837,-6.1253,-6.1368,-6.1352,-6.1314,-6.1302,-6.1259,-6.1208,-6.1173,-6.1164,-6.1108,-6.108,-6.1061,-6.1021,-6.0989,-6.0955,-6.0911,-6.0835,-6.0812,-6.08,-6.08,-6.08,-6.08,-6.08,-6.08,-6.08,-6.08,-6.08,-6.08,-6.08,-6.08,-6.08,-6.08,-6.08,-6.08,-6.08,-6.08,-6.08,-6.08,-6.08,-6.08,-6.08,-6.08,-6.08,-6.08,-6.08,-6.08,-6.08,-6.08,-6.08,-6.08,-6.08,-6.08,-6.08,-6.08,-6.08,-6.08,-6.08,-6.08,-6.08,-6.08,-6.08,-6.08,-6.08,-6.08,-6.1166,-6.167,-6.2401,-6.3176,-6.4039,-6.5199,-6.597,-6.6099,-6.6142,-6.6163,-6.6155,-6.6165,-6.6165,-6.6165,-6.6165,-6.6184,-6.6184,-6.6144,-6.6112,-6.6091,-6.608,-6.6001,-6.595,-6.5953,-6.5923,-6.5897,-6.5878,-6.5878,-6.5878,-6.5878,-6.5878,-6.5878,-6.5878,-6.5878,-6.5878,-6.5878,-6.5878,-6.5878,-6.5878,-6.5878,-6.5878,-6.5878,-6.5878,-6.5878,-6.5878,-6.5878,-5.6561,-5.6864,-5.827,-5.9418,-6.0262,-6.1038,-6.1352,-6.1295,-6.1294,-6.1264,-6.1219,-6.1201,-6.1155,-6.1108,-6.1089,-6.1041,-6.0992,-6.0969,-6.0955,-6.0911,-6.0835,-6.0812,-6.0812,-6.08,-6.08,-6.08,-6.08,-6.08,-6.08,-6.08,-6.08,-6.08,-6.08,-6.08,-6.08,-6.08,-6.08,-6.08,-6.08,-6.08,-6.08,-6.08,-6.08,-6.08,-6.08,-6.08,-6.08,-6.08,-6.08,-6.08,-6.08,-6.08,-6.08,-6.08,-6.08,-6.08,-6.08,-6.08,-6.08,-6.08,-6.08,-6.08,-6.08,-6.08,-6.08,-6.08,-6.08,-6.0812,-6.0812,-6.1093,-6.1597,-6.2256,-6.303,-6.3904,-6.5151,-6.6112,-6.6155,-6.6194,-6.6205,-6.6205,-6.6205,-6.6205,-6.6205,-6.6205,-6.6205,-6.6205,-6.6175,-6.6144,-6.6123,-6.6123,-6.608,-6.6013,-6.5986,-6.5946,-6.5916,-6.5878,-6.5878,-6.5878,-6.5878,-6.5878,-6.5878,-6.5878,-6.5878,-6.5878,-6.5878,-6.5878,-6.5878,-6.5878,-6.5878,-6.5878,-6.5878,-6.5878,-6.5878,-6.5878,-6.5878,-5.6883,-5.7561,-5.8515,-5.9399,-6.0236,-6.0997,-6.131,-6.1287,-6.1234,-6.121,-6.1201,-6.1146,-6.1099,-6.1089,-6.1032,-6.1002,-6.1001,-6.0957,-6.0933,-6.09,-6.0823,-6.0812,-6.08,-6.08,-6.08,-6.08,-6.08,-6.08,-6.08,-6.08,-6.08,-6.08,-6.08,-6.08,-6.08,-6.08,-6.08,-6.08,-6.08,-6.08,-6.08,-6.08,-6.08,-6.08,-6.08,-6.08,-6.08,-6.08,-6.08,-6.08,-6.08,-6.08,-6.08,-6.08,-6.08,-6.08,-6.08,-6.08,-6.08,-6.08,-6.08,-6.08,-6.08,-6.08,-6.08,-6.0812,-6.0823,-6.0908,-6.1004,-6.14,-6.1943,-6.2767,-6.3571,-6.4533,-6.567,-6.6,-6.6194,-6.6205,-6.6205,-6.6205,-6.6205,-6.6205,-6.6205,-6.6205,-6.6205,-6.6205,-6.6205,-6.6165,-6.6165,-6.6155,-6.6144,-6.6091,-6.6024,-6.6017,-6.5996,-6.5903,-6.5878,-6.5878,-6.5878,-6.5878,-6.5878,-6.5878,-6.5878,-6.5878,-6.5878,-6.5878,-6.5878,-6.5878,-6.5878,-6.5878,-6.5878,-6.5878,-6.5878,-6.5878,-6.5878]},{"header":{"parameterUnit":"m.s-1","parameterCategory":1,"la1":31.0,"la2":29.5877,"lo1":-88.7671,"lo2":-86.6584,"dy":0.0162,"dx":0.0185,"nx":115,"ny":88,"refTime":"2024-03-29T06:00:00:Z","depth":0,"parameterNumber":3,"parameterNumberName":"V-component_of_WINDS"},"data":[0.0,0.0,0.0,0.0,0.0,0.0,0.0,0.0,0.0,0.0,0.0,0.0,0.0,0.0,0.0,0.0,0.0,0.0,0.0,0.0,0.0,0.0,0.0,0.0,0.0,0.0,0.0,0.0,0.0,0.0,0.0,0.0,0.0,0.0,0.0,0.0,0.0,0.0,0.0,0.0,0.0,0.0,0.0,0.0,0.0,0.0,0.0,0.0,0.0,0.0,0.0,0.0,0.0,0.0,0.0,0.0,0.0,0.0,0.0,0.0,0.0,0.0,0.0,0.0,0.0,0.0,0.0,0.0,0.0,0.0,0.0,0.0,0.0,0.0,0.0,0.0,0.0,0.0,0.0,0.0,0.0,0.0,0.0,0.0,0.0,0.0,0.0,0.0,0.0,0.0,0.0,0.0,0.0,0.0,0.0,0.0,0.0,0.0,0.0,0.0,0.0,0.0,0.0,0.0,0.0,0.0,0.0,0.0,0.0,0.0,0.0,0.0,0.0,0.0,0.0,0.0,0.0,0.0,0.0,0.0,0.0,0.0,0.0,0.0,0.0,0.0,0.0,0.0,0.0,0.0,0.0,0.0,0.0,0.0,0.0,0.0,0.0,0.0,0.0,0.0,0.0,0.0,0.0,0.0,0.0,0.0,0.0,0.0,0.0,0.0,0.0,0.0,0.0,0.0,0.0,0.0,0.0,0.0,0.0,0.0,0.0,0.0,0.0,0.0,0.0,0.0,0.0,0.0,0.0,0.0,0.0,0.0,0.0,0.0,0.0,0.0,0.0,0.0,0.0,0.0,0.0,0.0,0.0,0.0,0.0,0.0,0.0,0.0,0.0,0.0,0.0,0.0,0.0,0.0,0.0,0.0,0.0,0.0,0.0,0.0,0.0,0.0,0.0,0.0,0.0,0.0,0.0,0.0,0.0,0.0,0.0,0.0,0.0,0.0,0.0,0.0,0.0,0.0,0.0,0.0,0.0,0.0,0.0,0.0,0.0,0.0,0.0,0.0,0.0,0.0,0.0,0.0,0.0,0.0,0.0,0.0,0.0,0.0,0.0,0.0,0.0,0.0,0.0,0.0,0.0,0.0,0.0,0.0,0.0,0.0,0.0,0.0,0.0,0.0,0.0,0.0,0.0,0.0,0.0,0.0,0.0,0.0,0.0,0.0,0.0,0.0,0.0,0.0,0.0,0.0,0.0,0.0,0.0,0.0,0.0,0.0,0.0,0.0,0.0,0.0,0.0,0.0,0.0,0.0,0.0,0.0,0.0,0.0,0.0,0.0,0.0,0.0,0.0,0.0,0.0,0.0,0.0,0.0,0.0,0.0,0.0,0.0,0.0,0.0,0.0,0.0,0.0,0.0,0.0,0.0,0.0,0.0,0.0,0.0,0.0,0.0,0.0,0.0,0.0,0.0,0.0,0.0,0.0,0.0,0.0,0.0,0.0,0.0,0.0,0.0,0.0,0.0,0.0,0.0,0.0,0.0,0.0,0.0,0.0,0.0,0.0,0.0,0.0,0.0,0.0,0.0,0.0,0.0,0.0,0.0,0.0,0.0,0.0,0.0,0.0,0.0,0.0,0.0,0.0,0.0,0.0,0.0,0.0,0.0,0.0,0.0,0.0,0.0,0.0,0.0,0.0,0.0,0.0,0.0,0.0,0.0,0.0,0.0,0.0,0.0,0.0,0.0,0.0,0.0,0.0,0.0,0.0,0.0,0.0,0.0,0.0,0.0,0.0,0.0,0.0,0.0,0.0,0.0,0.0,0.0,0.0,0.0,0.0,0.0,0.0,0.0,0.0,0.0,0.0,0.0,0.0,0.0,0.0,0.0,0.0,0.0,0.0,0.0,0.0,0.0,0.0,0.0,0.0,0.0,0.0,0.0,0.0,0.0,0.0,0.0,0.0,0.0,0.0,0.0,0.0,0.0,0.0,0.0,0.0,0.0,0.0,0.0,0.0,0.0,0.0,0.0,0.0,0.0,0.0,0.0,0.0,0.0,0.0,0.0,0.0,0.0,0.0,0.0,0.0,0.0,0.0,0.0,0.0,0.0,0.0,0.0,0.0,0.0,0.0,0.0,0.0,0.0,0.0,0.0,0.0,0.0,0.0,0.0,0.0,0.0,0.0,0.0,0.0,0.0,0.0,0.0,0.0,0.0,0.0,0.0,0.0,0.0,0.0,0.0,0.0,0.0,0.0,0.0,0.0,0.0,0.0,0.0,0.0,0.0,0.0,0.0,0.0,0.0,0.0,0.0,0.0,0.0,0.0,0.0,0.0,0.0,0.0,0.0,0.0,0.0,0.0,0.0,0.0,0.0,0.0,0.0,0.0,0.0,0.0,0.0,0.0,0.0,0.0,0.0,0.0,0.0,0.0,0.0,0.0,0.0,0.0,0.0,0.0,0.0,0.0,0.0,0.0,0.0,0.0,0.0,0.0,0.0,0.0,0.0,0.0,0.0,0.0,0.0,0.0,0.0,0.0,0.0,0.0,0.0,0.0,0.0,0.0,0.0,0.0,0.0,0.0,0.0,0.0,0.0,0.0,0.0,0.0,0.0,0.0,0.0,0.0,0.0,0.0,0.0,0.0,0.0,0.0,0.0,0.0,0.0,0.0,0.0,0.0,0.0,0.0,0.0,0.0,0.0,0.0,0.0,0.0,0.0,0.0,0.0,0.0,0.0,0.0,0.0,0.0,0.0,0.0,0.0,0.0,0.0,0.0,0.0,0.0,0.0,0.0,0.0,0.0,0.0,0.0,0.0,0.0,0.0,0.0,0.0,0.0,0.0,0.0,0.0,0.0,0.0,0.0,0.0,0.0,0.0,0.0,0.0,0.0,0.0,0.0,0.0,0.0,0.0,0.0,0.0,0.0,0.0,0.0,0.0,0.0,0.0,0.0,0.0,0.0,0.0,0.0,0.0,0.0,0.0,0.0,0.0,0.0,0.0,0.0,0.0,0.0,0.0,0.0,0.0,0.0,0.0,0.0,0.0,0.0,0.0,0.0,0.0,0.0,0.0,0.0,0.0,0.0,0.0,0.0,0.0,0.0,0.0,0.0,0.0,0.0,0.0,0.0,0.0,0.0,0.0,0.0,0.0,0.0,0.0,0.0,0.0,0.0,0.0,0.0,0.0,0.0,0.0,0.0,0.0,0.0,0.0,0.0,0.0,0.0,0.0,0.0,0.0,0.0,0.0,0.0,0.0,0.0,0.0,0.0,0.0,0.0,0.0,0.0,0.0,0.0,0.0,0.0,0.0,0.0,0.0,0.0,0.0,0.0,0.0,0.0,0.0,0.0,0.0,0.0,0.0,0.0,0.0,0.0,0.0,0.0,0.0,0.0,0.0,0.0,0.0,0.0,0.0,0.0,0.0,0.0,0.0,0.0,0.0,0.0,0.0,0.0,0.0,0.0,0.0,0.0,0.0,0.0,0.0,0.0,0.0,0.0,0.0,0.0,0.0,0.0,0.0,0.0,0.0,0.0,0.0,0.0,0.0,0.0,0.0,0.0,0.0,0.0,0.0,0.0,0.0,0.0,0.0,0.0,0.0,0.0,0.0,0.0,0.0,0.0,0.0,0.0,0.0,0.0,0.0,0.0,0.0,0.0,0.0,0.0,0.0,0.0,0.0,0.0,0.0,0.0,0.0,0.0,0.0,0.0,0.0,0.0,0.0,0.0,0.0,0.0,0.0,0.0,0.0,0.0,0.0,0.0,0.0,0.0,0.0,0.0,0.0,0.0,0.0,0.0,0.0,0.0,0.0,0.0,0.0,0.0,0.0,0.0,0.0,0.0,0.0,0.0,0.0,0.0,0.0,0.0,0.0,0.0,0.0,0.0,0.0,0.0,0.0,0.0,0.0,0.0,0.0,0.0,0.0,0.0,0.0,0.0,0.0,0.0,0.0,0.0,0.0,0.0,0.0,0.0,0.0,0.0,0.0,0.0,0.0,0.0,0.0,0.0,0.0,0.0,0.0,0.0,0.0,0.0,0.0,0.0,0.0,0.0,0.0,0.0,0.0,0.0,0.0,0.0,0.0,0.0,0.0,0.0,0.0,0.0,0.0,0.0,0.0,0.0,0.0,0.0,0.0,0.0,0.0,0.0,0.0,0.0,0.0,0.0,0.0,0.0,0.0,0.0,0.0,0.0,0.0,0.0,0.0,0.0,0.0,0.0,0.0,0.0,0.0,0.0,0.0,0.0,0.0,0.0,0.0,0.0,0.0,0.0,0.0,0.0,0.0,0.0,0.0,0.0,0.0,0.0,0.0,0.0,0.0,-2.4503,0.0,0.0,0.0,0.0,0.0,0.0,0.0,0.0,0.0,0.0,0.0,0.0,0.0,0.0,0.0,0.0,0.0,0.0,0.0,0.0,0.0,0.0,0.0,0.0,0.0,0.0,0.0,0.0,0.0,0.0,0.0,0.0,0.0,0.0,0.0,0.0,0.0,0.0,0.0,0.0,0.0,0.0,0.0,0.0,0.0,0.0,0.0,0.0,0.0,0.0,0.0,0.0,0.0,0.0,0.0,0.0,0.0,0.0,0.0,0.0,0.0,0.0,0.0,0.0,0.0,0.0,0.0,0.0,0.0,0.0,0.0,0.0,0.0,0.0,0.0,0.0,0.0,0.0,0.0,0.0,0.0,0.0,0.0,0.0,0.0,0.0,0.0,0.0,0.0,0.0,0.0,0.0,0.0,0.0,0.0,0.0,0.0,0.0,0.0,0.0,0.0,0.0,0.0,0.0,0.0,0.0,0.0,0.0,0.0,0.0,-2.3003,-2.3133,-2.3475,-2.3739,-2.3976,0.0,0.0,0.0,0.0,0.0,0.0,0.0,0.0,0.0,0.0,0.0,0.0,0.0,0.0,0.0,0.0,0.0,0.0,0.0,0.0,0.0,0.0,0.0,0.0,0.0,0.0,0.0,0.0,0.0,0.0,0.0,0.0,0.0,0.0,0.0,0.0,0.0,0.0,0.0,0.0,0.0,0.0,0.0,0.0,0.0,0.0,0.0,0.0,0.0,0.0,0.0,0.0,0.0,0.0,0.0,0.0,0.0,0.0,0.0,0.0,0.0,0.0,0.0,0.0,0.0,0.0,0.0,0.0,0.0,0.0,0.0,0.0,0.0,0.0,0.0,0.0,0.0,0.0,0.0,0.0,0.0,0.0,0.0,0.0,0.0,0.0,0.0,0.0,0.0,0.0,0.0,0.0,0.0,0.0,0.0,0.0,0.0,0.0,0.0,0.0,0.0,0.0,0.0,0.0,0.0,0.0,0.0,0.0,0.0,0.0,0.0,0.0,-2.3032,-2.3301,-2.3525,0.0,0.0,0.0,0.0,0.0,0.0,0.0,0.0,0.0,0.0,0.0,0.0,0.0,0.0,0.0,0.0,0.0,0.0,0.0,0.0,0.0,0.0,0.0,0.0,0.0,0.0,0.0,0.0,0.0,0.0,0.0,0.0,0.0,0.0,0.0,0.0,0.0,0.0,0.0,0.0,0.0,0.0,0.0,0.0,0.0,0.0,0.0,0.0,0.0,0.0,0.0,0.0,0.0,0.0,0.0,0.0,0.0,0.0,0.0,0.0,0.0,0.0,0.0,0.0,0.0,0.0,0.0,0.0,0.0,0.0,0.0,0.0,0.0,0.0,0.0,0.0,0.0,0.0,0.0,0.0,0.0,0.0,0.0,0.0,0.0,0.0,0.0,0.0,0.0,0.0,0.0,0.0,0.0,0.0,0.0,0.0,0.0,0.0,0.0,0.0,0.0,0.0,0.0,0.0,0.0,0.0,0.0,0.0,0.0,0.0,-2.2458,-2.2458,-2.2537,0.0,-2.3521,0.0,0.0,0.0,0.0,0.0,0.0,0.0,0.0,0.0,0.0,0.0,0.0,0.0,0.0,0.0,0.0,0.0,0.0,0.0,0.0,0.0,0.0,0.0,0.0,0.0,0.0,0.0,0.0,0.0,0.0,0.0,0.0,0.0,0.0,0.0,0.0,0.0,0.0,0.0,0.0,0.0,0.0,0.0,0.0,0.0,0.0,0.0,0.0,0.0,0.0,0.0,0.0,0.0,0.0,0.0,0.0,0.0,0.0,0.0,0.0,0.0,0.0,0.0,0.0,0.0,0.0,0.0,0.0,0.0,0.0,0.0,0.0,0.0,0.0,0.0,0.0,0.0,0.0,0.0,0.0,0.0,0.0,0.0,0.0,0.0,0.0,0.0,0.0,0.0,0.0,0.0,0.0,0.0,0.0,0.0,0.0,0.0,0.0,0.0,0.0,0.0,0.0,0.0,0.0,0.0,0.0,0.0,0.0,0.0,0.0,-2.2158,-2.2164,-2.2205,-2.2496,0.0,0.0,0.0,0.0,0.0,0.0,0.0,0.0,0.0,0.0,0.0,0.0,0.0,0.0,0.0,0.0,0.0,0.0,0.0,0.0,0.0,0.0,0.0,0.0,0.0,0.0,0.0,0.0,0.0,0.0,0.0,0.0,0.0,0.0,0.0,0.0,0.0,0.0,0.0,0.0,0.0,0.0,0.0,0.0,0.0,0.0,0.0,0.0,0.0,0.0,0.0,0.0,0.0,0.0,0.0,0.0,0.0,0.0,0.0,0.0,0.0,0.0,0.0,0.0,0.0,0.0,0.0,0.0,0.0,0.0,0.0,0.0,0.0,0.0,0.0,0.0,0.0,0.0,0.0,0.0,0.0,0.0,0.0,0.0,0.0,0.0,0.0,0.0,0.0,0.0,0.0,0.0,0.0,0.0,0.0,0.0,0.0,0.0,0.0,0.0,0.0,0.0,0.0,0.0,0.0,0.0,0.0,0.0,0.0,0.0,-2.1911,-2.183,-2.1737,-2.1859,-2.2135,-2.244,0.0,0.0,0.0,0.0,0.0,0.0,0.0,0.0,0.0,0.0,0.0,0.0,0.0,0.0,0.0,0.0,0.0,0.0,0.0,0.0,0.0,0.0,0.0,0.0,0.0,0.0,0.0,0.0,0.0,0.0,0.0,0.0,0.0,0.0,0.0,0.0,0.0,0.0,0.0,0.0,0.0,0.0,0.0,0.0,0.0,0.0,0.0,0.0,0.0,0.0,0.0,0.0,0.0,0.0,0.0,0.0,0.0,0.0,0.0,0.0,0.0,0.0,0.0,0.0,0.0,0.0,0.0,0.0,0.0,0.0,0.0,0.0,0.0,0.0,0.0,0.0,0.0,0.0,0.0,0.0,0.0,0.0,0.0,0.0,0.0,0.0,0.0,0.0,0.0,0.0,0.0,0.0,0.0,0.0,0.0,0.0,0.0,0.0,0.0,0.0,0.0,0.0,0.0,0.0,0.0,0.0,0.0,0.0,-2.1971,-2.1775,-2.1436,-2.1169,-2.1452,-2.1754,0.0,0.0,0.0,0.0,0.0,0.0,0.0,0.0,0.0,0.0,0.0,0.0,0.0,0.0,0.0,0.0,0.0,0.0,0.0,0.0,0.0,0.0,0.0,0.0,0.0,0.0,0.0,0.0,0.0,0.0,0.0,0.0,0.0,0.0,0.0,0.0,0.0,0.0,0.0,0.0,0.0,0.0,0.0,0.0,0.0,0.0,0.0,0.0,0.0,0.0,0.0,0.0,0.0,0.0,0.0,0.0,0.0,0.0,0.0,0.0,0.0,0.0,0.0,0.0,0.0,0.0,0.0,0.0,0.0,0.0,0.0,0.0,0.0,0.0,0.0,0.0,0.0,0.0,0.0,0.0,0.0,0.0,0.0,0.0,0.0,0.0,0.0,0.0,0.0,0.0,0.0,0.0,0.0,0.0,0.0,0.0,0.0,0.0,0.0,0.0,0.0,0.0,0.0,0.0,0.0,0.0,0.0,0.0,0.0,-2.1436,-2.1323,-2.1216,-2.1116,-2.1235,-2.1425,0.0,0.0,0.0,0.0,0.0,0.0,0.0,0.0,0.0,0.0,0.0,0.0,0.0,0.0,0.0,0.0,0.0,0.0,0.0,0.0,0.0,0.0,0.0,0.0,0.0,0.0,0.0,0.0,0.0,0.0,0.0,0.0,0.0,0.0,0.0,0.0,0.0,0.0,0.0,0.0,0.0,0.0,0.0,0.0,0.0,0.0,0.0,0.0,0.0,0.0,0.0,0.0,0.0,0.0,0.0,0.0,0.0,0.0,0.0,0.0,0.0,0.0,0.0,0.0,0.0,0.0,0.0,0.0,0.0,0.0,0.0,0.0,0.0,0.0,0.0,0.0,0.0,0.0,0.0,0.0,0.0,0.0,0.0,0.0,0.0,0.0,0.0,0.0,0.0,0.0,0.0,0.0,0.0,0.0,0.0,0.0,0.0,0.0,0.0,0.0,0.0,0.0,0.0,0.0,0.0,0.0,0.0,0.0,0.0,-2.0806,0.0,-2.0926,-2.0919,-2.1046,-2.1235,0.0,0.0,0.0,0.0,0.0,0.0,0.0,0.0,0.0,0.0,0.0,0.0,0.0,0.0,0.0,0.0,0.0,0.0,0.0,0.0,0.0,0.0,0.0,0.0,0.0,0.0,0.0,0.0,0.0,0.0,0.0,0.0,0.0,0.0,0.0,0.0,0.0,0.0,0.0,0.0,0.0,0.0,0.0,0.0,0.0,0.0,0.0,0.0,0.0,0.0,0.0,0.0,0.0,0.0,0.0,0.0,0.0,0.0,0.0,0.0,0.0,0.0,0.0,0.0,0.0,0.0,0.0,0.0,0.0,0.0,0.0,0.0,0.0,0.0,0.0,0.0,0.0,0.0,0.0,0.0,0.0,0.0,0.0,0.0,0.0,0.0,0.0,0.0,0.0,0.0,0.0,0.0,0.0,0.0,0.0,0.0,0.0,0.0,0.0,0.0,0.0,0.0,0.0,0.0,0.0,0.0,0.0,0.0,-2.0425,-2.0106,-2.0418,-2.0609,-2.0609,-2.0919,-2.1235,0.0,0.0,0.0,0.0,0.0,0.0,0.0,0.0,0.0,0.0,0.0,0.0,0.0,0.0,0.0,0.0,0.0,0.0,0.0,0.0,0.0,0.0,0.0,0.0,0.0,0.0,0.0,0.0,0.0,0.0,0.0,0.0,0.0,0.0,0.0,0.0,0.0,0.0,0.0,0.0,0.0,0.0,0.0,0.0,0.0,0.0,0.0,0.0,0.0,0.0,0.0,0.0,0.0,0.0,0.0,0.0,0.0,0.0,0.0,0.0,0.0,0.0,0.0,0.0,0.0,0.0,0.0,0.0,0.0,0.0,0.0,0.0,0.0,0.0,0.0,0.0,0.0,0.0,0.0,0.0,0.0,0.0,0.0,0.0,0.0,0.0,0.0,0.0,0.0,0.0,0.0,0.0,0.0,0.0,0.0,0.0,0.0,0.0,0.0,0.0,0.0,0.0,0.0,0.0,0.0,0.0,0.0,0.0,0.0,-2.0106,-2.0234,-2.0361,-2.0609,-2.0672,-2.0926,0.0,0.0,0.0,0.0,0.0,0.0,0.0,0.0,0.0,0.0,0.0,0.0,0.0,0.0,0.0,0.0,0.0,0.0,0.0,0.0,0.0,0.0,0.0,0.0,0.0,0.0,0.0,0.0,0.0,0.0,0.0,0.0,0.0,0.0,0.0,0.0,0.0,0.0,0.0,0.0,0.0,0.0,0.0,0.0,0.0,0.0,0.0,0.0,0.0,0.0,0.0,0.0,0.0,0.0,0.0,0.0,0.0,0.0,0.0,0.0,0.0,0.0,0.0,0.0,0.0,0.0,0.0,0.0,0.0,0.0,0.0,0.0,0.0,0.0,0.0,0.0,0.0,0.0,0.0,0.0,0.0,0.0,0.0,0.0,0.0,0.0,0.0,0.0,0.0,0.0,0.0,0.0,0.0,0.0,0.0,0.0,0.0,0.0,0.0,0.0,0.0,0.0,0.0,0.0,0.0,0.0,0.0,0.0,0.0,-1.9717,-1.9845,-2.003,-2.0227,-2.0354,-2.0545,-2.0919,0.0,0.0,0.0,0.0,0.0,0.0,0.0,0.0,0.0,0.0,0.0,0.0,0.0,0.0,0.0,0.0,0.0,0.0,0.0,0.0,0.0,0.0,0.0,0.0,0.0,0.0,0.0,0.0,0.0,0.0,0.0,0.0,0.0,0.0,0.0,0.0,0.0,0.0,0.0,0.0,0.0,0.0,0.0,0.0,0.0,0.0,0.0,0.0,0.0,0.0,0.0,0.0,0.0,0.0,0.0,0.0,0.0,0.0,0.0,0.0,0.0,0.0,0.0,0.0,0.0,0.0,0.0,0.0,0.0,0.0,0.0,0.0,0.0,0.0,0.0,0.0,0.0,0.0,0.0,0.0,0.0,0.0,0.0,0.0,0.0,0.0,0.0,0.0,0.0,0.0,0.0,0.0,0.0,0.0,0.0,0.0,0.0,0.0,0.0,0.0,0.0,0.0,0.0,0.0,0.0,0.0,0.0,0.0,-1.9078,-1.9386,-1.9577,-1.9577,-1.9903,-2.0234,0.0,0.0,0.0,0.0,0.0,0.0,0.0,0.0,0.0,0.0,0.0,0.0,0.0,0.0,0.0,0.0,0.0,0.0,0.0,0.0,0.0,0.0,0.0,0.0,0.0,0.0,0.0,0.0,0.0,0.0,0.0,0.0,0.0,0.0,0.0,0.0,0.0,0.0,0.0,0.0,0.0,0.0,0.0,0.0,0.0,0.0,0.0,0.0,0.0,0.0,0.0,0.0,0.0,0.0,0.0,0.0,0.0,0.0,0.0,0.0,0.0,0.0,0.0,0.0,0.0,0.0,0.0,0.0,0.0,0.0,0.0,0.0,0.0,0.0,0.0,0.0,0.0,0.0,0.0,0.0,0.0,0.0,0.0,0.0,0.0,0.0,0.0,0.0,0.0,0.0,0.0,0.0,0.0,0.0,0.0,0.0,0.0,0.0,0.0,0.0,0.0,0.0,0.0,0.0,0.0,0.0,0.0,0.0,0.0,-1.8764,-1.8828,-1.9078,-1.9577,-1.9705,-2.003,0.0,0.0,0.0,0.0,0.0,0.0,0.0,0.0,0.0,0.0,0.0,0.0,0.0,0.0,0.0,0.0,0.0,0.0,0.0,0.0,0.0,0.0,0.0,0.0,0.0,0.0,0.0,0.0,0.0,0.0,0.0,0.0,0.0,0.0,0.0,0.0,0.0,0.0,0.0,0.0,0.0,0.0,0.0,0.0,0.0,0.0,0.0,0.0,0.0,0.0,0.0,0.0,0.0,0.0,0.0,0.0,0.0,0.0,0.0,0.0,0.0,0.0,0.0,0.0,0.0,0.0,0.0,0.0,0.0,0.0,0.0,0.0,0.0,0.0,0.0,0.0,0.0,0.0,0.0,0.0,0.0,0.0,0.0,0.0,0.0,0.0,0.0,0.0,0.0,0.0,0.0,0.0,0.0,0.0,0.0,0.0,0.0,0.0,0.0,0.0,0.0,0.0,0.0,0.0,0.0,0.0,0.0,0.0,-1.8372,-1.8372,-1.8366,-1.8559,-1.8932,-1.9194,-1.9641,0.0,0.0,0.0,0.0,0.0,0.0,0.0,0.0,0.0,0.0,0.0,0.0,0.0,0.0,0.0,0.0,0.0,0.0,0.0,0.0,0.0,0.0,0.0,0.0,0.0,0.0,0.0,0.0,0.0,0.0,0.0,0.0,0.0,0.0,0.0,0.0,0.0,0.0,0.0,0.0,0.0,0.0,0.0,0.0,0.0,0.0,0.0,0.0,0.0,0.0,0.0,0.0,0.0,0.0,0.0,0.0,0.0,0.0,0.0,0.0,0.0,0.0,0.0,0.0,0.0,0.0,0.0,0.0,0.0,0.0,0.0,0.0,0.0,0.0,0.0,0.0,0.0,0.0,0.0,0.0,0.0,0.0,0.0,0.0,0.0,0.0,0.0,0.0,0.0,0.0,0.0,0.0,0.0,0.0,0.0,0.0,0.0,0.0,0.0,0.0,0.0,0.0,0.0,0.0,0.0,0.0,0.0,0.0,-1.7969,-1.7969,-1.7975,-1.7975,-1.7975,-1.8688,-1.92,0.0,0.0,0.0,0.0,0.0,0.0,0.0,0.0,0.0,0.0,0.0,0.0,0.0,0.0,0.0,0.0,0.0,0.0,0.0,0.0,0.0,0.0,0.0,0.0,0.0,0.0,0.0,0.0,0.0,0.0,0.0,0.0,0.0,0.0,0.0,0.0,0.0,0.0,0.0,0.0,0.0,0.0,0.0,0.0,0.0,0.0,0.0,0.0,0.0,0.0,0.0,0.0,0.0,0.0,0.0,0.0,0.0,0.0,0.0,0.0,0.0,0.0,0.0,0.0,0.0,0.0,0.0,0.0,0.0,0.0,0.0,0.0,0.0,0.0,0.0,0.0,0.0,0.0,0.0,0.0,0.0,0.0,0.0,0.0,0.0,0.0,0.0,0.0,0.0,0.0,0.0,0.0,0.0,0.0,0.0,0.0,0.0,0.0,0.0,0.0,0.0,0.0,0.0,0.0,0.0,0.0,0.0,0.0,-1.7599,-1.7594,-1.7594,-1.7594,-1.7599,-1.8314,-1.8892,0.0,0.0,0.0,0.0,0.0,0.0,0.0,0.0,0.0,0.0,0.0,0.0,0.0,0.0,0.0,0.0,0.0,0.0,0.0,0.0,0.0,0.0,0.0,0.0,0.0,0.0,0.0,0.0,0.0,0.0,0.0,0.0,0.0,0.0,0.0,0.0,0.0,0.0,0.0,0.0,0.0,0.0,0.0,0.0,0.0,0.0,0.0,0.0,-2.2866,0.0,0.0,0.0,0.0,0.0,0.0,0.0,0.0,0.0,0.0,0.0,0.0,0.0,0.0,0.0,0.0,0.0,0.0,0.0,0.0,0.0,0.0,0.0,0.0,0.0,0.0,0.0,0.0,0.0,0.0,0.0,0.0,0.0,0.0,0.0,0.0,0.0,0.0,0.0,0.0,0.0,0.0,0.0,0.0,0.0,0.0,0.0,0.0,0.0,0.0,0.0,0.0,0.0,0.0,0.0,0.0,0.0,0.0,0.0,-1.7265,-1.7265,-1.7265,-1.7271,-1.7265,-1.7787,-1.8308,0.0,0.0,0.0,0.0,0.0,0.0,0.0,0.0,0.0,0.0,0.0,0.0,0.0,0.0,0.0,0.0,0.0,0.0,0.0,0.0,0.0,0.0,0.0,0.0,0.0,0.0,0.0,0.0,0.0,0.0,0.0,0.0,0.0,0.0,0.0,0.0,0.0,0.0,0.0,0.0,0.0,0.0,0.0,0.0,0.0,0.0,0.0,0.0,0.0,0.0,0.0,0.0,0.0,0.0,0.0,0.0,0.0,0.0,0.0,0.0,0.0,0.0,0.0,0.0,0.0,0.0,0.0,0.0,0.0,0.0,0.0,0.0,0.0,0.0,0.0,0.0,0.0,0.0,0.0,0.0,0.0,0.0,0.0,0.0,0.0,0.0,0.0,0.0,0.0,0.0,0.0,0.0,0.0,0.0,0.0,0.0,0.0,0.0,0.0,0.0,0.0,0.0,0.0,0.0,0.0,0.0,0.0,-1.6942,-1.6872,-1.6872,-1.6877,-1.6877,-1.6942,-1.7206,-1.7664,-1.8378,0.0,0.0,0.0,0.0,0.0,0.0,0.0,0.0,0.0,0.0,0.0,0.0,0.0,0.0,0.0,0.0,0.0,0.0,0.0,0.0,0.0,0.0,0.0,0.0,0.0,0.0,0.0,0.0,0.0,0.0,0.0,0.0,0.0,0.0,0.0,0.0,0.0,0.0,-2.3891,-2.3543,0.0,0.0,0.0,0.0,0.0,0.0,0.0,0.0,-2.2797,0.0,0.0,0.0,0.0,0.0,0.0,0.0,0.0,0.0,0.0,0.0,0.0,0.0,0.0,0.0,0.0,0.0,0.0,0.0,0.0,0.0,0.0,0.0,0.0,0.0,0.0,0.0,0.0,0.0,0.0,0.0,0.0,0.0,0.0,0.0,0.0,0.0,0.0,0.0,0.0,0.0,0.0,0.0,0.0,0.0,0.0,0.0,0.0,0.0,0.0,0.0,0.0,0.0,0.0,0.0,0.0,-1.6623,-1.6564,-1.6429,-1.6164,-1.6164,-1.6299,-1.6558,-1.6629,-1.6953,-1.7664,0.0,0.0,0.0,0.0,0.0,0.0,0.0,0.0,0.0,0.0,0.0,0.0,0.0,0.0,0.0,0.0,0.0,0.0,0.0,0.0,0.0,0.0,0.0,0.0,0.0,0.0,0.0,0.0,0.0,0.0,0.0,0.0,0.0,0.0,0.0,0.0,0.0,0.0,0.0,-2.2996,-2.2928,0.0,0.0,0.0,0.0,0.0,0.0,0.0,0.0,-2.1973,0.0,0.0,0.0,0.0,0.0,0.0,0.0,0.0,0.0,0.0,0.0,0.0,0.0,0.0,0.0,0.0,0.0,0.0,0.0,0.0,0.0,0.0,0.0,0.0,0.0,0.0,0.0,0.0,0.0,0.0,0.0,0.0,0.0,0.0,0.0,0.0,0.0,0.0,0.0,0.0,0.0,0.0,0.0,0.0,0.0,0.0,0.0,0.0,0.0,0.0,0.0,0.0,0.0,0.0,0.0,-1.6234,-1.6234,-1.6169,-1.5974,-1.5974,-1.6104,-1.6234,-1.6434,-1.6629,0.0,0.0,0.0,0.0,0.0,0.0,0.0,0.0,0.0,0.0,0.0,0.0,0.0,0.0,0.0,0.0,0.0,0.0,0.0,0.0,0.0,0.0,0.0,0.0,0.0,0.0,0.0,0.0,0.0,0.0,0.0,0.0,0.0,0.0,0.0,0.0,0.0,0.0,0.0,0.0,-2.2866,-2.2866,-2.2585,0.0,0.0,0.0,0.0,0.0,0.0,-2.1904,-2.1766,0.0,0.0,0.0,0.0,0.0,0.0,0.0,0.0,0.0,0.0,0.0,0.0,0.0,0.0,0.0,0.0,0.0,0.0,0.0,0.0,0.0,0.0,0.0,0.0,0.0,0.0,0.0,0.0,0.0,0.0,0.0,0.0,0.0,0.0,0.0,0.0,0.0,0.0,0.0,0.0,0.0,0.0,0.0,0.0,0.0,0.0,0.0,0.0,0.0,0.0,0.0,0.0,0.0,0.0,0.0,-1.5909,-1.5914,-1.5844,-1.5779,-1.5779,-1.5844,-1.5909,-1.6174,-1.6374,0.0,0.0,0.0,0.0,0.0,0.0,0.0,0.0,0.0,0.0,0.0,0.0,0.0,0.0,0.0,0.0,0.0,0.0,0.0,0.0,0.0,0.0,0.0,0.0,0.0,0.0,0.0,0.0,0.0,0.0,0.0,0.0,0.0,0.0,0.0,0.0,0.0,0.0,0.0,0.0,0.0,-2.2654,-2.2242,-2.2173,0.0,0.0,0.0,0.0,-2.1691,-2.1628,0.0,0.0,0.0,0.0,0.0,0.0,0.0,0.0,0.0,0.0,0.0,0.0,0.0,0.0,0.0,0.0,0.0,0.0,0.0,0.0,0.0,0.0,0.0,0.0,0.0,0.0,0.0,0.0,0.0,0.0,0.0,0.0,0.0,0.0,0.0,0.0,0.0,0.0,0.0,0.0,0.0,0.0,0.0,0.0,0.0,0.0,0.0,0.0,0.0,0.0,0.0,0.0,0.0,0.0,0.0,0.0,-1.5593,-1.5528,-1.5398,-1.5066,-1.4996,-1.5197,-1.5528,-1.5598,-1.5859,0.0,0.0,0.0,0.0,0.0,0.0,0.0,0.0,0.0,0.0,0.0,0.0,0.0,0.0,0.0,0.0,0.0,0.0,0.0,0.0,0.0,0.0,0.0,0.0,0.0,0.0,0.0,0.0,0.0,0.0,0.0,0.0,0.0,0.0,0.0,0.0,0.0,0.0,0.0,0.0,0.0,-2.2242,-2.1897,-2.1835,-2.1835,0.0,0.0,-2.1276,-2.1283,-2.1012,0.0,0.0,0.0,0.0,0.0,0.0,0.0,0.0,0.0,0.0,0.0,0.0,0.0,0.0,0.0,0.0,0.0,0.0,0.0,0.0,0.0,0.0,0.0,0.0,0.0,0.0,0.0,0.0,0.0,0.0,0.0,0.0,0.0,0.0,0.0,0.0,0.0,0.0,0.0,0.0,0.0,0.0,0.0,0.0,0.0,0.0,0.0,0.0,0.0,0.0,0.0,0.0,0.0,0.0,0.0,-1.5523,-1.5197,-1.5132,-1.5066,-1.4936,-1.487,-1.4996,-1.5132,-1.5398,-1.5663,0.0,0.0,0.0,0.0,0.0,0.0,0.0,0.0,0.0,0.0,0.0,0.0,0.0,0.0,0.0,0.0,0.0,0.0,0.0,0.0,0.0,0.0,0.0,0.0,0.0,0.0,0.0,0.0,0.0,0.0,0.0,0.0,0.0,0.0,0.0,0.0,0.0,0.0,0.0,0.0,0.0,0.0,-2.149,-2.1484,0.0,0.0,0.0,-2.0937,-2.0937,0.0,0.0,0.0,0.0,0.0,0.0,0.0,0.0,0.0,0.0,0.0,0.0,0.0,0.0,0.0,0.0,0.0,0.0,0.0,0.0,0.0,0.0,0.0,0.0,0.0,0.0,0.0,0.0,0.0,0.0,0.0,0.0,0.0,0.0,0.0,0.0,0.0,0.0,0.0,0.0,0.0,0.0,0.0,0.0,0.0,0.0,0.0,0.0,0.0,0.0,0.0,0.0,0.0,0.0,0.0,0.0,0.0,-1.48,-1.467,-1.4665,-1.4665,-1.467,-1.467,-1.48,-1.5066,0.0,0.0,0.0,0.0,0.0,0.0,0.0,0.0,0.0,0.0,0.0,0.0,0.0,0.0,0.0,0.0,0.0,0.0,0.0,0.0,0.0,0.0,0.0,0.0,0.0,0.0,0.0,-2.1734,0.0,0.0,0.0,0.0,0.0,0.0,0.0,0.0,0.0,0.0,0.0,0.0,0.0,0.0,-2.149,-2.1144,-2.1075,-2.1006,0.0,0.0,-2.0527,-2.0527,-2.0463,-2.0457,0.0,0.0,0.0,0.0,0.0,0.0,0.0,0.0,0.0,0.0,0.0,0.0,0.0,0.0,0.0,0.0,0.0,0.0,0.0,0.0,0.0,0.0,0.0,0.0,0.0,0.0,0.0,0.0,0.0,0.0,0.0,0.0,0.0,0.0,0.0,0.0,0.0,0.0,0.0,0.0,0.0,0.0,0.0,0.0,0.0,0.0,0.0,0.0,0.0,0.0,0.0,0.0,0.0,0.0,-1.4469,-1.4408,-1.4141,-1.394,-1.3945,-1.3945,-1.4141,-1.4403,-1.4473,-1.48,0.0,0.0,0.0,0.0,0.0,0.0,0.0,0.0,0.0,0.0,0.0,0.0,0.0,0.0,0.0,0.0,0.0,0.0,0.0,0.0,0.0,0.0,0.0,0.0,0.0,0.0,0.0,0.0,0.0,0.0,0.0,0.0,0.0,0.0,0.0,0.0,0.0,0.0,0.0,0.0,0.0,-2.1075,-2.0804,-2.0735,-2.0735,0.0,-2.0394,-2.0116,-2.0116,-1.9895,-1.968,-1.968,0.0,0.0,0.0,0.0,0.0,0.0,0.0,0.0,0.0,0.0,0.0,0.0,0.0,0.0,0.0,0.0,0.0,0.0,0.0,0.0,0.0,0.0,0.0,0.0,0.0,0.0,0.0,0.0,0.0,0.0,0.0,0.0,0.0,0.0,0.0,0.0,0.0,0.0,0.0,0.0,0.0,0.0,0.0,0.0,0.0,0.0,0.0,0.0,0.0,0.0,0.0,0.0,0.0,-1.4076,-1.4071,-1.3945,-1.3875,-1.3875,-1.3875,-1.3945,-1.4076,-1.4076,-1.4338,0.0,0.0,0.0,0.0,0.0,0.0,0.0,0.0,0.0,0.0,0.0,0.0,0.0,0.0,0.0,0.0,0.0,0.0,0.0,0.0,0.0,0.0,0.0,0.0,0.0,0.0,0.0,0.0,-2.0297,-2.0234,-2.0106,0.0,0.0,0.0,0.0,0.0,0.0,0.0,0.0,0.0,0.0,-2.0735,-2.0394,-2.0318,0.0,0.0,-1.9895,-1.9825,-1.9756,-1.968,-1.9611,-1.9611,-1.9407,0.0,0.0,0.0,0.0,0.0,0.0,0.0,0.0,0.0,0.0,0.0,0.0,0.0,0.0,0.0,0.0,0.0,0.0,0.0,0.0,0.0,0.0,0.0,0.0,0.0,0.0,0.0,0.0,0.0,0.0,0.0,0.0,0.0,0.0,0.0,0.0,0.0,0.0,0.0,0.0,0.0,0.0,0.0,0.0,0.0,0.0,0.0,0.0,0.0,0.0,0.0,0.0,-1.3748,-1.3748,-1.3617,-1.3555,-1.3547,-1.3551,-1.3621,-1.3748,-1.3748,-1.3879,0.0,0.0,0.0,0.0,0.0,0.0,0.0,0.0,0.0,0.0,0.0,0.0,0.0,0.0,0.0,0.0,0.0,0.0,0.0,0.0,0.0,0.0,0.0,0.0,0.0,0.0,0.0,0.0,-1.9851,-1.9788,-1.9781,0.0,0.0,0.0,0.0,0.0,0.0,0.0,0.0,0.0,0.0,-2.0394,-1.997,-1.997,-1.9901,-1.9611,-1.9471,-1.9401,-1.9401,-1.9262,-1.9052,-1.9122,0.0,0.0,0.0,0.0,0.0,0.0,0.0,0.0,0.0,0.0,0.0,0.0,0.0,0.0,0.0,0.0,0.0,0.0,0.0,0.0,0.0,0.0,0.0,0.0,0.0,0.0,0.0,-1.5528,0.0,0.0,-1.5969,0.0,0.0,0.0,0.0,0.0,0.0,0.0,0.0,0.0,0.0,0.0,0.0,0.0,0.0,0.0,0.0,0.0,0.0,0.0,0.0,0.0,0.0,-1.3437,-1.3371,-1.3034,-1.2836,-1.2836,-1.2836,-1.3038,-1.3367,-1.3437,-1.356,-1.3875,0.0,0.0,0.0,0.0,0.0,0.0,0.0,0.0,0.0,0.0,0.0,0.0,0.0,0.0,0.0,0.0,0.0,0.0,0.0,0.0,0.0,0.0,0.0,0.0,0.0,0.0,-1.9641,-1.9328,-1.9142,0.0,0.0,0.0,0.0,0.0,0.0,0.0,0.0,0.0,-2.0144,-2.011,-1.997,-1.968,-1.9616,-1.9611,-1.9541,-1.9267,-1.8988,-1.8988,-1.8422,-1.7931,0.0,0.0,0.0,0.0,0.0,0.0,0.0,0.0,0.0,0.0,0.0,0.0,0.0,0.0,0.0,0.0,0.0,0.0,0.0,0.0,0.0,0.0,0.0,0.0,0.0,0.0,0.0,-1.4338,-1.4473,0.0,0.0,0.0,0.0,0.0,0.0,0.0,0.0,0.0,0.0,0.0,-1.4926,-1.46,0.0,0.0,0.0,0.0,0.0,0.0,0.0,0.0,0.0,0.0,0.0,0.0,-1.2972,-1.2972,-1.2906,-1.277,-1.277,-1.277,-1.284,-1.2968,-1.2972,-1.3165,-1.3564,0.0,0.0,0.0,0.0,0.0,0.0,0.0,0.0,0.0,0.0,0.0,0.0,0.0,0.0,0.0,0.0,0.0,0.0,0.0,0.0,0.0,0.0,0.0,0.0,0.0,-1.8682,0.0,0.0,0.0,0.0,0.0,0.0,0.0,0.0,0.0,0.0,-1.9505,-1.9625,-1.9547,-1.9652,-1.9622,-1.9267,-1.9192,-1.9058,0.0,0.0,0.0,0.0,0.0,0.0,0.0,0.0,0.0,0.0,0.0,0.0,0.0,0.0,-1.7661,-1.7661,-1.7661,-1.7661,-1.7661,0.0,0.0,0.0,0.0,0.0,0.0,0.0,0.0,0.0,0.0,0.0,0.0,0.0,0.0,-1.3682,-1.3875,-1.3875,0.0,0.0,0.0,0.0,0.0,0.0,0.0,0.0,-1.4338,-1.4207,-1.4207,-1.401,-1.3875,-1.3875,-1.3748,-1.3818,0.0,0.0,0.0,0.0,0.0,0.0,0.0,0.0,-1.277,-1.277,-1.277,-1.277,-1.277,-1.277,-1.277,-1.277,-1.277,-1.2972,-1.3371,-1.3822,-1.408,0.0,0.0,0.0,0.0,0.0,0.0,0.0,0.0,0.0,0.0,0.0,0.0,0.0,0.0,0.0,0.0,0.0,0.0,0.0,0.0,0.0,0.0,0.0,-1.8033,0.0,0.0,0.0,0.0,0.0,0.0,0.0,0.0,0.0,-1.8715,-1.8971,-1.9092,-1.9005,-1.9179,-1.9192,-1.8708,0.0,0.0,0.0,0.0,0.0,0.0,0.0,-1.7092,-1.7092,-1.7026,-1.6885,-1.6739,-1.6744,-1.6669,-1.6527,0.0,0.0,-1.7163,-1.7314,-1.7314,-1.7314,-1.7314,-1.7238,-1.7097,-1.7092,-1.7021,0.0,0.0,0.0,0.0,-1.1846,0.0,0.0,0.0,-1.277,-1.3161,0.0,-1.3809,0.0,0.0,0.0,0.0,-1.3879,-1.394,0.0,0.0,-1.3879,-1.3879,-1.3879,-1.3875,-1.3875,-1.3879,-1.3494,-1.3371,-1.3371,-1.3371,0.0,0.0,0.0,0.0,0.0,0.0,-1.277,-1.277,-1.277,-1.277,-1.277,-1.277,-1.277,-1.277,-1.277,-1.2968,-1.3367,-1.3371,-1.3564,-1.3879,-1.4207,0.0,0.0,0.0,0.0,0.0,0.0,0.0,0.0,0.0,0.0,0.0,0.0,0.0,0.0,0.0,0.0,0.0,0.0,0.0,0.0,-1.7969,0.0,0.0,0.0,0.0,0.0,0.0,0.0,0.0,0.0,-1.7995,-1.8228,-1.8561,-1.8761,-1.8583,0.0,0.0,0.0,0.0,-1.7726,-1.7308,-1.7308,-1.7308,-1.7238,-1.6951,-1.6664,-1.6664,0.0,0.0,-1.5678,-1.5603,-1.5465,-1.5119,-1.5119,-1.547,-1.6956,-1.7097,-1.7168,-1.7168,-1.7097,-1.7097,-1.6729,-1.6593,-1.6523,-1.0491,0.0,0.0,0.0,0.0,-1.1784,-1.1912,-1.2111,-1.2111,-1.2177,-1.2433,-1.2634,0.0,0.0,0.0,0.0,0.0,0.0,-1.3875,-1.3875,-1.3621,-1.3564,-1.3564,-1.3231,-1.3095,-1.3099,-1.3038,-1.2968,-1.2972,-1.2968,-1.2968,-1.2968,0.0,0.0,0.0,0.0,-1.2441,-1.2441,-1.2177,-1.2107,-1.2111,-1.2107,-1.2177,-1.2441,-1.2441,-1.2572,-1.2968,-1.3235,-1.3433,-1.356,-1.3884,0.0,0.0,0.0,0.0,0.0,0.0,0.0,0.0,0.0,0.0,0.0,0.0,0.0,0.0,0.0,0.0,0.0,0.0,0.0,-1.7324,-1.726,-1.726,0.0,0.0,0.0,0.0,0.0,0.0,0.0,0.0,0.0,-1.6713,-1.7669,-1.816,0.0,0.0,-1.8002,-1.7515,-1.7449,-1.7303,-1.6951,-1.6875,0.0,-1.6532,-1.6174,-1.5886,-1.5886,-1.5612,-1.5332,-1.5186,-1.5186,-1.5119,-1.4977,-1.5048,-1.5119,-1.5545,-1.5683,-1.5687,-1.5687,-1.5687,-1.5612,-1.5541,-1.547,-1.5474,-0.9422,-1.012,-1.0455,-1.0721,-1.0986,-1.1118,-1.1247,-1.1383,-1.1512,-1.1648,-1.1846,-1.2045,-1.2111,-1.2111,-1.2309,0.0,0.0,0.0,-1.3293,-1.3227,-1.3231,-1.3169,-1.3169,-1.2902,-1.277,-1.277,-1.2638,-1.2572,-1.2568,-1.2441,-1.2441,-1.2437,0.0,-1.2568,-1.2375,-1.2243,-1.2111,-1.2111,-1.1912,-1.1784,-1.1784,-1.1784,-1.1912,-1.2111,-1.2243,-1.2375,-1.2576,-1.2968,-1.3169,-1.3169,-1.3494,-1.3818,0.0,0.0,0.0,0.0,0.0,0.0,0.0,0.0,0.0,0.0,0.0,-1.6683,-1.6882,0.0,0.0,0.0,-1.6882,-1.6812,-1.6613,-1.6613,0.0,0.0,0.0,0.0,0.0,0.0,0.0,-1.6304,-1.6304,-1.6234,-1.6049,-1.6895,-1.7385,-1.7053,-1.7372,-1.7515,-1.7092,0.0,-1.6875,-1.6376,-1.624,-1.6098,-1.5758,-1.5541,-1.5394,-1.5328,-1.5186,-1.4977,-1.4835,-1.4835,-1.4763,-1.4621,-1.455,-1.4546,-1.4546,-1.4546,-1.4688,-1.4977,-1.5048,-1.5048,-1.5048,-1.5048,-1.5048,-0.8502,-0.8987,-0.9395,-0.9594,-0.9728,-1.006,-1.0326,-1.0654,-1.0986,-1.1314,-1.1648,-1.1714,-1.178,-1.1784,-1.1784,0.0,-1.1846,-1.2107,-1.2243,-1.2243,-1.2572,-1.2704,-1.2708,-1.2704,-1.2704,-1.2704,-1.2441,-1.2246,-1.2243,-1.1978,-1.178,-1.178,-1.2045,-1.2045,-1.1784,-1.178,-1.178,-1.178,-1.1714,-1.1714,-1.1718,-1.1714,-1.1714,-1.178,-1.2041,-1.2243,-1.2243,-1.2576,-1.277,-1.277,-1.3104,-1.3371,-1.3428,0.0,0.0,0.0,0.0,0.0,0.0,0.0,0.0,0.0,0.0,0.0,0.0,0.0,0.0,0.0,-1.5974,0.0,-1.5974,-1.5974,0.0,0.0,0.0,-1.5974,-1.5974,-1.5974,-1.5974,-1.5974,0.0,0.0,-1.5934,-1.624,-1.6438,-1.6526,-1.6966,-1.7092,-1.6659,-1.6588,-1.6381,-1.5678,-1.5536,-1.5394,-1.5119,-1.4977,-1.4977,-1.4906,-1.491,-1.4763,-1.455,-1.4474,-1.4261,-1.3975,-1.39,-1.39,-1.39,-1.3971,-1.4118,-1.4763,-1.4906,-1.4906,-1.4835,-1.4835,-1.4835,-0.7592,-0.7925,-0.8325,-0.8928,-0.9731,-0.9794,-0.9861,-0.9994,-1.0256,-1.0455,-1.0588,-1.1118,-1.1516,-1.1784,-1.1784,-1.1784,-1.1784,-1.1912,-1.1912,-1.1912,-1.1978,-1.2045,-1.2045,-1.2045,-1.2048,-1.2045,-1.1978,-1.1912,-1.1912,-1.1846,-1.1648,-1.138,-1.1446,-1.1582,-1.178,-1.1512,-1.1314,-1.1383,-1.1115,-1.0982,-1.0986,-1.0982,-1.1052,-1.1314,-1.1449,-1.1582,-1.1912,-1.2243,-1.2441,-1.2441,-1.277,-1.3104,-1.3371,-1.346,0.0,0.0,0.0,0.0,0.0,0.0,0.0,0.0,0.0,-1.5974,-1.5974,0.0,-1.5974,0.0,-1.5974,-1.5974,-1.5974,-1.5974,0.0,0.0,-1.5974,-1.5974,-1.5974,-1.5974,-1.5909,-1.5658,-1.5593,-1.5587,-1.5409,-1.5385,-1.5402,-1.5639,-1.6293,-1.6593,-1.5957,-1.5891,-1.5673,-1.5257,-1.5119,-1.5119,-1.4977,-1.4763,-1.4474,-1.4189,-1.4189,-1.4114,-1.4043,-1.4043,-1.4043,-1.39,-1.39,-1.39,-1.39,-1.39,-1.3971,-1.4114,-1.4185,-1.4185,-1.4189,-1.4189,-1.4185,-0.7203,-0.7524,-0.7724,-0.8192,-0.8795,-0.9259,-0.9458,-0.9458,-0.9791,-0.9994,-0.9994,-1.0522,-1.0853,-1.1118,-1.1251,-1.1314,-1.1317,-1.1449,-1.1512,-1.1516,-1.1714,-1.1784,-1.1784,-1.1784,-1.1784,-1.178,-1.1648,-1.1512,-1.1512,-1.1383,-1.1181,-1.0982,-1.0982,-1.1118,-1.1314,-1.1052,-1.0986,-1.0986,-1.0787,-1.0721,-1.0721,-1.0721,-1.0787,-1.0982,-1.1115,-1.1314,-1.1512,-1.1912,-1.2111,-1.2305,-1.2507,-1.2774,-1.3104,-1.3169,-1.3189,0.0,0.0,0.0,0.0,0.0,0.0,0.0,0.0,0.0,0.0,0.0,-1.5318,-1.5518,-1.5518,-1.5518,-1.5518,-1.5518,-1.5453,-1.5323,-1.5323,-1.5253,-1.5122,-1.5057,-1.4992,-1.48,-1.4805,-1.4749,-1.4748,-1.4742,-1.4804,-1.5005,-1.5554,-1.582,-1.5465,-1.5323,-1.5186,-1.483,-1.4763,-1.4692,-1.455,-1.4332,-1.4118,-1.3975,-1.3757,-1.3615,-1.3615,-1.3472,-1.3396,-1.3396,-1.34,-1.34,-1.34,-1.3396,-1.3396,-1.3396,-1.34,-1.3543,-1.3829,-1.3757,-1.3615,-0.6871,-0.7305,-0.7386,-0.7459,-0.7524,-0.8454,-0.892,-0.8984,-0.9392,-0.9594,-0.9731,-0.9994,-1.0127,-1.0193,-1.0525,-1.0654,-1.0654,-1.0982,-1.1115,-1.1185,-1.1516,-1.1648,-1.1648,-1.1648,-1.1644,-1.1648,-1.1317,-1.1115,-1.1115,-1.085,-1.0721,-1.0721,-1.0721,-1.0721,-1.0721,-1.0721,-1.0721,-1.0721,-1.0721,-1.0721,-1.0721,-1.0721,-1.0721,-1.0721,-1.0982,-1.1115,-1.1115,-1.1512,-1.1846,-1.2177,-1.2243,-1.2375,-1.2704,-1.277,-1.277,0.0,-1.3169,0.0,0.0,0.0,0.0,0.0,0.0,0.0,0.0,-1.4338,-1.4473,-1.473,-1.48,-1.473,-1.474,-1.4735,-1.467,-1.4403,-1.4333,-1.4207,-1.394,-1.3875,-1.3875,-1.3875,-1.3901,-1.3989,-1.4258,-1.4376,-1.45,-1.4701,-1.4797,-1.4897,-1.4835,-1.491,-1.4835,-1.4479,-1.4407,-1.4261,-1.3975,-1.3825,-1.3829,-1.3761,-1.3472,-1.3253,-1.3253,-1.3039,-1.2828,-1.2828,-1.2828,-1.2828,-1.2824,-1.2828,-1.2828,-1.2824,-1.2828,-1.3039,-1.3543,-1.3472,-1.3253,-0.599,-0.6156,-0.6823,-0.7054,-0.7121,-0.7588,-0.7989,-0.8325,-0.8656,-0.9125,-0.9664,-0.9794,-0.9794,-0.9794,-1.0127,-1.0256,-1.0326,-1.0654,-1.0787,-1.0787,-1.0853,-1.0916,-1.092,-1.092,-1.092,-1.0916,-1.085,-1.0784,-1.0784,-1.0721,-1.0721,-1.0721,-1.0721,-1.0721,-1.0721,0.0,0.0,0.0,-1.0721,-1.0721,-1.0721,-1.0721,-1.0721,-1.0721,-1.0787,0.0,-1.0787,-1.1118,-1.1314,-1.1383,-1.1714,0.0,0.0,0.0,0.0,0.0,0.0,0.0,0.0,0.0,0.0,0.0,-1.3034,-1.3293,-1.3945,-1.401,-1.4006,-1.4076,-1.4071,-1.4071,-1.4076,-1.4076,-1.4071,-1.4006,-1.401,-1.3945,-1.3875,-1.3875,-1.3875,-1.3875,-1.402,-1.4191,-1.438,-1.4362,-1.4344,-1.4452,-1.4311,-1.4114,-1.4118,-1.4403,-1.4407,-1.4118,-1.4047,-1.39,-1.3472,-1.3396,-1.3325,-1.3111,-1.2968,-1.2896,-1.2896,-1.2824,-1.2753,-1.2757,-1.2757,-1.2757,-1.2757,-1.2757,-1.2757,-1.2757,-1.2757,-1.2824,-1.2968,-1.2968,-1.2896,-0.5525,-0.5604,-0.6213,-0.6449,0.0,-0.6853,-0.719,-0.7588,-0.8123,-0.8659,-0.9192,-0.9322,-0.9389,-0.9392,-0.9791,-0.9927,-0.9994,-1.0323,-1.0455,-1.0455,-1.0588,-1.0721,-1.0721,-1.0721,-1.0721,-1.0721,-1.0721,-1.0721,-1.0721,-1.0721,-1.0721,-1.0721,-1.0721,-1.0721,-1.0721,-1.0721,-1.0721,-1.0721,-1.0721,-1.0721,-1.0721,-1.0721,-1.0721,-1.0721,-1.0721,0.0,0.0,0.0,0.0,0.0,0.0,0.0,0.0,-1.2045,0.0,-1.2507,-1.2572,-1.2638,-1.277,-1.277,-1.277,-1.277,-1.277,-1.303,-1.3621,-1.3814,-1.3875,-1.3875,-1.3875,-1.3875,-1.3875,-1.3875,-1.3814,-1.3687,-1.3687,-1.3555,-1.3424,-1.3354,-1.3392,-1.3481,-1.3574,-1.3735,-1.4018,-1.3989,-1.3986,-1.4156,-1.4047,-1.39,-1.39,-1.4047,-1.4047,-1.3686,-1.3611,-1.3472,-1.3111,-1.3039,-1.3039,-1.2824,-1.2613,-1.2545,-1.2545,-1.2334,-1.2187,-1.2187,-1.2187,-1.2187,-1.2187,-1.2187,-1.2187,-1.2187,-1.2187,-1.2187,-1.2187,-1.233,-1.2474,-0.5127,-0.5257,-0.5608,-0.578,-0.5847,-0.625,-0.6587,-0.7051,-0.7724,0.0,0.0,-0.8784,-0.8917,-0.905,-0.9392,-0.9594,-0.9591,-0.9994,-1.0127,-1.019,-1.0459,-1.0654,-1.0717,-1.0721,-1.0721,-1.0721,-1.0721,-1.0721,-1.0721,-1.0721,-1.0721,-1.0721,-1.0721,-1.0721,-1.0721,-1.0721,-1.0721,-1.0721,-1.0721,-1.0721,-1.0721,-1.0721,-1.0721,-1.0721,-1.0721,-1.0721,-1.0721,-1.0721,-1.0853,-1.1052,-1.1115,-1.1317,-1.1648,-1.171,-1.1846,-1.2177,-1.2177,-1.2309,-1.2572,-1.2638,-1.2638,-1.2704,-1.2704,-1.2902,-1.3235,-1.356,-1.3682,-1.3682,-1.3744,-1.3678,-1.3678,-1.3678,-1.3617,-1.3301,-1.3301,-1.3169,-1.284,-1.2803,-1.2942,-1.3072,-1.3224,-1.3299,-1.3591,-1.3673,-1.3667,-1.3792,-1.3757,-1.3757,-1.3757,-1.3757,-1.3686,-1.3325,-1.3182,-1.3111,-1.2757,-1.2685,-1.2685,-1.2542,-1.2262,-1.2122,-1.2051,-1.1835,-1.1619,-1.1688,-1.1616,-1.1619,-1.1619,-1.1616,-1.1616,-1.1616,-1.1616,-1.1616,-1.1616,-1.1835,-1.2122,-0.4778,-0.4797,-0.5257,-0.5446,-0.5513,-0.5848,-0.6382,-0.6987,-0.739,-0.7794,-0.8192,-0.8189,-0.839,-0.8653,-0.905,-0.9186,-0.9186,-0.9594,-0.9927,-1.019,-1.0256,-1.0455,-1.0717,-1.0721,-1.0721,-1.0721,-1.0721,-1.0721,-1.0721,-1.0721,-1.0721,-1.0721,-1.0721,-1.0721,-1.0721,-1.0721,-1.0721,-1.0721,-1.0721,-1.0721,-1.0721,-1.0721,-1.0721,-1.0721,-1.0721,-1.0721,-1.0721,-1.0721,-1.0721,-1.0787,-1.0787,-1.0916,-1.1247,-1.1314,-1.1449,-1.1846,-1.1846,-1.1912,-1.1978,-1.1916,-1.2045,-1.2309,-1.2375,-1.251,-1.2836,-1.2902,-1.2968,-1.2968,-1.2964,-1.2964,-1.2968,-1.2964,-1.2968,-1.2902,-1.2906,-1.284,-1.2782,-1.2899,-1.3,-1.3053,-1.3376,-1.3493,-1.3578,-1.3699,-1.3642,-1.346,-1.3396,-1.3253,-1.3114,-1.3182,-1.3182,-1.2968,-1.2896,-1.2685,-1.2406,-1.2266,-1.2194,-1.1832,-1.176,-1.1691,-1.1763,-1.1691,-1.1616,-1.1616,-1.1616,-1.1616,-1.1616,-1.1616,-1.1616,-1.1616,-1.1616,-1.1616,-1.1616,-1.1691,-1.1691,-0.4384,-0.4465,-0.4852,-0.5042,-0.5109,-0.5512,-0.5912,-0.6382,-0.6585,-0.7054,-0.7724,-0.7791,-0.7989,-0.8323,-0.852,-0.8651,-0.8853,-0.9186,-0.9452,-0.9652,-1.0057,-1.0256,-1.0455,-1.0588,-1.0721,-1.0721,-1.0721,-1.0721,-1.0721,-1.0721,-1.0721,-1.0721,-1.0721,-1.0721,-1.0721,-1.0721,-1.0721,-1.0721,-1.0721,-1.0721,-1.0721,-1.0721,-1.0721,-1.0721,-1.0721,-1.0721,-1.0721,-1.0721,-1.0721,-1.0721,-1.0721,-1.0787,-1.0916,-1.092,-1.1118,-1.1449,-1.1449,-1.1582,-1.178,-1.1784,-1.1846,-1.2045,-1.2045,-1.2111,-1.2243,-1.2572,-1.277,-1.277,-1.277,-1.277,-1.277,-1.277,-1.2708,-1.2507,-1.2507,-1.248,-1.237,-1.244,-1.2564,-1.2742,-1.2909,-1.3044,-1.3133,-1.3207,-1.3257,-1.3043,-1.3039,-1.2896,-1.2545,-1.2621,-1.2689,-1.2545,-1.2474,-1.233,-1.1979,-1.1907,-1.1763,-1.1616,-1.1616,-1.1616,-1.1616,-1.1616,-1.1616,-1.1616,-1.1616,-1.1616,-1.1616,-1.1616,-1.1616,-1.1616,-1.1616,-1.1616,-1.1616,-1.1616,-1.1616,-0.4113,-0.4135,-0.4504,-0.4693,-0.4839,-0.5111,-0.5444,-0.5778,-0.5845,-0.6382,-0.7123,-0.7323,-0.7591,-0.7925,-0.8058,-0.8259,-0.852,-0.8853,-0.9047,-0.9183,-0.9718,-1.0057,-1.0193,-1.0455,-1.0654,-1.0717,-1.0721,-1.0721,-1.0721,-1.0721,-1.0721,-1.0721,-1.0721,-1.0721,-1.0721,-1.0721,-1.0721,-1.0721,-1.0721,-1.0721,-1.0721,-1.0721,-1.0721,-1.0721,-1.0721,-1.0721,-1.0721,-1.0721,-1.0721,-1.0721,-1.0721,-1.0721,-1.0721,-1.0721,-1.0853,-1.1049,-1.1052,-1.1251,-1.1516,-1.1578,-1.1582,-1.1648,-1.1644,-1.1714,-1.1846,-1.2243,-1.2572,-1.2572,-1.2507,-1.2572,-1.2507,-1.2572,-1.2441,-1.2243,-1.2177,-1.2113,-1.2,-1.206,-1.219,-1.2462,-1.2548,-1.2626,-1.2719,-1.2757,-1.2753,-1.2685,-1.2613,-1.2402,-1.2122,-1.2051,-1.2051,-1.2051,-1.2054,-1.1979,-1.1616,-1.1616,-1.1616,-1.1616,-1.1616,-1.1616,-1.1616,-1.1616,-1.1616,-1.1616,-1.1616,-1.1616,-1.1616,-1.1616,-1.1616,-1.1616,-1.1616,-1.1616,-1.1616,-1.1616,-1.1616,-0.4011,-0.4131,-0.4199,-0.4454,-0.4772,-0.4839,-0.5109,-0.5448,-0.5778,-0.5912,-0.6182,-0.6717,-0.7254,-0.7593,-0.7925,-0.8125,-0.8192,-0.852,-0.8784,-0.905,-0.9183,-0.9522,-1.0127,-1.0259,-1.0389,-1.0654,-1.0717,-1.0721,-1.0721,-1.0721,-1.0721,-1.0721,-1.0721,-1.0721,-1.0721,-1.0721,-1.0721,-1.0721,-1.0721,-1.0721,-1.0721,-1.0721,-1.0721,-1.0721,-1.0721,-1.0721,-1.0721,-1.0721,-1.0721,-1.0721,-1.0721,-1.0721,-1.0721,-1.0721,-1.0721,-1.0787,-1.0787,-1.0784,-1.0787,-1.0787,-1.0982,-1.1247,-1.1247,-1.1383,-1.1714,-1.1846,-1.1912,-1.1912,-1.1912,-1.1978,-1.1912,-1.1916,-1.1912,-1.1846,-1.1858,-1.1847,-1.1951,-1.2157,-1.2317,-1.2492,-1.2566,-1.2809,-1.2678,-1.2685,-1.2613,-1.2262,-1.2047,-1.1835,-1.1763,-1.1688,-1.1688,-1.1691,-1.1691,-1.1691,-1.1616,-1.1616,-1.1616,-1.1616,-1.1616,-1.1616,-1.1616,-1.1616,-1.1616,-1.1616,-1.1616,-1.1616,-1.1616,-1.1616,-1.1616,-1.1616,-1.1616,-1.1616,-1.1616,-1.1616,-1.1616,-0.3882,-0.4131,-0.4191,-0.4317,-0.4504,-0.4507,-0.4708,-0.5042,-0.5175,-0.5512,-0.5912,-0.6248,-0.665,-0.719,-0.7386,-0.7655,-0.8123,-0.8259,-0.8456,-0.8787,-0.8984,-0.925,-0.9588,-0.999,-1.0256,-1.0392,-1.0585,-1.0721,-1.0721,-1.0721,-1.0721,-1.0721,-1.0721,-1.0721,-1.0721,-1.0721,-1.0721,-1.0721,-1.0721,-1.0721,-1.0721,-1.0721,-1.0721,-1.0721,-1.0721,-1.0721,-1.0721,-1.0721,-1.0721,-1.0721,-1.0721,-1.0721,-1.0721,-1.0721,-1.0721,-1.0721,-1.0721,-1.0721,-1.0721,-1.0721,-1.0787,-1.092,-1.0916,-1.0982,-1.1118,-1.1185,-1.1185,-1.1185,-1.1516,-1.1784,-1.178,-1.1784,-1.1714,-1.1527,-1.1533,-1.1589,-1.1538,-1.1691,-1.185,-1.1927,-1.2005,-1.2115,-1.2115,-1.2115,-1.2047,-1.1835,-1.1691,-1.1616,-1.1616,-1.1616,-1.1616,-1.1616,-1.1616,-1.1616,-1.1616,-1.1616,-1.1616,-1.1616,-1.1616,-1.1616,-1.1616,-1.1616,-1.1616,-1.1616,-1.1616,-1.1616,-1.1616,-1.1616,-1.1616,-1.1616,-1.1616,-1.1616,-1.1616,-1.1616,-1.1616,-0.3615,-0.3939,-0.4143,-0.4266,-0.4307,-0.4307,-0.4441,-0.464,-0.4774,-0.5108,-0.5577,-0.5778,-0.618,-0.665,-0.6918,-0.7319,-0.7927,-0.8058,-0.8256,-0.8587,-0.8851,-0.8981,-0.9117,-0.9585,-0.999,-1.0193,-1.0455,-1.0588,-1.0717,-1.0721,-1.0721,-1.0721,-1.0721,-1.0721,-1.0721,-1.0721,-1.0721,-1.0721,-1.0721,-1.0721,-1.0721,-1.0721,-1.0721,-1.0721,-1.0721,-1.0721,-1.0721,-1.0721,-1.0721,-1.0721,-1.0721,-1.0721,-1.0721,-1.0721,-1.0721,-1.0721,-1.0721,-1.0721,-1.0721,-1.0721,-1.0721,-1.0721,-1.0721,-1.0721,-1.0721,-1.0721,-1.0721,-1.0787,-1.1185,-1.1449,-1.1516,-1.1516,-1.1398,-1.1178,-1.1227,-1.1288,-1.1272,-1.1331,-1.1514,-1.1589,-1.1685,-1.1616,-1.1616,-1.1616,-1.1616,-1.1619,-1.1616,-1.1616,-1.1616,-1.1616,-1.1616,-1.1616,-1.1616,-1.1616,-1.1616,-1.1616,-1.1616,-1.1616,-1.1616,-1.1616,-1.1616,-1.1616,-1.1616,-1.1616,-1.1616,-1.1616,-1.1616,-1.1616,-1.1616,-1.1616,-1.1616,-1.1616,-1.1616,-1.1616,-1.1616,-0.3265,-0.3682,-0.4119,-0.4303,-0.4307,-0.4307,-0.4307,-0.4374,-0.464,-0.4839,-0.4973,-0.5577,-0.5912,-0.6048,-0.6648,-0.7187,-0.7526,-0.7927,-0.8256,-0.8587,-0.8587,-0.8787,-0.905,-0.9117,-0.9519,-1.0127,-1.0259,-1.0389,-1.0721,-1.0721,-1.0721,-1.0721,-1.0721,-1.0721,-1.0721,-1.0721,-1.0721,-1.0721,-1.0721,-1.0721,-1.0721,-1.0721,-1.0721,-1.0721,-1.0721,-1.0721,-1.0721,-1.0721,-1.0721,-1.0721,-1.0721,-1.0721,-1.0721,-1.0721,-1.0721,-1.0721,-1.0721,-1.0721,-1.0721,-1.0721,-1.0721,-1.0721,-1.0721,-1.0721,-1.0721,-1.0721,-1.0721,-1.0721,-1.0787,-1.085,-1.0853,-1.092,-1.0912,-1.0904,-1.0941,-1.1087,-1.1345,-1.1389,-1.146,-1.1582,-1.1616,-1.1616,-1.1616,-1.1616,-1.1616,-1.1616,-1.1616,-1.1616,-1.1616,-1.1616,-1.1616,-1.1616,-1.1616,-1.1616,-1.1616,-1.1616,-1.1616,-1.1616,-1.1616,-1.1616,-1.1616,-1.1616,-1.1616,-1.1616,-1.1616,-1.1616,-1.1616,-1.1616,-1.1616,-1.1616,-1.1616,-1.1616,-1.1616,-1.1616,-1.1616,-0.2888,-0.3297,-0.3791,-0.3969,-0.4037,-0.4239,-0.4307,-0.4307,-0.4441,-0.4574,-0.4841,-0.5109,-0.5443,-0.5912,-0.618,-0.665,-0.719,-0.7593,-0.7925,-0.8259,-0.852,-0.8653,-0.8784,-0.8984,-0.9319,-0.9861,-1.0123,-1.0389,-1.0654,-1.0721,-1.0721,-1.0721,-1.0721,-1.0721,-1.0721,-1.0721,-1.0721,-1.0721,-1.0721,-1.0721,-1.0721,-1.0721,-1.0721,-1.0721,-1.0721,-1.0721,-1.0721,-1.0721,-1.0721,-1.0721,-1.0721,-1.0721,-1.0721,-1.0721,-1.0721,-1.0721,-1.0721,-1.0721,-1.0721,-1.0721,-1.0721,-1.0721,-1.0721,-1.0721,-1.0721,-1.0721,-1.0721,-1.0721,-1.0721,-1.0721,-1.0721,-1.0721,-1.0785,-1.0857,-1.1033,-1.1168,-1.1352,-1.1474,-1.1562,-1.1606,-1.1616,-1.1616,-1.1616,-1.1616,-1.1616,-1.1616,-1.1616,-1.1616,-1.1616,-1.1616,-1.1616,-1.1616,-1.1616,-1.1616,-1.1616,-1.1616,-1.1616,-1.1616,-1.1616,-1.1616,-1.1616,-1.1616,-1.1616,-1.1616,-1.1616,-1.1616,-1.1616,-1.1616,-1.1616,-1.1616,-1.1616,-1.1616,-1.1616,-1.1616,-1.1616,-0.2659,-0.2976,-0.3392,-0.3699,-0.3834,-0.4037,-0.4239,-0.4307,-0.4307,-0.444,-0.4641,-0.4774,-0.5175,-0.5713,-0.5845,-0.6248,-0.6853,-0.7257,-0.7724,-0.8123,-0.8454,-0.8587,-0.8653,-0.8851,-0.912,-0.9525,-0.999,-1.0389,-1.0654,-1.0721,-1.0721,-1.0721,-1.0721,-1.0721,-1.0721,-1.0721,-1.0721,-1.0721,-1.0721,-1.0721,-1.0721,-1.0721,-1.0721,-1.0721,-1.0721,-1.0721,-1.0721,-1.0721,-1.0721,-1.0721,-1.0721,-1.0721,-1.0721,-1.0721,-1.0721,-1.0721,-1.0721,-1.0721,-1.0721,-1.0721,-1.0721,-1.0721,-1.0721,-1.0721,-1.0721,-1.0721,-1.0721,-1.0721,-1.0721,-1.0721,-1.0731,-1.0765,-1.0856,-1.1002,-1.1148,-1.1297,-1.1447,-1.1555,-1.1606,-1.1616,-1.1616,-1.1616,-1.1616,-1.1616,-1.1616,-1.1616,-1.1616,-1.1616,-1.1616,-1.1616,-1.1616,-1.1616,-1.1616,-1.1616,-1.1616,-1.1616,-1.1616,-1.1616,-1.1616,-1.1616,-1.1616,-1.1616,-1.1616,-1.1616,-1.1616,-1.1616,-1.1616,-1.1616,-1.1616,-1.1616,-1.1616,-1.1616,-1.1616,-1.1616,-1.1616,-0.2579,-0.2656,-0.2991,-0.3431,-0.3701,-0.3834,-0.4037,-0.4239,-0.4307,-0.4307,-0.4372,-0.4641,-0.4977,-0.5446,-0.5713,-0.6115,-0.6587,-0.719,-0.7658,-0.8058,-0.839,-0.8587,-0.8587,-0.8653,-0.8853,-0.9253,-0.9854,-1.0389,-1.0651,-1.0721,-1.0721,-1.0721,-1.0721,-1.0721,-1.0721,-1.0721,-1.0721,-1.0721,-1.0721,-1.0721,-1.0721,-1.0721,-1.0721,-1.0721,-1.0721,-1.0721,-1.0721,-1.0721,-1.0721,-1.0721,-1.0721,-1.0721,-1.0721,-1.0721,-1.0721,-1.0721,-1.0721,-1.0721,-1.0721,-1.0721,-1.0721,-1.0721,-1.0721,-1.0721,-1.0721,-1.0721,-1.0721,-1.0721,-1.0721,-1.0721,-1.0744,-1.086,-1.0995,-1.1145,-1.1274,-1.1426,-1.1562,-1.1613,-1.1616,-1.1616,-1.1616,-1.1616,-1.1616,-1.1616,-1.1616,-1.1616,-1.1616,-1.1616,-1.1616,-1.1616,-1.1616,-1.1616,-1.1616,-1.1616,-1.1616,-1.1616,-1.1616,-1.1616,-1.1616,-1.1616,-1.1616,-1.1616,-1.1616,-1.1616,-1.1616,-1.1616,-1.1616,-1.1616,-1.1616,-1.1616,-1.1616,-1.1616,-1.1616,-1.1616,-1.1616,-0.2258,-0.2331,-0.2661,-0.3096,-0.343,-0.3699,-0.3969,-0.4307,-0.4307,-0.4307,-0.4307,-0.4441,-0.4777,-0.5314,-0.5513,-0.5917,-0.652,-0.6987,-0.7323,-0.7727,-0.8058,-0.839,-0.8587,-0.8587,-0.8923,-0.9522,-0.999,-1.0389,-1.0654,-1.0721,-1.0721,-1.0721,-1.0721,-1.0721,-1.0721,-1.0721,-1.0721,-1.0721,-1.0721,-1.0721,-1.0721,-1.0721,-1.0721,-1.0721,-1.0721,-1.0721,-1.0721,-1.0721,-1.0721,-1.0721,-1.0721,-1.0721,-1.0721,-1.0721,-1.0721,-1.0721,-1.0721,-1.0721,-1.0721,-1.0721,-1.0721,-1.0721,-1.0721,-1.0721,-1.0721,-1.0721,-1.0721,-1.0721,-1.0721,-1.0721,-1.0758,-1.0955,-1.1104,-1.1227,-1.1301,-1.1457,-1.1586,-1.1616,-1.1616,-1.1616,-1.1616,-1.1616,-1.1616,-1.1616,-1.1616,-1.1616,-1.1616,-1.1616,-1.1616,-1.1616,-1.1616,-1.1616,-1.1616,-1.1616,-1.1616,-1.1616,-1.1616,-1.1616,-1.1616,-1.1616,-1.1616,-1.1616,-1.1616,-1.1616,-1.1616,-1.1616,-1.1616,-1.1616,-1.1616,-1.1616,-1.1616,-1.1616,-1.1616,-1.1616,-1.1616,-0.2129,-0.2135,-0.2396,-0.2693,-0.3027,-0.3432,-0.3767,-0.4104,-0.4239,-0.4307,-0.4307,-0.4307,-0.4574,-0.5111,-0.5312,-0.5716,-0.625,-0.6652,-0.7056,-0.7526,-0.7925,-0.8256,-0.8587,-0.8587,-0.8853,-0.9455,-0.9861,-1.019,-1.0522,-1.0654,-1.0721,-1.0721,-1.0721,-1.0721,-1.0721,-1.0721,-1.0721,-1.0721,-1.0721,-1.0721,-1.0721,-1.0721,-1.0721,-1.0721,-1.0721,-1.0721,-1.0721,-1.0721,-1.0721,-1.0721,-1.0721,-1.0721,-1.0721,-1.0721,-1.0721,-1.0721,-1.0721,-1.0721,-1.0721,-1.0721,-1.0721,-1.0721,-1.0721,-1.0721,-1.0721,-1.0721,-1.0721,-1.0721,-1.0721,-1.0744,-1.0829,-1.1012,-1.1175,-1.1246,-1.1389,-1.1508,-1.1603,-1.1616,-1.1616,-1.1616,-1.1616,-1.1616,-1.1616,-1.1616,-1.1616,-1.1616,-1.1616,-1.1616,-1.1616,-1.1616,-1.1616,-1.1616,-1.1616,-1.1616,-1.1616,-1.1616,-1.1616,-1.1616,-1.1616,-1.1616,-1.1616,-1.1616,-1.1616,-1.1616,-1.1616,-1.1616,-1.1616,-1.1616,-1.1616,-1.1616,-1.1616,-1.1616,-1.1616,-1.1616,-1.1616,-0.2129,-0.2136,-0.2196,-0.2425,-0.276,-0.3096,-0.3497,-0.3834,-0.4171,-0.4307,-0.4307,-0.4307,-0.4508,-0.4841,-0.5245,-0.5647,-0.5912,-0.6386,-0.6924,-0.7457,-0.7858,-0.8189,-0.8587,-0.8587,-0.8787,-0.9186,-0.9525,-0.9857,-1.0256,-1.0522,-1.0721,-1.0717,-1.0721,-1.0721,-1.0721,-1.0721,-1.0721,-1.0721,-1.0721,-1.0721,-1.0721,-1.0721,-1.0721,-1.0721,-1.0721,-1.0721,-1.0721,-1.0721,-1.0721,-1.0721,-1.0721,-1.0721,-1.0721,-1.0721,-1.0721,-1.0721,-1.0721,-1.0721,-1.0721,-1.0721,-1.0721,-1.0721,-1.0721,-1.0721,-1.0721,-1.0721,-1.0721,-1.0721,-1.0721,-1.0778,-1.0917,-1.1073,-1.1223,-1.1389,-1.1514,-1.1596,-1.1613,-1.1616,-1.1616,-1.1616,-1.1616,-1.1616,-1.1616,-1.1616,-1.1616,-1.1616,-1.1616,-1.1616,-1.1616,-1.1616,-1.1616,-1.1616,-1.1616,-1.1616,-1.1616,-1.1616,-1.1616,-1.1616,-1.1616,-1.1616,-1.1616,-1.1616,-1.1616,-1.1616,-1.1616,-1.1616,-1.1616,-1.1616,-1.1616,-1.1616,-1.1616,-1.1616,-1.1616,-1.1616,-1.1616,-0.2129,-0.2135,-0.2196,-0.2357,-0.2761,-0.3027,-0.343,-0.3834,-0.4171,-0.4307,-0.4307,-0.4307,-0.4441,-0.4839,-0.5245,-0.558,-0.5914,-0.6317,-0.6855,-0.7393,-0.7591,-0.8056,-0.852,-0.8587,-0.8784,-0.905,-0.9253,-0.9588,-1.019,-1.0256,-1.0459,-1.0721,-1.0717,-1.0721,-1.0721,-1.0721,-1.0721,-1.0721,-1.0721,-1.0721,-1.0721,-1.0721,-1.0721,-1.0721,-1.0721,-1.0721,-1.0721,-1.0721,-1.0721,-1.0721,-1.0721,-1.0721,-1.0721,-1.0721,-1.0721,-1.0721,-1.0721,-1.0721,-1.0721,-1.0721,-1.0721,-1.0721,-1.0721,-1.0721,-1.0721,-1.0721,-1.0721,-1.0721,-1.0721,-1.0785,-1.0934,-1.109,-1.1277,-1.1511,-1.1592,-1.1616,-1.1616,-1.1616,-1.1616,-1.1616,-1.1616,-1.1616,-1.1616,-1.1616,-1.1616,-1.1616,-1.1616,-1.1616,-1.1616,-1.1616,-1.1616,-1.1616,-1.1616,-1.1616,-1.1616,-1.1616,-1.1616,-1.1616,-1.1616,-1.1616,-1.1616,-1.1616,-1.1616,-1.1616,-1.1616,-1.1616,-1.1616,-1.1616,-1.1616,-1.1616,-1.1616,-1.1616,-1.1616,-1.1616,-1.1616,-0.2052,-0.2133,-0.2182,-0.2277,-0.2558,-0.3027,-0.3362,-0.3632,-0.4104,-0.4307,-0.4307,-0.4307,-0.4372,-0.4641,-0.5111,-0.5513,-0.5714,-0.6252,-0.6857,-0.7457,-0.7858,-0.8256,-0.852,-0.8587,-0.872,-0.8851,-0.905,-0.9316,-0.9718,-1.0057,-1.0326,-1.0455,-1.0651,-1.0721,-1.0721,-1.0721,-1.0721,-1.0721,-1.0721,-1.0721,-1.0721,-1.0721,-1.0721,-1.0721,-1.0721,-1.0721,-1.0721,-1.0721,-1.0721,-1.0721,-1.0721,-1.0721,-1.0721,-1.0721,-1.0721,-1.0721,-1.0721,-1.0721,-1.0721,-1.0721,-1.0721,-1.0721,-1.0721,-1.0721,-1.0721,-1.0721,-1.0721,-1.0721,-1.0721,-1.0829,-1.1026,-1.1223,-1.1419,-1.1575,-1.1616,-1.1616,-1.1616,-1.1616,-1.1616,-1.1616,-1.1616,-1.1616,-1.1616,-1.1616,-1.1616,-1.1616,-1.1616,-1.1616,-1.1616,-1.1616,-1.1616,-1.1616,-1.1616,-1.1616,-1.1616,-1.1616,-1.1616,-1.1616,-1.1616,-1.1616,-1.1616,-1.1616,-1.1616,-1.1616,-1.1616,-1.1616,-1.1616,-1.1616,-1.1616,-1.1616,-1.1616,-1.1616,-1.1616,-1.1616,-1.1616,-0.2036,-0.2131,-0.2097,-0.2127,-0.2286,-0.2893,-0.3228,-0.3362,-0.3969,-0.4307,-0.4307,-0.4307,-0.4374,-0.4374,-0.5112,-0.5448,-0.5515,-0.6185,-0.6855,-0.7524,-0.8123,-0.8587,-0.8587,-0.8587,-0.8587,-0.8653,-0.8917,-0.905,-0.9316,-0.9788,-1.0127,-1.0259,-1.0522,-1.0651,-1.0717,-1.0721,-1.0721,-1.0721,-1.0721,-1.0721,-1.0721,-1.0721,-1.0721,-1.0721,-1.0721,-1.0721,-1.0721,-1.0721,-1.0721,-1.0721,-1.0721,-1.0721,-1.0721,-1.0721,-1.0721,-1.0721,-1.0721,-1.0721,-1.0721,-1.0721,-1.0721,-1.0721,-1.0721,-1.0721,-1.0721,-1.0721,-1.0721,-1.0721,-1.0734,-1.0904,-1.1158,-1.144,-1.1565,-1.1616,-1.1616,-1.1616,-1.1616,-1.1616,-1.1616,-1.1616,-1.1616,-1.1616,-1.1616,-1.1616,-1.1616,-1.1616,-1.1616,-1.1616,-1.1616,-1.1616,-1.1616,-1.1616,-1.1616,-1.1616,-1.1616,-1.1616,-1.1616,-1.1616,-1.1616,-1.1616,-1.1616,-1.1616,-1.1616,-1.1616,-1.1616,-1.1616,-1.1616,-1.1616,-1.1616,-1.1616,-1.1616,-1.1616,-1.1616,-1.1616,-1.1616,-0.2036,-0.2131,-0.2097,-0.2127,-0.2286,-0.2894,-0.3227,-0.3295,-0.3969,-0.4307,-0.4307,-0.4307,-0.4441,-0.4707,-0.5178,-0.558,-0.578,-0.6317,-0.6855,-0.7526,-0.8256,-0.8587,-0.8587,-0.8587,-0.8587,-0.8653,-0.8653,-0.8853,-0.9117,-0.9316,-0.9655,-1.0123,-1.0256,-1.0455,-1.0654,-1.0721,-1.0721,-1.0721,-1.0721,-1.0721,-1.0721,-1.0721,-1.0721,-1.0721,-1.0721,-1.0721,-1.0721,-1.0721,-1.0721,-1.0721,-1.0721,-1.0721,-1.0721,-1.0721,-1.0721,-1.0721,-1.0721,-1.0721,-1.0721,-1.0721,-1.0721,-1.0721,-1.0721,-1.0721,-1.0721,-1.0721,-1.0721,-1.0741,-1.0829,-1.1012,-1.1287,-1.1501,-1.1599,-1.1616,-1.1616,-1.1616,-1.1616,-1.1616,-1.1616,-1.1616,-1.1616,-1.1616,-1.1616,-1.1616,-1.1616,-1.1616,-1.1616,-1.1616,-1.1616,-1.1616,-1.1616,-1.1616,-1.1616,-1.1616,-1.1616,-1.1616,-1.1616,-1.1616,-1.1616,-1.1616,-1.1616,-1.1616,-1.1616,-1.1616,-1.1616,-1.1616,-1.1616,-1.1616,-1.1616,-1.1616,-1.1616,-1.1616,-1.1616,-1.1616,-1.1616,-0.2024,-0.2129,-0.2081,-0.2114,-0.2285,-0.2894,-0.3227,-0.3362,-0.3969,-0.4307,-0.4307,-0.4307,-0.4507,-0.4839,-0.5245,-0.558,-0.6049,-0.6654,-0.7125,-0.7658,-0.8256,-0.8587,-0.8587,-0.8587,-0.8587,-0.8587,-0.8587,-0.872,-0.8853,-0.905,-0.9316,-0.9721,-0.999,-1.0256,-1.0459,-1.0591,-1.0721,-1.0721,-1.0721,-1.0721,-1.0721,-1.0721,-1.0721,-1.0721,-1.0721,-1.0721,-1.0721,-1.0721,-1.0721,-1.0721,-1.0721,-1.0721,-1.0721,-1.0721,-1.0721,-1.0721,-1.0721,-1.0721,-1.0721,-1.0721,-1.0721,-1.0721,-1.0721,-1.0721,-1.0721,-1.0721,-1.0721,-1.0751,-1.087,-1.1067,-1.1355,-1.1528,-1.1603,-1.1616,-1.1616,-1.1616,-1.1616,-1.1616,-1.1616,-1.1616,-1.1616,-1.1616,-1.1616,-1.1616,-1.1616,-1.1616,-1.1616,-1.1616,-1.1616,-1.1616,-1.1616,-1.1616,-1.1616,-1.1616,-1.1616,-1.1616,-1.1616,-1.1616,-1.1616,-1.1616,-1.1616,-1.1616,-1.1616,-1.1616,-1.1616,-1.1616,-1.1616,-1.1616,-1.1616,-1.1616,-1.1616,-1.1616,-1.1616,-1.1616,-1.1616,-0.2074,-0.2128,-0.2129,-0.2164,-0.2351,-0.296,-0.3228,-0.343,-0.4037,-0.4307,-0.4307,-0.4307,-0.4508,-0.491,-0.5245,-0.558,-0.6183,-0.6922,-0.7459,-0.7593,-0.8256,-0.8587,-0.8587,-0.8587,-0.8587,-0.8587,-0.8587,-0.8653,-0.872,-0.8851,-0.905,-0.925,-0.9655,-0.999,-1.0123,-1.0459,-1.0588,-1.0588,-1.0654,-1.0721,-1.0721,-1.0721,-1.0721,-1.0721,-1.0721,-1.0721,-1.0721,-1.0721,-1.0721,-1.0721,-1.0721,-1.0721,-1.0721,-1.0721,-1.0721,-1.0721,-1.0721,-1.0721,-1.0721,-1.0721,-1.0721,-1.0721,-1.0721,-1.0721,-1.0721,-1.0721,-1.0721,-1.0782,-1.0894,-1.1124,-1.1389,-1.1538,-1.1609,-1.1616,-1.1616,-1.1616,-1.1616,-1.1616,-1.1616,-1.1616,-1.1616,-1.1616,-1.1616,-1.1616,-1.1616,-1.1616,-1.1616,-1.1616,-1.1616,-1.1616,-1.1616,-1.1616,-1.1616,-1.1616,-1.1616,-1.1616,-1.1616,-1.1616,-1.1616,-1.1616,-1.1616,-1.1616,-1.1616,-1.1616,-1.1616,-1.1616,-1.1616,-1.1616,-1.1616,-1.1616,-1.1616,-1.1616,-1.1616,-1.1616,-1.1616,-0.2011,-0.2129,-0.2129,-0.2295,-0.2621,-0.3027,-0.3362,-0.3767,-0.4104,-0.4307,-0.4307,-0.4307,-0.4642,-0.5178,-0.5312,-0.5781,-0.6384,-0.7125,-0.7529,-0.766,-0.8256,-0.8587,-0.8587,-0.8587,-0.8587,-0.8587,-0.8587,-0.8587,-0.8587,-0.8653,-0.8853,-0.9053,-0.9253,-0.9452,-0.9791,-1.0127,-1.0326,-1.0392,-1.0522,-1.0654,-1.0717,-1.0721,-1.0721,-1.0721,-1.0721,-1.0721,-1.0721,-1.0721,-1.0721,-1.0721,-1.0721,-1.0721,-1.0721,-1.0721,-1.0721,-1.0721,-1.0721,-1.0721,-1.0721,-1.0721,-1.0721,-1.0721,-1.0721,-1.0721,-1.0721,-1.0724,-1.0738,-1.0819,-1.0989,-1.1243,-1.1541,-1.1603,-1.1613,-1.1616,-1.1616,-1.1616,-1.1616,-1.1616,-1.1616,-1.1616,-1.1616,-1.1616,-1.1616,-1.1616,-1.1616,-1.1616,-1.1616,-1.1616,-1.1616,-1.1616,-1.1616,-1.1616,-1.1616,-1.1616,-1.1616,-1.1616,-1.1616,-1.1616,-1.1616,-1.1616,-1.1616,-1.1616,-1.1616,-1.1616,-1.1616,-1.1616,-1.1616,-1.1616,-1.1616,-1.1616,-1.1616,-1.1616,-1.1616,-1.1616,-1.1616,-0.2074,-0.2128,-0.2129,-0.2362,-0.2686,-0.3028,-0.343,-0.3834,-0.4171,-0.4307,-0.4307,-0.4307,-0.471,-0.5247,-0.5381,-0.5783,-0.652,-0.7192,-0.7459,-0.766,-0.8256,-0.8587,-0.8587,-0.8587,-0.8587,-0.8587,-0.8587,-0.8587,-0.8587,-0.8587,-0.872,-0.8851,-0.8984,-0.9186,-0.9455,-0.9791,-0.9994,-1.0193,-1.0389,-1.0522,-1.0651,-1.0721,-1.0721,-1.0721,-1.0721,-1.0721,-1.0721,-1.0721,-1.0721,-1.0721,-1.0721,-1.0721,-1.0721,-1.0721,-1.0721,-1.0721,-1.0721,-1.0721,-1.0721,-1.0721,-1.0721,-1.0721,-1.0721,-1.0721,-1.0721,-1.0731,-1.0782,-1.0941,-1.1033,-1.1287,-1.1579,-1.1613,-1.1616,-1.1616,-1.1616,-1.1616,-1.1616,-1.1616,-1.1616,-1.1616,-1.1616,-1.1616,-1.1616,-1.1616,-1.1616,-1.1616,-1.1616,-1.1616,-1.1616,-1.1616,-1.1616,-1.1616,-1.1616,-1.1616,-1.1616,-1.1616,-1.1616,-1.1616,-1.1616,-1.1616,-1.1616,-1.1616,-1.1616,-1.1616,-1.1616,-1.1616,-1.1616,-1.1616,-1.1616,-1.1616,-1.1616,-1.1616,-1.1616,-1.1616,-1.1616,-0.2011,-0.2129,-0.2194,-0.2426,-0.282,-0.3163,-0.3564,-0.3902,-0.4171,-0.4307,-0.4307,-0.4441,-0.4777,-0.5314,-0.5649,-0.5984,-0.6652,-0.7257,-0.7526,-0.7794,-0.8256,-0.8587,-0.8587,-0.8587,-0.8587,-0.8587,-0.8587,-0.8587,-0.8587,-0.8587,-0.8587,-0.8653,-0.892,-0.8984,-0.912,-0.9389,-0.9724,-0.9924,-1.0193,-1.0389,-1.0654,-1.0721,-1.0721,-1.0721,-1.0721,-1.0721,-1.0721,-1.0721,-1.0721,-1.0721,-1.0721,-1.0721,-1.0721,-1.0721,-1.0721,-1.0721,-1.0721,-1.0721,-1.0721,-1.0721,-1.0721,-1.0721,-1.0721,-1.0721,-1.0721,-1.0748,-1.0833,-1.1087,-1.1237,-1.129,-1.1555,-1.1616,-1.1616,-1.1616,-1.1616,-1.1616,-1.1616,-1.1616,-1.1616,-1.1616,-1.1616,-1.1616,-1.1616,-1.1616,-1.1616,-1.1616,-1.1616,-1.1616,-1.1616,-1.1616,-1.1616,-1.1616,-1.1616,-1.1616,-1.1616,-1.1616,-1.1616,-1.1616,-1.1616,-1.1616,-1.1616,-1.1616,-1.1616,-1.1616,-1.1616,-1.1616,-1.1616,-1.1616,-1.1616,-1.1616,-1.1616,-1.1616,-1.1616,-1.1616,-1.1616,-0.2011,-0.2129,-0.2452,-0.2755,-0.3155,-0.3565,-0.3902,-0.4239,-0.4307,-0.4307,-0.4307,-0.4641,-0.4977,-0.5446,-0.6118,-0.6518,-0.692,-0.7323,-0.766,-0.7992,-0.839,-0.8587,-0.8587,-0.8587,-0.8587,-0.8587,-0.8587,-0.8587,-0.8587,-0.8587,-0.8587,-0.8653,-0.8653,-0.8653,-0.8787,-0.9053,-0.9186,-0.9319,-0.9857,-1.0326,-1.0654,-1.0721,-1.0721,-1.0721,-1.0721,-1.0721,-1.0721,-1.0721,-1.0721,-1.0721,-1.0721,-1.0721,-1.0721,-1.0721,-1.0721,-1.0721,-1.0721,-1.0721,-1.0721,-1.0721,-1.0721,-1.0721,-1.0721,-1.0721,-1.0721,-1.0734,-1.0839,-1.1124,-1.1231,-1.1284,-1.1518,-1.1609,-1.1616,-1.1616,-1.1616,-1.1616,-1.1616,-1.1616,-1.1616,-1.1616,-1.1616,-1.1616,-1.1616,-1.1616,-1.1616,-1.1616,-1.1616,-1.1616,-1.1616,-1.1616,-1.1616,-1.1616,-1.1616,-1.1616,-1.1616,-1.1616,-1.1616,-1.1616,-1.1616,-1.1616,-1.1616,-1.1616,-1.1616,-1.1616,-1.1616,-1.1616,-1.1616,-1.1616,-1.1616,-1.1616,-1.1616,-1.1616,-1.1616,-1.1616,-1.1616,-0.2011,-0.2128,-0.2452,-0.282,-0.3224,-0.3632,-0.3969,-0.4239,-0.4307,-0.4307,-0.4374,-0.464,-0.5109,-0.5713,-0.625,-0.6654,-0.6987,-0.7323,-0.7727,-0.8125,-0.8454,-0.8587,-0.8587,-0.8587,-0.8587,-0.8587,-0.8587,-0.8587,-0.8587,-0.8587,-0.8587,-0.8587,-0.8587,-0.8587,-0.8587,-0.872,-0.892,-0.9253,-0.9788,-1.0323,-1.0588,-1.0721,-1.0721,-1.0721,-1.0721,-1.0721,-1.0721,-1.0721,-1.0721,-1.0721,-1.0721,-1.0721,-1.0721,-1.0721,-1.0721,-1.0721,-1.0721,-1.0721,-1.0721,-1.0721,-1.0721,-1.0721,-1.0721,-1.0721,-1.0721,-1.0731,-1.0799,-1.1016,-1.1118,-1.127,-1.146,-1.1565,-1.1606,-1.1616,-1.1616,-1.1616,-1.1616,-1.1616,-1.1616,-1.1616,-1.1616,-1.1616,-1.1616,-1.1616,-1.1616,-1.1616,-1.1616,-1.1616,-1.1616,-1.1616,-1.1616,-1.1616,-1.1616,-1.1616,-1.1616,-1.1616,-1.1616,-1.1616,-1.1616,-1.1616,-1.1616,-1.1616,-1.1616,-1.1616,-1.1616,-1.1616,-1.1616,-1.1616,-1.1616,-1.1616,-1.1616,-1.1616,-1.1616,-1.1616,-1.1616,-0.2074,-0.2257,-0.2581,-0.2951,-0.3361,-0.3767,-0.4037,-0.4307,-0.4307,-0.4374,-0.4507,-0.4908,-0.551,-0.6048,-0.6451,-0.6855,-0.7123,-0.7524,-0.7858,-0.8189,-0.8454,-0.8587,-0.8587,-0.8587,-0.8587,-0.8587,-0.8587,-0.8587,-0.8587,-0.8587,-0.8587,-0.8587,-0.8587,-0.8587,-0.8587,-0.8653,-0.8787,-0.9117,-0.9721,-1.019,-1.0522,-1.0654,-1.0721,-1.0721,-1.0721,-1.0721,-1.0721,-1.0721,-1.0721,-1.0721,-1.0721,-1.0721,-1.0721,-1.0721,-1.0721,-1.0721,-1.0721,-1.0721,-1.0721,-1.0721,-1.0721,-1.0721,-1.0721,-1.0721,-1.0721,-1.0724,-1.0789,-1.0887,-1.1087,-1.1226,-1.1379,-1.1531,-1.1596,-1.1616,-1.1616,-1.1616,-1.1616,-1.1616,-1.1616,-1.1616,-1.1616,-1.1616,-1.1616,-1.1616,-1.1616,-1.1616,-1.1616,-1.1616,-1.1616,-1.1616,-1.1616,-1.1616,-1.1616,-1.1616,-1.1616,-1.1616,-1.1616,-1.1616,-1.1616,-1.1616,-1.1616,-1.1616,-1.1616,-1.1616,-1.1616,-1.1616,-1.1616,-1.1616,-1.1616,-1.1616,-1.1616,-1.1616,-1.1616,-1.1616,-1.1616,-0.2199,-0.2581,-0.2903,-0.3345,-0.3767,-0.4104,-0.4307,-0.4307,-0.4307,-0.4508,-0.4841,-0.5444,-0.5981,-0.6451,-0.6719,-0.7123,-0.7459,-0.7858,-0.8189,-0.8454,-0.8587,-0.8587,-0.8587,-0.8587,-0.8653,-0.8653,-0.8653,-0.8653,-0.8653,-0.879,-0.872,-0.8587,-0.8587,-0.8587,-0.8587,-0.8587,-0.8787,-0.912,-0.9591,-0.9927,-1.0256,-1.0522,-1.0721,-1.0721,-1.0721,-1.0721,-1.0721,-1.0721,-1.0721,-1.0721,-1.0721,-1.0721,-1.0721,-1.0721,-1.0721,-1.0721,-1.0721,-1.0721,-1.0721,-1.0721,-1.0721,-1.0721,-1.0721,-1.0721,-1.0721,-1.0721,-1.0795,-1.0853,-1.1056,-1.1209,-1.1365,-1.1514,-1.1603,-1.1616,-1.1616,-1.1616,-1.1616,-1.1616,-1.1616,-1.1616,-1.1616,-1.1616,-1.1616,-1.1616,-1.1616,-1.1616,-1.1616,-1.1616,-1.1616,-1.1616,-1.1616,-1.1616,-1.1616,-1.1616,-1.1616,-1.1616,-1.1616,-1.1616,-1.1616,-1.1616,-1.1616,-1.1616,-1.1616,-1.1616,-1.1616,-1.1616,-1.1616,-1.1616,-1.1616,-1.1616,-1.1616,-1.1616,-1.1616,-1.1616,-1.1616,-0.2512,-0.2903,-0.3288,-0.354,-0.3834,-0.4171,-0.4307,-0.4307,-0.4307,-0.4642,-0.5178,-0.5711,-0.6115,-0.6518,-0.6853,-0.719,-0.7526,-0.7925,-0.8256,-0.852,-0.8587,-0.8587,-0.8587,-0.8653,-0.8717,-0.8853,-0.8917,-0.9053,-0.9259,-0.9192,-0.9053,-0.892,-0.872,-0.8587,-0.8587,-0.8653,-0.8787,-0.912,-0.9458,-0.9861,-1.019,-1.0522,-1.0721,-1.0721,-1.0721,-1.0721,-1.0721,-1.0721,-1.0721,-1.0721,-1.0721,-1.0721,-1.0721,-1.0721,-1.0721,-1.0721,-1.0721,-1.0721,-1.0721,-1.0721,-1.0721,-1.0721,-1.0721,-1.0721,-1.0721,-1.0721,-1.0738,-1.0856,-1.1023,-1.1185,-1.125,-1.146,-1.1616,-1.1616,-1.1616,-1.1616,-1.1616,-1.1616,-1.1616,-1.1616,-1.1616,-1.1616,-1.1616,-1.1616,-1.1616,-1.1616,-1.1616,-1.1616,-1.1616,-1.1616,-1.1616,-1.1616,-1.1616,-1.1616,-1.1616,-1.1616,-1.1616,-1.1616,-1.1616,-1.1616,-1.1616,-1.1616,-1.1616,-1.1616,-1.1616,-1.1616,-1.1616,-1.1616,-1.1616,-1.1616,-1.1616,-1.1616,-1.1616,-1.1616,-1.1616,-0.2755,-0.3204,-0.3475,-0.3736,-0.3963,-0.4239,-0.4307,-0.4307,-0.444,-0.4842,-0.558,-0.5914,-0.6315,-0.6652,-0.6989,-0.7388,-0.7724,-0.8123,-0.8323,-0.852,-0.8587,-0.8653,-0.872,-0.8787,-0.8987,-0.9186,-0.9253,-0.9458,-0.9594,-0.9664,-0.9525,-0.9256,-0.8917,-0.8787,-0.8587,-0.8653,-0.872,-0.8987,-0.9455,-0.9794,-1.006,-1.0455,-1.0721,-1.0721,-1.0721,-1.0721,-1.0721,-1.0721,-1.0721,-1.0721,-1.0721,-1.0721,-1.0721,-1.0721,-1.0721,-1.0721,-1.0721,-1.0721,-1.0721,-1.0721,-1.0721,-1.0721,-1.0721,-1.0721,-1.0721,-1.0721,-1.0731,-1.0748,-1.0955,-1.1118,-1.1155,-1.1382,-1.1569,-1.1586,-1.1613,-1.1616,-1.1616,-1.1616,-1.1616,-1.1616,-1.1616,-1.1616,-1.1616,-1.1616,-1.1616,-1.1616,-1.1616,-1.1616,-1.1616,-1.1616,-1.1616,-1.1616,-1.1616,-1.1616,-1.1616,-1.1616,-1.1616,-1.1616,-1.1616,-1.1616,-1.1616,-1.1616,-1.1616,-1.1616,-1.1616,-1.1616,-1.1616,-1.1616,-1.1616,-1.1616,-1.1616,-1.1616,-1.1616,-1.1616,-1.1616,-0.2927,-0.3477,-0.3589,-0.3866,-0.423,-0.4307,-0.4307,-0.4374,-0.4641,-0.5176,-0.5847,-0.625,-0.6585,-0.692,-0.7257,-0.7591,-0.7992,-0.839,-0.8587,-0.8587,-0.872,-0.8787,-0.8987,-0.912,-0.9322,-0.9594,-0.9661,-0.9728,-0.9797,-0.9861,-0.9794,-0.9591,-0.9253,-0.8851,-0.8653,-0.8587,-0.8587,-0.872,-0.9392,-0.9661,-0.9861,-1.0389,-1.0654,-1.0721,-1.0721,-1.0721,-1.0721,-1.0721,-1.0721,-1.0721,-1.0721,-1.0721,-1.0721,-1.0721,-1.0721,-1.0721,-1.0721,-1.0721,-1.0721,-1.0721,-1.0721,-1.0721,-1.0721,-1.0721,-1.0721,-1.0721,-1.0721,-1.0734,-1.0884,-1.1033,-1.1158,-1.1307,-1.1463,-1.1575,-1.1606,-1.1616,-1.1616,-1.1616,-1.1616,-1.1616,-1.1616,-1.1616,-1.1616,-1.1616,-1.1616,-1.1616,-1.1616,-1.1616,-1.1616,-1.1616,-1.1616,-1.1616,-1.1616,-1.1616,-1.1616,-1.1616,-1.1616,-1.1616,-1.1616,-1.1616,-1.1616,-1.1616,-1.1616,-1.1616,-1.1616,-1.1616,-1.1616,-1.1616,-1.1616,-1.1616,-1.1616,-1.1616,-1.1616,-1.1616,-1.1616,-0.3112,-0.354,-0.3845,-0.4042,-0.4248,-0.4292,-0.4307,-0.4441,-0.4911,-0.5444,-0.5912,-0.6317,-0.6654,-0.6987,-0.739,-0.7724,-0.8125,-0.8456,-0.8587,-0.8653,-0.8787,-0.8984,-0.9117,-0.9389,-0.9658,-0.9924,-1.0057,-1.019,-1.0389,-1.0259,-1.019,-0.9987,-0.9452,-0.8917,-0.872,-0.8587,-0.8587,-0.872,-0.9259,-0.9731,-0.9794,-1.0323,-1.0721,-1.0721,-1.0721,-1.0721,-1.0721,-1.0721,-1.0721,-1.0721,-1.0721,-1.0721,-1.0721,-1.0721,-1.0721,-1.0721,-1.0721,-1.0721,-1.0721,-1.0721,-1.0721,-1.0721,-1.0721,-1.0721,-1.0721,-1.0721,-1.0721,-1.0744,-1.0779,-1.0992,-1.1155,-1.1301,-1.145,-1.1575,-1.1616,-1.1616,-1.1616,-1.1616,-1.1616,-1.1616,-1.1616,-1.1616,-1.1616,-1.1616,-1.1616,-1.1616,-1.1616,-1.1616,-1.1616,-1.1616,-1.1616,-1.1616,-1.1616,-1.1616,-1.1616,-1.1616,-1.1616,-1.1616,-1.1616,-1.1616,-1.1616,-1.1616,-1.1616,-1.1616,-1.1616,-1.1616,-1.1616,-1.1616,-1.1616,-1.1616,-1.1616,-1.1616,-1.1616,-1.1616,-1.1616,-0.3352,-0.3703,-0.3965,-0.4147,-0.4195,-0.4273,-0.4441,-0.471,-0.5312,-0.578,-0.6115,-0.6518,-0.6853,-0.7187,-0.7524,-0.7925,-0.8256,-0.8454,-0.8587,-0.8653,-0.8917,-0.9117,-0.9389,-0.9655,-1.0057,-1.0256,-1.0389,-1.0522,-1.0654,-1.0721,-1.0522,-1.0123,-0.9721,-0.9386,-0.9056,-0.8856,-0.8587,-0.8787,-0.9259,-0.9731,-0.9861,-1.0256,-1.0721,-1.0721,-1.0721,-1.0721,-1.0721,-1.0721,-1.0721,-1.0721,-1.0721,-1.0721,-1.0721,-1.0721,-1.0721,-1.0721,-1.0721,-1.0721,-1.0721,-1.0721,-1.0721,-1.0721,-1.0721,-1.0721,-1.0721,-1.0721,-1.0721,-1.0755,-1.0829,-1.0978,-1.1138,-1.1287,-1.1396,-1.1521,-1.1616,-1.1616,-1.1616,-1.1616,-1.1548,-1.1548,-1.1544,-1.1544,-1.1544,-1.1616,-1.1616,-1.1616,-1.1616,-1.1616,-1.1544,-1.1616,-1.1616,-1.1616,-1.1616,-1.1616,-1.1616,-1.1616,-1.1616,-1.1616,-1.1616,-1.1616,-1.1616,-1.1616,-1.1616,-1.1616,-1.1616,-1.1616,-1.1616,-1.1616,-1.1616,-1.1616,-1.1616,-1.1616,-1.1616,-1.1616,-1.1616,-0.3642,-0.3905,-0.4076,-0.4061,-0.4147,-0.4324,-0.4777,-0.5379,-0.578,-0.6115,-0.652,-0.6786,-0.7121,-0.7524,-0.7858,-0.8259,-0.852,-0.8587,-0.8653,-0.8787,-0.9053,-0.9322,-0.9724,-1.0057,-1.0323,-1.0588,-1.0654,-1.0588,-1.0721,-1.0721,-1.0522,-1.0323,-1.0123,-0.9854,-0.9525,-0.9125,-0.8856,-0.9056,-0.9458,-0.9794,-0.999,-1.0389,-1.0654,-1.0721,-1.0721,-1.0721,-1.0721,-1.0721,-1.0721,-1.0721,-1.0721,-1.0721,-1.0721,-1.0721,-1.0721,-1.0721,-1.0721,-1.0721,-1.0721,-1.0721,-1.0721,-1.0721,-1.0721,-1.0721,-1.0721,-1.0721,-1.0721,-1.0721,-1.0768,-1.0945,-1.1114,-1.1212,-1.1314,-1.1457,-1.1603,-1.1616,-1.1616,-1.1548,-1.1476,-1.1476,-1.14,-1.14,-1.1325,-1.1397,-1.1329,-1.1329,-1.1329,-1.14,-1.14,-1.1544,-1.1616,-1.1616,-1.1616,-1.1616,-1.1616,-1.1616,-1.1616,-1.1616,-1.1616,-1.1616,-1.1616,-1.1616,-1.1616,-1.1616,-1.1616,-1.1616,-1.1616,-1.1616,-1.1616,-1.1616,-1.1616,-1.1616,-1.1616,-1.1616,-1.1616,-0.364,-0.3901,-0.4078,-0.4061,-0.4208,-0.4787,-0.5312,-0.578,-0.5845,-0.6115,-0.652,-0.6851,-0.7254,-0.7526,-0.7922,-0.8256,-0.8456,-0.8653,-0.8784,-0.8987,-0.9322,-0.9724,-1.0057,-1.0326,-1.0588,-1.0654,-1.0721,-1.0721,-1.0721,-1.0721,-1.0717,-1.0518,-1.0323,-1.019,-0.9924,-0.9594,-0.9458,-0.9458,-0.9861,-0.9927,-1.0123,-1.0455,-1.0654,-1.0721,-1.0721,-1.0721,-1.0721,-1.0721,-1.0721,-1.0721,-1.0721,-1.0721,-1.0721,-1.0721,-1.0721,-1.0721,-1.0721,-1.0721,-1.0721,-1.0721,-1.0721,-1.0721,-1.0721,-1.0721,-1.0721,-1.0721,-1.0721,-1.0721,-1.0731,-1.088,-1.105,-1.1172,-1.1304,-1.146,-1.1511,-1.1476,-1.1476,-1.1329,-1.1257,-1.1185,-1.1113,-1.1038,-1.0962,-1.0962,-1.089,-1.0894,-1.0966,-1.1113,-1.1329,-1.1472,-1.1544,-1.1616,-1.1616,-1.1616,-1.1616,-1.1616,-1.1616,-1.1616,-1.1616,-1.1616,-1.1616,-1.1616,-1.1616,-1.1616,-1.1616,-1.1616,-1.1616,-1.1616,-1.1616,-1.1616,-1.1616,-1.1616,-1.1616,-1.1616,-1.1616,-0.3765,-0.3905,-0.4013,-0.4281,-0.4731,-0.534,-0.578,-0.6115,-0.6116,-0.6386,-0.6719,-0.7054,-0.7388,-0.7791,-0.8123,-0.839,-0.8587,-0.8787,-0.8917,-0.912,-0.9658,-0.9924,-1.0259,-1.0522,-1.0654,-1.0721,-1.0721,-1.0721,-1.0721,-1.0721,-1.0717,-1.0651,-1.0455,-1.0389,-1.0323,-1.019,-1.0123,-1.0127,-1.0193,-1.0193,-1.0323,-1.0522,-1.0651,-1.0721,-1.0721,-1.0721,-1.0721,-1.0721,-1.0721,-1.0721,-1.0721,-1.0721,-1.0721,-1.0721,-1.0721,-1.0721,-1.0721,-1.0721,-1.0721,-1.0721,-1.0721,-1.0721,-1.0721,-1.0721,-1.0721,-1.0721,-1.0721,-1.0721,-1.0744,-1.0806,-1.0978,-1.1148,-1.1318,-1.1491,-1.1412,-1.14,-1.1185,-1.0966,-1.0894,-1.0822,-1.0678,-1.0603,-1.0527,-1.0455,-1.0527,-1.0603,-1.075,-1.0897,-1.1113,-1.14,-1.1544,-1.1616,-1.1616,-1.1616,-1.1616,-1.1616,-1.1616,-1.1616,-1.1616,-1.1616,-1.1616,-1.1616,-1.1616,-1.1616,-1.1616,-1.1616,-1.1616,-1.1616,-1.1616,-1.1616,-1.1616,-1.1616,-1.1616,-1.1616,-1.1616,-0.3888,-0.3899,-0.4076,-0.465,-0.5369,-0.5711,-0.6115,-0.6453,-0.652,-0.6721,-0.6987,-0.7388,-0.7727,-0.8058,-0.839,-0.852,-0.872,-0.8851,-0.912,-0.9186,-0.9857,-1.0193,-1.0389,-1.0518,-1.0721,-1.0721,-1.0721,-1.0721,-1.0721,-1.0721,-1.0721,-1.0721,-1.0654,-1.0654,-1.0588,-1.0588,-1.0522,-1.0522,-1.0389,-1.0323,-1.0389,-1.0522,-1.0721,-1.0721,-1.0721,-1.0721,-1.0721,-1.0721,-1.0721,-1.0721,-1.0721,-1.0721,-1.0721,-1.0721,-1.0721,-1.0721,-1.0721,-1.0721,-1.0721,-1.0721,-1.0721,-1.0721,-1.0721,-1.0721,-1.0721,-1.0721,-1.0721,-1.0721,-1.0738,-1.0806,-1.0955,-1.1107,-1.127,-1.1291,-1.1178,-1.1087,-1.0897,-1.0678,-1.0386,-1.0314,-1.017,-1.0095,-1.0095,-1.0023,-1.0023,-1.0239,-1.0458,-1.0534,-1.075,-1.1113,-1.14,-1.1472,-1.1619,-1.1619,-1.1616,-1.1616,-1.1616,-1.1616,-1.1616,-1.1616,-1.1616,-1.1616,-1.1616,-1.1616,-1.1616,-1.1616,-1.1616,-1.1616,-1.1616,-1.1616,-1.1616,-1.1616,-1.1616,-1.1616,-1.1616,-0.3888,-0.3962,-0.4397,-0.4918,-0.5439,-0.578,-0.6115,-0.652,-0.6786,-0.6918,-0.7121,-0.7655,-0.7992,-0.8192,-0.8454,-0.8587,-0.872,-0.9053,-0.9256,-0.9588,-1.006,-1.0392,-1.0522,-1.0654,-1.0721,-1.0721,-1.0721,-1.0721,-1.0721,-1.0721,-1.0721,-1.0721,-1.0721,-1.0721,-1.0721,-1.0721,-1.0717,-1.0717,-1.0585,-1.0522,-1.0588,-1.0588,-1.0721,-1.0721,-1.0721,-1.0721,-1.0721,-1.0721,-1.0721,-1.0721,-1.0721,-1.0721,-1.0721,-1.0721,-1.0721,-1.0721,-1.0721,-1.0721,-1.0721,-1.0721,-1.0721,-1.0721,-1.0721,-1.0721,-1.0721,-1.0721,-1.0721,-1.0721,-1.0748,-1.0759,-1.0853,-1.0998,-1.1143,-1.1013,-1.0879,-1.0781,-1.0606,-1.0314,-0.9954,-0.9807,-0.9663,-0.9663,-0.9663,-0.9663,-0.9593,-0.9738,-0.9951,-1.0098,-1.0242,-1.053,-1.1038,-1.1253,-1.1548,-1.1548,-1.1619,-1.1616,-1.1616,-1.1616,-1.1616,-1.1616,-1.1616,-1.1616,-1.1616,-1.1616,-1.1616,-1.1616,-1.1616,-1.1616,-1.1616,-1.1616,-1.1616,-1.1616,-1.1616,-1.1616,-1.1616,-0.3888,-0.3966,-0.465,-0.5159,-0.559,-0.5965,-0.6382,-0.6719,-0.7054,-0.7323,-0.7522,-0.7922,-0.8189,-0.8256,-0.852,-0.872,-0.8853,-0.9256,-0.9591,-0.9927,-1.0193,-1.0522,-1.0654,-1.0721,-1.0721,-1.0721,-1.0721,-1.0721,-1.0721,-1.0721,-1.0721,-1.0721,-1.0721,-1.0721,-1.0721,-1.0721,-1.0721,-1.0721,-1.0721,-1.0721,-1.0721,-1.0721,-1.0721,-1.0721,-1.0721,-1.0721,-1.0721,-1.0721,-1.0721,-1.0721,-1.0721,-1.0721,-1.0721,-1.0721,-1.0721,-1.0721,-1.0721,-1.0721,-1.0721,-1.0721,-1.0721,-1.0721,-1.0721,-1.0721,-1.0721,-1.0721,-1.0721,-1.0721,-1.0721,-1.0785,-1.0735,-1.0863,-1.0856,-1.0788,-1.0472,-1.0227,-1.0026,-0.9738,-0.9593,-0.9518,-0.9446,-0.9446,-0.9446,-0.9446,-0.9449,-0.9449,-0.959,-0.9807,-0.9951,-1.0023,-1.0527,-1.0962,-1.1185,-1.1476,-1.1619,-1.1616,-1.1616,-1.1616,-1.1616,-1.1616,-1.1616,-1.1616,-1.1616,-1.1616,-1.1616,-1.1616,-1.1616,-1.1616,-1.1616,-1.1616,-1.1616,-1.1616,-1.1616,-1.1616,-1.1616,-0.3955,-0.4101,-0.4906,-0.546,-0.5869,-0.6348,-0.6719,-0.7051,-0.739,-0.7794,-0.7992,-0.8125,-0.8323,-0.852,-0.8653,-0.8851,-0.9183,-0.9588,-0.9927,-1.0193,-1.0522,-1.0654,-1.0654,-1.0721,-1.0721,-1.0721,-1.0721,-1.0721,-1.0721,-1.0721,-1.0721,-1.0721,-1.0721,-1.0721,-1.0721,-1.0721,-1.0721,-1.0721,-1.0721,-1.0721,-1.0721,-1.0721,-1.0721,-1.0721,-1.0721,-1.0721,-1.0721,-1.0721,-1.0721,-1.0721,-1.0721,-1.0721,-1.0721,-1.0721,-1.0721,-1.0721,-1.0721,-1.0721,-1.0721,-1.0721,-1.0721,-1.0721,-1.0721,-1.0721,-1.0721,-1.0721,-1.0721,-1.0654,-1.0654,-1.0635,-1.0584,-1.0558,-1.0548,-1.0407,-1.0028,-0.9807,-0.9518,-0.9377,-0.9304,-0.9304,-0.9304,-0.9304,-0.9304,-0.9304,-0.9304,-0.9304,-0.9374,-0.959,-0.9735,-0.9735,-1.0023,-1.0455,-1.0746,-1.1109,-1.14,-1.1616,-1.1616,-1.1616,-1.1616,-1.1616,-1.1616,-1.1616,-1.1616,-1.1616,-1.1616,-1.1616,-1.1616,-1.1616,-1.1616,-1.1616,-1.1616,-1.1616,-1.1616,-1.1616,-1.1616,-0.4102,-0.4467,-0.5248,-0.5654,-0.5933,-0.6546,-0.6918,-0.7118,-0.7722,-0.8058,-0.8125,-0.839,-0.8587,-0.8653,-0.8917,-0.9117,-0.9253,-0.9791,-1.006,-1.0259,-1.0588,-1.0654,-1.0721,-1.0721,-1.0721,-1.0721,-1.0721,-1.0721,-1.0721,-1.0721,-1.0721,-1.0721,-1.0721,-1.0721,-1.0721,-1.0721,-1.0721,-1.0721,-1.0721,-1.0721,-1.0721,-1.0721,-1.0721,-1.0721,-1.0721,-1.0721,-1.0721,-1.0721,-1.0721,-1.0721,-1.0721,-1.0721,-1.0721,-1.0721,-1.0721,-1.0721,-1.0721,-1.0721,-1.0721,-1.0721,-1.0721,-1.0721,-1.0721,-1.0721,-1.0721,-1.0654,-1.0588,-1.0329,-1.0345,-1.0344,-1.0296,-1.0222,-1.014,-0.9933,-0.9595,-0.9496,-0.9377,-0.9304,-0.9304,-0.9304,-0.9304,-0.9304,-0.9304,-0.9304,-0.9304,-0.9304,-0.9304,-0.9446,-0.9446,-0.9518,-0.959,-0.9951,-1.0383,-1.0678,-1.1044,-1.1472,-1.1616,-1.1616,-1.1616,-1.1616,-1.1616,-1.1616,-1.1616,-1.1616,-1.1616,-1.1616,-1.1616,-1.1616,-1.1616,-1.1616,-1.1616,-1.1616,-1.1616,-1.1616,-1.1616]}]]